[[{"header":{"parameterUnit":"m.s-1","parameterCategory":1,"la1":30.6,"la2":29.2853,"lo1":-89.7004,"lo2":-87.6739,"dy":0.0162,"dx":0.0183,"nx":112,"ny":82,"refTime":"2026-03-09T12:00:00:Z","depth":0,"parameterNumber":2,"parameterNumberName":"U-component_of_WINDS"},"data":[0.0,0.0,0.0,0.0,0.0,0.0,0.0,0.0,0.0,0.0,0.0,0.0,0.0,0.0,0.0,0.0,0.0,0.0,0.0,0.0,0.0,0.0,0.0,0.0,0.0,0.0,0.0,0.0,0.0,0.0,0.0,0.0,0.0,0.0,0.0,0.0,0.0,0.0,0.0,0.0,0.0,0.0,0.0,0.0,0.0,0.0,0.0,0.0,0.0,0.0,0.0,0.0,0.0,0.0,0.0,0.0,0.0,0.0,0.0,0.0,0.0,0.0,0.0,0.0,0.0,0.0,0.0,0.0,0.0,0.0,0.0,0.0,0.0,0.0,0.0,0.0,0.0,0.0,0.0,0.0,0.0,0.0,0.0,0.0,0.0,0.0,0.0,0.0,0.0,0.0,0.0,0.2151,1.6315,2.5726,2.6328,2.3076,1.81,1.1371,0.0,0.0,0.0,0.0,0.0,0.0,0.0,0.0,0.0,0.0,0.0,0.0,0.0,0.0,0.0,0.0,0.0,0.0,0.0,0.0,0.0,0.0,0.0,0.0,0.0,0.0,0.0,0.0,0.0,0.0,0.0,0.0,0.0,0.0,0.0,0.0,0.0,0.0,0.0,0.0,0.0,0.0,0.0,0.0,0.0,0.0,0.0,0.0,0.0,0.0,0.0,0.0,0.0,0.0,0.0,0.0,0.0,0.0,0.0,0.0,0.0,0.0,0.0,0.0,0.0,0.0,0.0,0.0,0.0,0.0,0.0,0.0,0.0,0.0,0.0,0.0,0.0,0.0,0.0,0.0,0.0,0.0,0.0,0.0,0.0,0.0,0.0,0.0,0.0,0.0,0.0,0.0,0.0,0.0,0.0,0.0,0.0,0.0,0.0,0.0,0.0,0.0,0.0,0.0,-0.2606,0.9653,1.7634,2.4389,2.956,2.2802,1.635,1.1301,0.0,0.0,0.0,0.0,0.0,0.0,0.0,0.0,0.0,0.0,0.0,0.0,0.0,0.0,0.0,0.0,0.0,0.0,0.0,0.0,0.0,0.0,0.0,0.0,0.0,0.0,0.0,0.0,0.0,0.0,0.0,0.0,0.0,0.0,0.0,0.0,0.0,0.0,0.0,0.0,0.0,0.0,0.0,0.0,0.0,0.0,0.0,0.0,0.0,0.0,0.0,0.0,0.0,0.0,0.0,0.0,0.0,0.0,0.0,0.0,0.0,0.0,0.0,0.0,0.0,0.0,0.0,0.0,0.0,0.0,0.0,0.0,0.0,0.0,0.0,0.0,0.0,0.0,0.0,0.0,0.0,0.0,0.0,0.0,0.0,0.0,0.0,0.0,0.0,0.0,0.0,0.0,0.0,0.0,0.0,0.0,0.0,0.0,0.0,0.0,0.0,0.0,0.0,-0.4218,0.2397,1.3757,2.0807,2.5684,2.7934,2.3169,1.7088,1.0432,0.3158,0.0,0.0,0.0,0.0,0.0,0.0,0.0,0.0,0.0,0.0,0.0,0.0,0.0,0.0,0.0,0.0,0.0,0.0,0.0,0.0,0.0,0.0,0.0,0.0,0.0,0.0,0.0,0.0,0.0,0.0,0.0,0.0,0.0,0.0,0.0,0.0,0.0,0.0,0.0,0.0,0.0,0.0,0.0,0.0,0.0,0.0,0.0,0.0,0.0,0.0,0.0,0.0,0.0,0.0,0.0,0.0,0.0,0.0,0.0,0.0,0.0,0.0,0.0,0.0,0.0,0.0,0.0,0.0,0.0,0.0,0.0,0.0,0.0,0.0,0.0,0.0,0.0,0.0,0.0,0.0,0.0,0.0,0.0,0.0,0.0,0.0,0.0,0.0,0.0,0.0,0.0,0.0,0.0,0.0,0.0,0.0,0.0,0.0,0.0,0.0,0.0,0.0,0.2087,0.7236,1.6099,2.1751,2.4943,2.5047,2.1827,1.6508,0.8518,0.2262,0.0,0.0,0.0,0.0,0.0,0.0,0.0,0.0,0.0,0.0,0.0,0.0,0.0,0.0,0.0,0.0,0.0,0.0,0.0,0.0,0.0,0.0,0.0,0.0,0.0,0.0,0.0,0.0,0.0,0.0,0.0,0.0,0.0,0.0,0.0,0.0,0.0,0.0,0.0,0.0,0.0,0.0,0.0,0.0,0.0,0.0,0.0,0.0,0.0,0.0,0.0,0.0,0.0,0.0,0.0,0.0,0.0,0.0,0.0,0.0,0.0,0.0,0.0,0.0,0.0,0.0,0.0,0.0,0.0,0.0,0.0,0.0,0.0,0.0,0.0,0.0,0.0,0.0,0.0,0.0,0.0,0.0,0.0,0.0,0.0,0.0,0.0,0.0,0.0,0.0,0.0,0.0,0.0,0.0,0.0,0.0,0.0,0.0,0.0,0.0,0.0,0.0,0.5559,1.0482,1.7495,1.7851,1.8955,2.165,1.7235,1.1571,0.5193,0.1529,0.0,0.0,0.0,0.0,0.0,0.0,0.0,0.0,0.0,0.0,0.0,0.0,0.0,0.0,0.0,0.0,0.0,0.0,0.0,0.0,0.0,0.0,0.0,0.0,0.0,0.0,0.0,0.0,0.0,0.0,0.0,0.0,0.0,0.0,0.0,0.0,0.0,0.0,0.0,0.0,0.0,0.0,0.0,0.0,0.0,0.0,0.0,0.0,0.0,0.0,0.0,0.0,0.0,0.0,0.0,0.0,0.0,0.0,0.0,0.0,0.0,0.0,0.0,0.0,0.0,0.0,0.0,0.0,0.0,0.0,0.0,0.0,0.0,0.0,0.0,0.0,0.0,0.0,0.0,0.0,0.0,0.0,0.0,0.0,0.0,0.0,0.0,0.0,0.0,0.0,0.0,0.0,0.0,0.0,0.0,0.0,0.0,0.0,0.0,0.0,0.0,0.0,0.6257,1.1284,0.0,1.9,2.0146,2.0922,1.2888,0.697,0.4651,0.0,0.0,0.0,0.0,0.0,0.0,0.0,0.0,0.0,0.0,0.0,0.0,0.0,0.0,0.0,0.0,0.0,0.0,0.0,0.0,0.0,0.0,0.0,0.0,0.0,0.0,0.0,0.0,0.0,0.0,0.0,0.0,0.0,0.0,0.0,0.0,0.0,0.0,0.0,0.0,0.0,0.0,0.0,0.0,0.0,0.0,0.0,0.0,0.0,0.0,0.0,0.0,0.0,0.0,0.0,0.0,0.0,0.0,0.0,0.0,0.0,0.0,0.0,0.0,0.0,0.0,0.0,0.0,0.0,0.0,0.0,0.0,0.0,0.0,0.0,0.0,0.0,0.0,0.0,0.0,0.0,0.0,0.0,0.0,0.0,0.0,0.0,0.0,0.0,0.0,0.0,0.0,0.0,0.0,0.0,0.0,0.0,0.0,0.0,0.0,0.0,0.0,0.1831,0.7714,1.3047,0.0,1.9077,1.974,1.9077,0.9346,0.3176,0.3139,0.0,0.0,0.0,0.0,0.0,0.0,0.0,0.0,0.0,0.0,0.0,0.0,0.0,0.0,0.0,0.0,0.0,0.0,0.0,0.0,0.0,0.0,0.0,0.0,0.0,0.0,0.0,0.0,0.0,0.0,0.0,0.0,0.0,0.0,0.0,0.0,0.0,0.0,0.0,0.0,0.0,0.0,0.0,0.0,0.0,0.0,0.0,0.0,0.0,0.0,0.0,0.0,0.0,0.0,0.0,0.0,0.0,0.0,0.0,0.0,0.0,0.0,0.0,0.0,0.0,0.0,0.0,0.0,0.0,0.0,0.0,0.0,0.0,0.0,0.0,0.0,0.0,0.0,0.0,0.0,0.0,0.0,0.0,0.0,0.0,0.0,0.0,0.0,0.0,0.0,0.0,0.0,0.0,0.0,0.0,0.0,0.0,0.0,0.0,0.0,0.0,0.0,0.3204,1.0651,1.6551,1.826,1.7023,1.6103,1.6103,0.6616,0.0703,0.0,0.0,0.0,0.0,0.0,0.0,0.0,0.0,0.0,0.0,0.0,0.0,0.0,0.0,0.0,0.0,0.0,0.0,0.0,0.0,0.0,0.0,0.0,0.0,0.0,0.0,0.0,0.0,0.0,0.0,0.0,0.0,0.0,0.0,0.0,0.0,0.0,0.0,0.0,0.0,0.0,0.0,0.0,0.0,0.0,0.0,0.0,0.0,0.0,0.0,0.0,0.0,0.0,0.0,0.0,0.0,0.0,0.0,0.0,0.0,0.0,0.0,0.0,0.0,0.0,0.0,0.0,0.0,0.0,0.0,0.0,0.0,0.0,0.0,0.0,0.0,0.0,0.0,0.0,0.0,0.0,0.0,0.0,0.0,0.0,0.0,0.0,0.0,0.0,0.0,0.0,0.0,0.0,0.0,0.0,0.0,0.0,0.0,0.0,0.0,0.0,0.0,0.0,0.292,1.0594,1.6551,1.826,1.8937,1.8547,1.6375,1.0878,0.5596,0.0674,0.0,0.0,0.0,0.0,0.0,0.0,0.0,0.0,0.0,0.0,0.0,0.0,0.0,0.0,0.0,0.0,0.0,0.0,0.0,0.0,0.0,0.0,0.0,0.0,0.0,0.0,0.0,0.0,0.0,0.0,0.0,0.0,0.0,0.0,0.0,0.0,0.0,0.0,0.0,0.0,0.0,0.0,0.0,0.0,0.0,0.0,0.0,0.0,0.0,0.0,0.0,0.0,0.0,0.0,0.0,0.0,0.0,0.0,0.0,0.0,0.0,0.0,0.0,0.0,0.0,0.0,0.0,0.0,0.0,0.0,0.0,0.0,0.0,0.0,0.0,0.0,0.0,0.0,0.0,0.0,0.0,0.0,0.0,0.0,0.0,0.0,0.0,0.0,0.0,0.0,0.0,0.0,0.0,0.0,0.0,0.0,0.0,0.0,0.0,0.0,0.0,0.0,0.3594,1.0927,1.6955,1.8236,1.8647,1.8055,1.6003,1.1491,0.6251,0.0514,0.0,0.0,0.0,0.0,0.0,0.0,0.0,0.0,0.0,0.0,0.0,0.0,0.0,0.0,0.0,0.0,0.0,0.0,0.0,0.0,0.0,0.0,0.0,0.0,0.0,0.0,0.0,0.0,0.0,0.0,0.0,0.0,0.0,0.0,0.0,0.0,0.0,0.0,0.0,0.0,0.0,0.0,0.0,0.0,0.0,0.0,0.0,0.0,0.0,0.0,0.0,0.0,0.0,0.0,0.0,0.0,0.0,0.0,0.0,0.0,0.0,0.0,0.0,0.0,0.0,0.0,0.0,0.0,0.0,0.0,0.0,0.0,0.0,0.0,0.0,0.0,0.0,0.0,0.0,0.0,0.0,0.0,0.0,0.0,0.0,0.0,0.0,0.0,0.0,0.0,0.0,0.0,0.0,0.0,0.0,0.0,0.0,0.0,0.0,0.0,0.0,0.0,0.4526,1.1685,1.7114,1.854,1.7344,1.6288,1.5726,1.0296,0.4956,0.0533,0.0,0.0,0.0,0.0,0.0,0.0,0.0,0.0,0.0,0.0,0.0,0.0,0.0,0.0,0.0,0.0,0.0,0.0,0.0,0.0,0.0,0.0,0.0,0.0,0.0,0.0,0.0,0.0,0.0,0.0,0.0,0.0,0.0,0.0,0.0,0.0,0.0,0.0,0.0,0.0,0.0,0.0,0.0,0.0,0.0,0.0,0.0,0.0,0.0,0.0,0.0,0.0,0.0,0.0,0.0,0.0,0.0,0.0,0.0,0.0,1.3439,0.0,0.0,0.0,0.0,0.0,0.0,0.0,0.0,0.0,0.0,0.0,0.0,0.0,0.0,0.0,0.0,0.0,0.0,0.0,0.0,0.0,0.0,0.0,0.0,0.0,0.0,0.0,0.0,0.0,0.0,0.0,0.0,0.0,0.0,0.0,0.0,0.0,0.0,0.0,0.0,0.0,0.3123,1.0371,1.644,1.9212,1.8863,1.8219,1.7672,1.632,1.2442,0.4604,0.367,0.0,0.0,0.0,0.0,0.0,0.0,0.0,0.0,0.0,0.0,0.0,0.0,0.0,0.0,0.0,0.0,0.0,0.0,0.0,0.0,0.0,0.0,0.0,0.0,0.0,0.0,0.0,0.0,0.0,0.0,0.0,0.0,0.0,0.0,0.0,0.0,0.0,0.0,0.0,0.0,0.0,0.0,0.0,0.0,0.0,0.0,0.0,0.0,0.0,0.0,0.0,0.0,0.0,0.0,0.0,0.0,0.0,0.0,0.0,0.0,1.5506,0.0,0.0,0.0,0.0,0.0,0.0,0.0,0.0,0.0,0.0,0.0,0.0,0.0,0.0,0.0,0.0,0.0,0.0,0.0,0.0,0.0,0.0,0.0,0.0,0.0,0.0,0.0,0.0,0.0,0.0,0.0,0.0,0.0,0.0,0.0,0.0,0.0,0.0,0.0,0.0,0.5036,1.188,1.7273,1.8706,1.7797,1.6403,1.5136,1.5459,1.2754,0.5311,0.4311,0.0,0.0,0.0,0.0,0.0,0.0,0.0,0.0,0.0,0.0,0.0,0.0,0.0,0.0,0.0,0.0,0.0,0.0,0.0,0.0,0.0,0.0,0.0,0.0,0.0,0.0,0.0,0.0,0.0,0.0,0.0,0.0,0.0,0.0,0.0,0.0,0.0,0.0,0.0,0.0,0.0,0.0,0.0,0.0,0.0,0.0,0.0,0.0,0.0,0.0,0.0,0.0,0.0,0.0,4.5871,4.5046,3.6204,3.7242,4.5809,3.3931,2.9501,2.9125,0.0,0.0,0.0,0.0,0.0,0.0,0.0,0.0,0.0,0.0,0.0,0.0,0.0,0.0,0.0,0.0,0.0,0.0,0.0,0.0,0.0,0.0,0.0,0.0,0.0,0.9023,0.8142,0.0,0.0,0.0,0.0,0.0,0.0,0.0,0.0,0.0,0.0,0.0,0.0,0.7453,1.3532,1.7809,1.8118,1.5836,1.342,1.2265,1.2729,1.0813,0.5815,0.3963,0.0559,0.0,0.0,0.0,0.0,0.0,0.0,0.0,0.0,0.0,0.0,0.0,0.0,0.0,0.0,0.0,0.0,0.0,0.0,0.0,0.0,0.0,0.0,0.0,0.0,0.0,0.0,0.0,0.0,0.0,0.0,0.0,0.0,4.6161,4.6208,0.0,0.0,0.0,0.0,0.0,0.0,0.0,0.0,0.0,0.0,0.0,0.0,0.0,0.0,3.8139,5.0312,5.3521,4.792,4.9215,4.8583,4.6185,4.4736,4.502,4.6271,4.2717,0.0,2.7977,2.5747,0.0,0.0,0.0,0.0,0.0,0.0,0.0,0.0,0.0,0.0,0.0,0.0,0.0,0.0,0.0,0.0,0.0,0.0,0.0,0.0,0.0,0.0,1.2016,1.2836,1.4629,1.5888,0.0,0.9163,0.5115,0.559,0.0,0.0,0.0,0.0,0.0,0.0,0.0,0.0,0.5636,1.1508,1.657,1.8603,1.4879,1.2886,1.486,1.3385,1.1923,1.0308,0.7665,0.3414,-0.2439,-0.4255,0.0,0.0,0.0,0.0,0.0,0.0,0.0,0.0,0.0,0.0,0.0,0.0,0.0,0.0,0.0,0.0,0.0,0.0,0.0,0.0,0.0,0.0,0.0,0.0,0.0,0.0,0.0,0.0,0.0,3.9994,4.4952,3.9473,3.7637,3.1753,0.0,0.0,0.0,0.0,0.0,0.0,0.0,0.0,0.0,4.0079,4.3406,4.7145,5.1368,5.5914,5.5908,5.1257,5.2118,5.0792,4.7694,4.8046,4.8341,4.8103,4.5577,4.1162,3.4846,2.8636,2.0716,1.1813,0.0,0.0,0.0,0.0,0.0,-0.0728,0.0201,0.0,0.0,0.0,0.0,0.0,0.0,0.0,0.0,0.0,0.0,0.0,0.0,0.0,0.0,1.9873,2.1581,2.2167,2.1824,1.8952,1.5082,0.0,0.6162,0.3748,0.0979,0.0,0.0,0.0,0.0,0.0,1.1416,1.609,1.9175,1.8252,1.5686,1.343,1.1801,1.2093,1.1284,0.8494,0.6476,0.3632,-0.0633,-0.4547,-0.8052,0.0,0.0,0.0,0.0,0.0,0.0,0.0,0.0,0.0,0.0,0.0,0.0,0.0,0.0,0.0,0.0,0.0,0.0,0.0,0.0,0.0,0.0,0.0,0.0,0.0,0.0,0.0,0.0,4.2677,4.7793,3.9148,4.2999,3.9883,0.0,0.0,0.0,0.0,0.0,0.0,4.0124,3.9136,4.209,5.0049,5.1234,5.4223,5.973,5.8516,5.6748,5.4587,5.3127,5.1513,4.9306,5.0054,4.9751,4.8429,4.5866,4.2864,3.9211,3.1077,2.513,2.0835,1.3121,0.9055,0.7599,0.8664,0.8529,0.7424,0.5173,0.6266,0.7807,0.3467,0.0,0.2739,0.1904,0.0,0.0,0.0,0.0,0.7769,1.5616,0.0,2.063,2.5057,2.62,2.6249,2.5891,2.5714,2.2849,0.0,0.995,0.7226,0.4604,0.0,0.0,0.0,0.0,1.1994,1.6162,1.9834,2.0864,1.7746,1.6327,1.3584,0.9009,1.0733,1.0809,0.7286,0.536,0.3302,0.0914,-0.4543,-0.7551,-0.775,0.0,0.0,0.0,0.0,0.0,0.0,0.0,0.0,0.0,0.0,0.0,0.0,0.0,0.0,0.0,0.0,0.0,0.0,0.0,0.0,0.0,0.0,0.0,0.0,0.0,0.0,0.0,0.0,0.0,5.7268,5.9825,0.0,0.0,0.0,0.0,4.0082,3.8756,4.169,5.0187,4.8569,5.1468,6.009,6.1061,6.0934,5.9694,5.7386,5.5319,5.3831,5.1003,5.0112,5.0989,5.1081,4.9102,4.5533,4.3084,3.9798,3.591,3.4929,2.9206,2.0575,1.7757,1.3139,0.8979,1.471,1.4529,1.1974,1.5938,1.5115,1.2033,0.8879,0.539,0.2388,0.2113,0.1173,0.0,0.0,1.1821,1.5629,2.2755,2.5063,2.5593,2.633,2.6574,2.6606,2.6249,2.787,2.8229,0.0,2.1868,1.9574,1.517,0.0,1.2178,0.7847,1.2274,1.6087,1.6466,1.9163,2.0128,1.7511,1.5039,1.2592,0.9657,1.0622,1.1058,0.9939,0.6436,0.363,0.216,-0.2268,-0.6076,-0.939,-0.824,0.0,0.0,0.0,0.0,0.0,0.0,0.0,0.0,0.0,0.0,0.0,0.0,0.0,0.0,0.0,0.0,0.0,0.0,0.0,0.0,0.0,0.0,0.0,0.0,0.0,0.0,0.0,0.0,5.2044,5.8299,0.0,0.0,4.8396,4.9312,4.9362,5.2811,5.6199,5.9518,5.8598,5.9487,6.2949,6.349,6.2762,6.0434,5.7785,5.5704,5.3747,5.1172,5.0308,5.0709,4.9274,4.7645,4.5611,4.0783,3.8082,3.6581,3.4134,3.0658,2.7167,2.5989,2.3941,2.1882,2.4492,2.3833,2.1311,1.9671,1.7747,1.4931,0.9821,0.6789,0.5728,0.7602,0.766,0.846,1.421,1.7047,1.9225,2.3404,2.47,2.4993,2.5755,2.5591,2.5575,2.6156,2.6502,2.6406,2.5144,2.2669,1.9633,1.6432,1.2684,0.9336,0.7467,0.9092,1.1692,1.5289,1.5717,1.581,1.6886,1.5029,1.2584,0.9645,1.0098,0.9194,0.5994,0.4444,0.1943,-0.2138,-0.4153,-0.5745,-0.6867,-0.9353,-1.1283,0.0,0.0,0.0,0.0,0.0,0.0,0.0,0.0,0.0,0.0,0.0,0.0,0.0,0.0,0.0,0.0,0.0,0.0,0.0,0.0,0.0,0.0,0.0,0.0,0.0,0.0,5.3324,5.2163,6.1744,6.4478,5.4101,5.756,6.0137,5.9169,6.2608,6.5128,6.5795,6.4626,6.4155,6.4531,6.3815,6.2121,5.9796,5.6988,5.4523,5.2708,5.1249,5.009,4.9134,4.7818,4.5638,4.2901,3.8996,3.6602,3.5386,3.2981,3.1737,3.1306,3.095,3.0371,2.9907,3.0578,2.9507,2.6572,2.0765,1.7499,1.505,1.0105,0.8036,0.7941,1.078,1.2331,1.3948,1.8183,2.056,2.237,2.4045,2.4798,2.5255,2.5959,2.5669,2.5606,2.6301,2.6092,2.5582,2.5826,2.3705,2.0661,1.6659,1.2614,0.915,0.6961,0.6333,0.744,1.1214,1.1563,1.1907,1.2812,1.3399,1.2486,0.9575,0.8295,0.5855,0.2138,-0.0,-0.3111,-0.7599,-0.8703,-0.9319,-0.9267,-1.349,-1.5353,-1.4251,0.0,0.0,0.0,0.0,0.0,0.0,0.0,0.0,0.0,0.0,0.0,0.0,0.0,0.0,0.0,0.0,0.0,0.0,0.0,0.0,0.0,0.0,0.0,4.1894,5.421,6.1916,6.0129,7.1654,7.6929,6.954,7.1472,7.1988,6.9192,6.7235,6.6918,6.8521,6.5895,6.4872,6.5553,6.253,5.9865,5.7585,5.4615,5.2081,5.04,5.0627,4.9471,4.7175,4.6894,4.3539,3.7232,3.7211,3.5386,3.2357,3.2357,3.2357,3.2357,3.179,3.1772,3.1735,3.2577,3.0986,2.7157,1.9871,1.5243,1.2075,0.9535,0.8621,0.9148,1.1475,1.4169,1.6923,1.9188,2.241,2.5388,2.5388,2.606,2.6785,2.6963,2.6866,2.6736,2.6736,2.646,2.6168,2.5973,2.5648,2.3375,1.6962,1.5746,1.3685,0.7389,0.4928,0.0,0.4001,0.7359,0.8675,0.5263,0.9825,1.2043,0.9151,0.4723,0.1342,-0.044,-0.6496,-1.0993,-1.3294,-1.5473,-1.6656,-1.6643,-2.0335,-2.1306,-1.9434,0.0,0.0,0.0,0.0,0.0,0.0,0.0,0.0,0.0,0.0,0.0,0.0,0.0,0.0,0.0,0.0,0.0,0.0,0.0,0.0,0.0,0.0,5.1965,5.5355,6.0251,6.6129,7.3692,7.8163,7.9265,7.4898,7.3484,7.1525,6.806,6.5945,6.5377,6.5553,6.5553,6.4495,6.2156,6.2189,5.9443,5.4458,5.4098,5.2875,5.0627,5.0795,4.9471,4.6894,4.4537,4.1184,3.7211,3.4779,3.3264,3.2357,3.2357,3.2357,3.2376,3.1138,3.0386,3.0099,3.0799,2.7629,2.2293,1.8671,1.4195,1.0028,1.1092,1.1271,1.2011,1.6489,1.84,1.9454,2.2359,2.3855,2.4737,2.4737,2.5057,2.5362,2.5975,2.5393,2.5332,2.6285,2.6188,2.5773,2.5989,2.5843,2.5224,2.303,2.2536,1.9563,1.132,0.9622,0.0,0.6821,0.5601,0.5,0.4805,0.8087,0.7957,0.1857,0.3292,0.3297,0.0229,-0.2636,-0.5328,-0.7564,-0.8486,-1.0648,-1.3869,-1.5912,-1.7659,0.0,0.0,0.0,0.0,0.0,0.0,0.0,0.0,0.0,0.0,0.0,0.0,0.0,0.0,0.0,0.0,0.0,0.0,0.0,0.0,0.0,0.0,5.304,6.1604,6.5917,6.8604,7.259,7.9532,8.0125,7.8924,7.6011,7.3145,6.999,6.6467,6.5212,6.4872,6.5176,6.5553,6.4481,6.1402,6.0986,5.8424,5.3442,5.3099,5.2298,5.1047,5.1076,4.9134,4.4972,4.3025,3.9676,0.0,3.3264,3.2357,3.2357,3.2244,3.2111,0.0,0.0,0.0,0.0,0.0,2.5747,2.2115,1.7509,1.3929,1.1221,1.2046,1.225,1.3287,1.865,2.0019,2.0795,2.3681,2.4537,2.4537,2.4537,2.4812,2.5103,2.5731,2.5684,2.5637,2.6429,2.6301,2.5853,2.6103,0.0,0.0,2.3606,2.1527,1.6444,0.7451,0.5388,0.4304,0.0,0.2437,0.249,0.2964,0.56,0.5965,0.2118,0.0929,0.0,0.0,0.0,-0.8414,-1.0356,-1.1838,0.0,0.0,0.0,0.0,0.0,0.0,0.0,0.0,-2.4542,-2.427,0.0,0.0,0.0,0.0,0.0,0.0,0.0,0.0,0.0,0.0,0.0,0.0,0.0,0.0,0.0,0.0,5.7581,6.6702,7.3412,7.6865,7.8842,7.9772,7.8604,7.6844,7.4211,7.1016,6.7987,6.4872,6.5139,6.5517,6.5858,0.0,0.0,0.0,0.0,5.6825,5.3366,5.1725,5.1047,5.1047,5.1696,4.8489,4.2167,4.2079,3.8691,3.2244,3.2319,3.2338,3.198,3.2036,3.1562,3.117,3.1454,3.1461,3.0888,2.6456,2.5006,0.0,0.0,0.0,0.0,1.2954,1.3179,1.4287,1.9308,2.0708,2.1514,2.4015,2.4857,2.4857,2.4857,2.5409,2.57,2.5871,2.6314,2.6785,2.6947,2.672,2.6444,2.5694,2.351,2.1394,2.0403,1.5929,0.9636,0.1258,-0.1442,0.0,-0.308,-0.0,0.1594,0.0227,0.0,0.0,0.4466,-0.1597,-0.5995,-0.7104,-1.1424,-1.4664,-1.6377,-1.8981,-2.0403,-2.0558,-2.4962,-2.7176,-2.7336,-2.9044,-2.869,-2.6541,-2.3833,-2.4004,0.0,0.0,0.0,0.0,0.0,0.0,0.0,0.0,0.0,0.0,0.0,0.0,0.0,0.0,0.0,5.7548,6.7219,7.4221,7.4438,7.6247,7.6968,7.5058,7.4721,7.365,7.1293,7.0469,6.8636,6.5212,6.5517,6.5858,6.5858,6.6459,0.0,5.8988,5.9279,5.6856,5.1386,5.1696,5.1725,5.1725,0.0,0.0,4.2167,4.2079,3.8614,3.1981,3.2073,3.1943,3.2017,3.1847,3.0939,2.976,3.0275,3.0191,3.0175,2.8295,2.5079,2.1405,1.8594,1.5948,1.3862,1.5043,1.7312,2.0434,2.3383,2.4733,0.0,2.6322,2.6896,2.6896,2.6896,2.6783,2.6687,2.6735,2.6606,2.6736,2.6785,2.6736,2.5755,2.3264,2.2354,2.026,1.5311,1.5313,1.4487,1.0373,0.9342,0.8337,0.6107,0.6427,0.4617,-0.1361,0.2653,0.2442,-0.5855,-0.3648,-0.2753,-0.5188,-0.6019,-0.7527,-0.9836,-1.2028,-1.4669,-1.7455,-2.0646,-2.326,-2.491,-2.5374,-2.5461,-2.5042,-2.5697,-2.5351,0.0,0.0,0.0,0.0,0.0,0.0,0.0,0.0,0.0,0.0,0.0,4.1948,4.3854,0.0,6.0059,6.2842,7.042,7.5451,7.3965,7.3517,7.3192,7.3395,7.2547,7.1581,7.028,6.8674,6.7263,6.5553,6.5858,6.6228,6.6349,6.5451,6.3062,5.8612,5.8014,5.5603,5.1047,5.1696,5.2035,5.2035,5.2035,4.8544,4.2313,4.2128,3.849,3.2068,3.2187,3.2206,3.1979,3.1048,3.0081,2.9541,2.875,2.7538,2.6259,2.412,2.0623,1.7142,1.6524,1.5034,1.4409,1.7961,2.0026,2.174,2.4387,2.549,2.5963,2.6463,2.6712,2.6712,2.6712,2.6648,2.6585,2.6027,2.6457,2.6298,2.4522,2.4173,2.3465,2.0168,1.8441,1.6431,1.3243,1.2601,1.2243,1.0573,1.0295,0.9775,0.8469,0.7154,0.4769,0.1204,0.1231,-0.0491,-0.5384,-0.4236,-0.3992,-0.5524,-0.6108,-0.7362,-0.9727,-1.2558,-1.5609,-1.8668,-2.1516,-2.353,-2.474,-2.4835,-2.4929,-2.5005,-2.5933,-2.5522,0.0,0.0,0.0,0.0,0.0,0.0,0.0,0.0,4.2522,4.4816,4.7091,4.912,5.1621,5.8603,6.4992,6.7786,7.1924,7.4552,7.3441,7.0662,6.9362,7.1473,7.009,6.9056,6.9056,6.6958,6.5664,6.5922,6.6032,6.6585,6.6896,6.4487,6.1779,5.9087,5.679,5.433,5.1076,5.1696,5.1918,5.1684,5.1918,4.8517,4.1983,4.2103,3.8624,3.2149,3.2018,3.1679,3.153,3.0139,2.9183,2.8898,2.7475,2.5328,2.219,2.0292,1.7417,1.4677,1.5097,1.5025,1.5317,2.0333,2.1856,2.2439,2.4744,2.5596,2.5566,2.6292,2.651,2.651,2.651,2.6495,2.6183,2.4999,2.5423,2.5225,2.1422,2.1018,2.0306,1.7084,1.4564,1.2878,1.1976,1.0015,0.8354,0.8278,0.8256,0.7988,0.7464,0.563,0.3821,0.3045,-0.0502,-0.2739,-0.2483,-0.4374,-0.5933,-0.6505,-0.7862,-0.96,-1.2121,-1.57,-1.8807,-2.1425,-2.4,-2.551,-2.5738,-2.5666,-2.5761,-2.5761,-2.5761,-2.5572,3.3613,3.132,3.2316,3.0452,3.6692,4.3443,0.0,0.0,5.4658,5.5717,6.2671,6.8765,6.9375,7.1889,7.4545,7.6336,7.5845,7.4609,7.3029,7.0515,6.7987,6.6236,6.5895,6.5858,6.5858,6.5517,6.542,6.5835,6.6292,6.6677,6.6932,6.4835,6.2541,5.9645,5.6948,5.433,5.1696,5.1696,5.1479,5.1271,5.1786,4.8269,4.1633,4.1862,3.8524,3.1591,3.065,3.0087,3.007,3.0064,2.876,2.6505,2.7487,2.4972,2.1213,2.4131,2.1776,1.7397,1.939,1.9299,1.8353,2.0394,2.3348,2.6063,2.6364,2.665,2.6634,2.7458,2.7727,2.7727,2.7727,2.7629,2.6573,2.3733,2.298,2.1973,1.8684,1.8071,1.7212,1.4106,1.3279,1.2145,0.9333,0.8778,0.8469,0.8349,0.8289,0.7459,0.4853,0.4337,0.2536,-0.1751,-0.1997,-0.273,-0.4408,-0.5364,-0.606,-0.672,-0.8272,-1.0817,-1.401,-1.7895,-2.1552,-2.4354,-2.6328,-2.7307,-2.7503,-2.6825,-2.6611,-2.6611,-2.6611,-2.6214,4.9643,4.7393,4.6693,0.0,5.6328,5.8974,5.8804,6.1673,6.4806,6.6401,7.0359,7.3811,7.4527,7.593,7.7497,0.0,7.5604,7.2741,7.2765,6.8324,6.4872,6.4191,6.4155,6.4495,6.5176,6.5553,6.5848,6.6129,6.5343,6.4835,6.5148,6.1331,5.8563,5.7669,5.4586,5.2866,5.1725,5.1684,5.1698,5.1551,5.1816,4.8187,4.1973,4.1997,3.8244,3.2144,3.0638,2.9994,3.0046,2.8569,2.7242,2.6162,2.5956,2.4551,2.25,2.2642,2.0339,1.7509,2.0623,2.085,2.0514,2.3675,2.5446,2.6093,2.6665,2.6681,2.6681,2.6951,2.7523,2.7792,2.7221,2.7458,2.6747,2.2442,2.1976,2.1211,1.5659,1.4738,1.4124,1.1075,1.053,0.9972,0.8851,0.8545,0.7966,0.6301,0.5972,0.5664,0.436,0.1521,-0.1754,-0.4958,-0.4707,-0.445,-0.5409,-0.5651,-0.6839,-0.8914,-1.0282,-1.332,-1.8052,-2.0241,-2.2826,-2.6023,-2.6649,-2.7154,-2.7231,-2.6997,-2.6763,-2.6763,-2.6763,-2.6555,5.6237,0.0,0.0,6.6089,6.9932,7.0909,7.0047,7.0527,7.1697,7.3628,7.4584,7.5587,7.6527,7.7542,7.8242,7.8662,7.4245,7.1001,7.1372,6.651,6.3021,6.3222,6.3185,6.3367,6.4479,6.5296,6.608,6.6486,6.4507,6.3478,6.3618,5.853,5.5792,5.576,5.2871,5.1532,5.1538,5.1345,5.1345,5.1508,5.145,4.8049,4.1717,4.0011,3.6284,3.1883,3.0403,2.9712,2.925,2.7119,2.6355,2.6445,2.5299,2.4745,2.4148,2.2398,2.0127,1.8507,2.1612,2.2402,2.2337,2.6078,2.6951,2.6364,2.6951,2.6951,2.6951,2.6951,2.7523,2.7792,2.7237,2.6619,2.5327,2.101,1.9984,1.8407,1.2594,1.1673,1.1075,0.889,0.8616,0.8616,0.8616,0.8027,0.6644,0.4757,0.3125,0.2057,0.2055,-0.2021,-0.5484,-0.6687,-0.6444,-0.6201,-0.6192,-0.6911,-0.8331,-1.0618,-1.2938,-1.6178,-2.0576,-2.1712,-2.3673,-2.6978,-2.651,-2.6585,-2.7149,-2.6876,-2.6641,-2.6933,-2.6933,-2.6933,0.0,0.0,5.0039,5.9529,6.8177,7.4039,7.2683,7.3156,7.4252,7.5315,7.6272,7.7238,7.783,7.8242,7.7915,7.5819,7.2847,7.0051,6.856,6.5154,6.2681,6.2928,6.2491,6.2441,0.0,6.3958,6.515,6.6364,6.4033,6.2957,6.3791,5.8359,5.5357,5.5322,5.2312,5.072,5.0521,5.0762,5.0462,5.0191,5.0488,4.7192,4.0622,3.5027,3.1642,3.0386,2.8975,2.808,2.7662,2.6787,2.6668,2.6922,2.7221,2.6594,2.5527,2.5356,2.3325,2.1583,2.3952,2.4036,2.3485,2.6093,2.7253,2.7792,2.7808,2.7808,2.7808,2.7808,2.7808,2.7808,2.7808,2.5656,2.2293,1.9065,1.5843,1.2955,0.9464,0.8616,0.8616,0.8616,0.8616,0.8616,0.8616,0.6419,0.4522,0.4522,-0.0261,-0.3595,-0.3827,-0.6333,-0.7798,-0.6992,-0.7025,-0.704,-0.6982,-0.9147,-1.0783,-1.1435,-1.5908,-1.9022,-2.0562,-2.2529,-2.4694,-2.7679,-2.5807,-2.6007,-2.8305,-2.6922,-2.6684,-2.7348,-2.7348,-2.7348,5.2104,0.0,5.8499,6.9457,7.3939,7.5904,7.595,7.6411,7.6596,7.6596,7.1284,6.6627,6.6169,6.661,6.6292,6.4391,6.7679,6.9678,6.8047,6.4821,6.2534,6.1595,6.1965,0.0,0.0,0.0,0.0,6.5602,6.2128,5.9919,5.9786,5.5669,5.2738,5.1754,5.1404,5.1245,5.0874,5.0962,5.0777,5.0747,4.6611,4.3269,4.0514,3.4715,3.2018,3.1636,2.9116,2.815,2.7953,2.5822,2.5427,2.59,2.5399,2.5413,2.5499,2.5242,2.472,2.4537,2.5414,2.5268,2.5064,2.641,2.6967,2.6951,2.6951,2.7523,2.7474,2.5357,2.6272,2.6572,2.1958,2.1932,2.1559,1.5795,1.3812,1.2664,0.9194,0.8643,0.867,0.867,0.8643,0.8073,0.6187,0.508,0.3182,-0.0525,-0.2853,-0.4616,-0.6591,-0.7583,-0.8071,-0.7798,-0.8731,-0.9413,-0.9387,-1.171,-1.3741,-1.5536,-1.7443,-1.9661,-2.2298,-2.3172,-2.418,-2.5624,-2.5266,-2.5173,-2.6007,-2.5481,-2.5771,-2.6684,-2.6062,-2.6391,5.7292,6.086,6.3682,7.5582,7.7701,7.6687,7.7378,7.7378,7.7056,7.632,6.8213,6.0679,5.9642,5.753,5.5996,5.6391,6.1113,6.5116,6.5487,6.3786,6.1985,6.1148,6.1269,6.1307,0.0,0.0,0.0,6.3585,6.0379,5.8023,5.6807,5.3753,5.1362,5.0531,5.0894,5.1227,5.0864,5.0777,5.0619,5.005,4.4993,4.1717,3.9964,3.5607,3.2793,3.087,2.9082,2.7857,2.7181,2.5072,2.4982,2.6,2.5241,2.5255,2.6201,2.5568,2.5942,2.638,2.6259,2.6398,2.6518,2.6983,2.6951,2.6951,2.6681,2.6333,2.5656,2.3224,2.3494,2.3438,1.8889,1.8564,1.8486,1.377,1.2382,1.1271,0.9211,0.867,0.8698,0.8698,0.7824,0.6432,0.4822,0.2657,-0.0263,-0.494,-0.5428,-0.6158,-0.7867,-0.8126,-0.8131,-0.8109,-0.9053,-1.0224,-1.088,-1.3159,-1.5624,-1.8,-1.9226,-2.0727,-2.2826,-2.2875,-2.3239,-2.4371,-2.4008,-2.4128,-2.4973,-2.4598,-2.4868,-2.5771,-2.5156,-2.5481,5.9638,6.4193,6.6251,7.7542,7.8898,7.717,7.717,7.6798,7.5819,7.4252,6.6033,5.8417,0.0,0.0,4.755,5.132,5.4595,5.7828,6.1764,6.1836,6.1643,0.0,0.0,0.0,0.0,0.0,0.0,6.0269,0.0,5.7065,5.5264,5.2896,5.1521,5.1357,5.0835,5.0484,5.0677,5.0124,4.9478,4.8017,4.5585,4.2483,3.9052,3.7141,3.3308,2.8312,2.8328,2.7165,2.5541,2.479,2.555,2.7205,2.613,2.6361,2.6937,2.6594,2.6947,2.7351,2.7024,2.7364,2.7824,2.7808,2.7792,2.7507,2.665,2.4816,2.294,2.1637,1.9812,1.8285,1.7875,1.5557,1.3537,1.3156,1.0963,0.8769,0.8703,0.8698,0.8698,0.8426,0.6176,0.3988,0.3988,-0.0525,-0.5197,-0.7999,-0.8251,-0.8229,-0.818,-0.8218,-0.8229,-0.8424,-0.8469,-0.943,-1.1947,-1.4296,-1.6513,-1.8731,-2.1003,-2.2188,-2.2188,-2.1693,-2.2298,-2.3639,-2.2475,-2.287,-2.5114,-2.406,-2.3974,-2.485,-2.4832,-2.4832,6.962,7.3588,7.5449,7.9693,7.974,7.8662,7.8288,7.7215,7.3942,6.5283,5.4356,4.3818,0.0,0.0,0.0,4.0288,5.4227,0.0,6.2939,6.2792,0.0,6.2055,0.0,6.1051,5.8504,5.7705,0.0,0.0,5.426,5.4119,5.2966,5.2169,5.1038,4.9972,5.0586,5.0823,5.0338,4.9967,4.9105,4.7943,4.5049,4.2156,3.9119,3.6761,3.3404,2.9575,2.8553,2.7675,2.6862,2.5114,2.5283,2.7011,2.5227,2.5427,2.6594,2.6266,2.6611,2.7024,2.738,2.7635,2.7987,2.7285,2.6951,2.665,2.3932,2.2724,2.1495,1.7009,1.6999,1.7239,1.2467,1.2428,1.2955,1.0312,0.9229,0.8703,0.8649,0.8703,0.8196,0.6755,0.2399,-0.1054,-0.1048,-0.4421,-0.7493,-0.8251,-0.8251,-0.8245,-0.8229,-0.8245,-0.8975,-1.0623,-1.0875,-1.2511,-1.6742,-1.7631,-1.8905,-2.1387,-2.1987,-2.2334,-2.2188,-2.2153,-2.2415,-2.2563,-2.2464,-2.2578,-2.3124,-2.3025,-2.3323,-2.394,-2.334,-2.3656,7.5154,7.8743,7.9999,8.0935,8.0326,7.8259,7.2852,7.0569,6.6014,5.3806,4.246,0.0,0.0,0.0,0.0,0.0,0.0,0.0,6.2572,6.2749,6.2936,0.0,6.2776,0.0,5.8154,5.7089,5.4815,0.0,5.1741,5.1836,5.068,5.0865,5.043,4.9867,5.043,5.0531,5.0104,4.9374,4.8071,4.5561,4.3591,4.0557,3.6497,3.5365,3.2886,2.9338,0.0,2.7366,2.5924,2.4787,2.4912,2.5655,2.4815,2.5299,2.646,2.6425,2.6826,2.7587,2.7699,2.7077,2.5897,2.5461,2.5116,2.4502,2.0926,1.9139,1.7636,1.4093,1.3507,1.2899,0.9379,0.9631,1.0448,0.8676,0.8426,0.8725,0.8698,0.8741,0.765,0.4294,-0.0,-0.3416,-0.4699,-0.6474,-0.8004,-0.8284,-0.8267,-0.8251,-0.8251,-0.8251,-0.8737,-1.0186,-1.1112,-1.3195,-1.6995,-1.8297,-1.9989,-2.225,-2.2464,-2.2432,-2.2318,-2.2545,-2.261,-2.2432,-2.261,-2.2659,-2.2578,-2.2513,-2.2744,-2.3091,-2.2744,-2.3041,7.8219,8.1071,8.1882,8.1749,8.091,7.704,6.5426,6.1259,5.5978,4.134,0.0,2.4471,2.1628,2.438,2.8815,3.3765,0.0,5.5961,6.1583,6.2542,6.2973,6.2972,6.3233,6.1945,5.8534,5.612,5.3614,5.0287,5.0162,4.9821,4.8297,4.9449,4.9833,4.9949,5.025,5.0338,4.9822,4.9218,4.6417,4.2005,4.1793,3.8673,3.2973,3.3384,3.1554,2.8069,0.0,0.0,2.4161,2.4284,2.4351,2.4639,2.5058,2.5851,2.64,2.698,2.7698,2.8247,2.7476,2.558,2.343,2.3279,2.267,2.1482,1.7951,1.5298,1.3251,1.2333,1.004,0.8051,0.7717,0.7703,0.7684,0.7626,0.8186,0.8763,0.8206,0.7645,0.5967,0.1598,-0.1584,-0.4199,-0.6785,-0.7264,-0.7508,-0.8088,-0.8305,-0.8273,-0.8273,-0.8256,-0.8503,-0.8737,-1.0666,-1.3001,-1.57,-1.7895,-2.0017,-2.225,-2.2464,-2.2464,-2.2464,-2.2789,-2.2886,-2.2724,-2.2919,-2.2919,-2.2757,-2.2594,-2.2513,-2.2513,-2.2464,-2.2464,8.218,8.2795,8.3022,8.3438,8.1494,7.6521,6.5389,6.0158,0.0,0.0,2.5708,2.1224,1.2573,1.8766,2.7127,3.3507,0.0,0.0,0.0,0.0,6.3404,0.0,0.0,0.0,0.0,0.0,0.0,0.0,0.0,0.0,4.7499,4.8833,4.9492,4.9602,4.9602,4.9302,4.84,4.8253,4.5843,4.0978,4.1069,3.7768,3.173,3.1694,2.9845,2.6485,0.0,0.0,2.5198,2.5227,2.5255,2.5213,2.5228,2.5632,2.6072,2.6734,2.7444,2.7587,2.4816,2.3605,2.3279,2.3252,2.0901,1.7668,1.5007,1.3572,1.2141,1.0108,0.9244,0.8664,0.8051,0.8278,0.85,0.7626,0.8134,0.8089,0.5625,0.2385,-0.0263,-0.1055,-0.3655,-0.596,-0.6252,-0.7292,-0.8088,-0.8403,-0.8403,-0.8398,-0.8398,-0.8316,-0.8975,-1.0875,-1.216,-1.4264,-1.787,-1.9305,-2.0605,-2.2497,-2.2464,-2.2464,-2.2464,-2.2659,-2.2757,-2.2724,-2.2919,-2.2984,-2.2951,-2.2757,-2.2675,-2.2675,-2.2529,-2.2464,8.4194,8.424,8.4194,8.4632,8.1989,7.4962,5.8057,0.0,0.0,0.0,1.5973,1.4056,0.9168,0.0,0.0,0.0,0.0,0.0,0.0,0.0,0.0,0.0,0.0,0.0,0.0,0.0,0.0,0.0,0.0,0.0,4.6976,4.8363,4.9406,4.9488,4.9488,4.8968,4.8117,4.8172,4.4937,3.8129,3.8167,3.5013,2.8685,2.8685,2.777,2.6236,2.6621,0.0,2.5541,2.5156,2.517,2.5499,2.541,2.4844,2.3801,2.4718,2.3946,2.2643,2.1173,1.9671,1.8201,1.8201,1.703,1.4725,1.2112,1.0975,1.0413,0.9261,0.869,0.84,0.7788,0.8032,0.8262,0.7631,0.7029,0.5639,0.293,-0.0529,-0.2896,-0.237,-0.4702,-0.675,-0.6777,-0.7302,-0.7838,-0.8425,-0.8431,-0.8431,-0.8431,-0.8382,-0.8841,-0.9808,-1.1463,-1.3794,-1.6977,-1.8758,-2.0469,-2.2523,-2.274,-2.274,-2.274,-2.2919,-2.2951,-2.287,-2.3049,-2.3081,-2.3,-2.2919,-2.287,-2.287,-2.2789,-2.274,8.424,8.4953,8.4789,8.5116,8.16,7.2615,5.1269,4.302,0.0,0.0,0.8244,0.8244,0.8045,0.0,0.0,0.0,0.0,0.0,0.0,0.0,0.0,0.0,0.0,0.0,0.0,0.0,0.0,0.0,0.0,0.0,4.7054,4.8334,4.9134,4.9478,4.9535,4.88,4.7807,4.7807,4.3591,3.5366,3.5619,3.2281,2.5705,2.5705,2.5705,2.5705,2.603,0.0,0.0,2.4148,2.446,2.5385,2.4622,2.3179,2.1612,2.1895,2.0569,1.8212,1.7625,1.5862,1.3548,1.297,1.2689,1.2112,0.9822,0.897,0.897,0.897,0.869,0.8121,0.7788,0.8046,0.7726,0.7064,0.4837,0.2132,-0.0265,-0.2648,-0.4493,-0.3939,-0.575,-0.7307,-0.7316,-0.7321,-0.7864,-0.8458,-0.8474,-0.8474,-0.8474,-0.8463,-0.8453,-0.8453,-1.1043,-1.359,-1.5571,-1.8428,-2.1019,-2.278,-2.3,-2.3,-2.3,-2.3163,-2.3195,-2.3065,-2.3228,-2.326,-2.3098,-2.3065,-2.3065,-2.3065,-2.3016,-2.3,8.2288,8.4823,8.4588,8.426,7.9276,6.9231,5.0255,0.0,0.0,1.2134,0.8144,0.8045,0.8244,0.0,0.0,0.0,0.0,3.0718,0.0,0.0,0.0,0.0,0.0,0.0,0.0,0.0,0.0,0.0,0.0,0.0,0.0,4.8947,4.9449,4.9478,4.9212,4.8099,4.6968,4.6994,4.2705,3.4375,3.5053,3.1335,2.4392,2.4392,2.4392,2.4405,0.0,0.0,0.0,2.2614,2.3133,2.4467,2.0199,2.0046,2.1749,1.9742,1.8789,1.7919,1.4998,1.3837,1.3251,1.0394,0.9541,0.9256,0.897,0.897,0.897,0.897,0.897,0.8675,0.8066,0.8293,0.7933,0.5357,0.0528,-0.3392,-0.3655,-0.5482,-0.7041,-0.6728,-0.7014,-0.7321,-0.7364,-0.7899,-0.8469,-0.8578,-0.86,-0.86,-0.86,-0.8551,-0.8518,-0.8518,-1.3177,-1.6179,-1.5831,-2.0615,-2.3417,-2.3,-2.3,-2.3,-2.3,-2.3163,-2.326,-2.3228,-2.3406,-2.3487,-2.3487,-2.3325,-2.3228,-2.3228,-2.3065,-2.3,8.1899,8.4789,8.4111,8.2124,7.7424,6.7886,4.7456,0.0,2.9899,1.1795,0.8045,0.8045,0.8144,0.8144,0.0,0.0,0.0,0.0,0.0,0.0,0.0,0.0,0.0,0.0,0.0,0.0,0.0,0.0,0.0,0.0,0.0,4.8947,4.909,4.9212,4.88,4.7981,4.6175,4.4612,4.0549,3.4134,3.2906,2.9177,2.4121,2.4121,2.4066,2.3999,0.0,0.0,0.0,2.1583,2.0905,2.0762,1.84,1.7048,1.6347,1.591,1.4409,1.2681,1.1249,1.0961,1.0674,0.9541,0.897,0.897,0.897,0.897,0.897,0.897,0.897,0.8959,0.8622,0.7405,0.5122,0.0528,-0.2353,-0.4423,-0.6215,-0.7249,-0.7767,-0.7741,-0.7782,-0.7828,-0.7853,-0.8178,-0.8502,-0.8551,-0.8594,-0.8616,-0.8616,-0.8594,-0.9084,-1.0574,-1.2695,-1.4535,-1.5697,-1.9369,-2.2085,-2.3487,-2.3487,-2.3487,-2.3487,-2.3552,-2.3536,-2.3422,-2.3487,-2.3536,-2.3536,-2.3471,-2.3422,-2.3422,-2.3358,-2.3309,7.5865,8.0868,8.2378,7.8978,7.2705,6.249,0.0,3.5383,2.609,1.1061,0.8045,0.8045,0.8045,0.8045,0.8144,0.0,0.0,1.8937,0.0,0.0,0.0,0.0,0.0,0.0,0.0,0.0,0.0,0.0,0.0,0.0,0.0,4.8457,4.8485,4.9127,4.8856,4.7417,4.4762,4.2562,3.8481,3.2773,3.0708,2.7584,2.3999,2.3999,2.3931,2.3836,0.0,0.0,0.0,1.9959,1.8689,1.7641,1.5973,1.4357,1.3079,1.2422,1.0961,0.897,0.897,0.897,0.897,0.897,0.897,0.897,0.897,0.897,0.897,0.897,0.837,0.7769,0.7731,0.4877,0.1061,-0.3135,-0.468,-0.5701,-0.7741,-0.8267,-0.8273,-0.8256,-0.8316,-0.8371,-0.8371,-0.8453,-0.8529,-0.8545,-0.8589,-0.8611,-0.8589,-0.86,-0.9363,-1.1059,-1.2454,-1.4329,-1.6977,-1.9488,-2.1824,-2.3796,-2.3845,-2.3894,-2.3894,-2.3894,-2.3829,-2.3699,-2.3682,-2.365,-2.3617,-2.3617,-2.3585,-2.3536,-2.3536,-2.3696,6.2197,7.2066,7.8934,7.4595,6.3671,5.116,4.226,2.9718,1.7853,0.9697,0.8045,0.8045,0.8045,0.8045,0.8045,0.8244,0.0,0.0,0.0,0.0,0.0,0.0,0.0,0.0,0.0,0.0,0.0,0.0,0.0,0.0,0.0,4.7002,4.7416,5.0133,4.8828,4.6155,4.2393,4.0886,3.6591,2.9127,2.9127,2.7181,2.3687,2.3687,2.3687,0.0,0.0,0.0,0.0,1.7774,1.7047,1.7108,1.1487,1.1094,1.3267,1.0114,0.897,0.897,0.897,0.897,0.897,0.897,0.897,0.897,0.897,0.897,0.897,0.897,0.6899,0.4615,0.4615,0.0266,-0.3906,-0.3906,-0.6215,-0.8251,-0.8251,-0.83,-0.8322,-0.8267,-0.8349,-0.8431,-0.8431,-0.848,-0.8545,-0.8611,-0.8616,-0.8594,-0.8529,-0.8578,-0.8567,-0.8447,-1.297,-1.7091,-1.9594,-2.2159,-2.3812,-2.3812,-2.3959,-2.4056,-2.4056,-2.4056,-2.4056,-2.4056,-2.4056,-2.3975,-2.3812,-2.3812,-2.3699,-2.3536,-2.3536,-2.4521,4.9621,5.4946,5.692,5.2817,4.7912,4.0936,3.0336,2.3764,1.7626,0.9598,0.8045,0.8045,0.8045,0.8045,0.8045,0.8244,0.8411,0.0,0.0,0.0,0.0,0.0,0.0,0.0,0.0,0.0,0.0,0.0,0.0,0.0,0.0,0.0,4.4276,4.7719,4.4869,4.2297,4.0384,3.5338,3.1533,2.893,2.6485,2.465,2.3687,2.3687,0.0,0.0,0.0,0.0,0.0,1.5016,1.3133,1.1773,1.0024,0.9651,1.0394,0.9256,0.897,0.897,0.897,0.897,0.897,0.897,0.897,0.8685,0.6685,0.6121,0.5555,0.3574,0.2454,0.1352,-0.08,-0.264,-0.445,-0.6482,-0.7746,-0.8251,-0.8251,-0.8267,-0.8273,-0.8256,-0.8316,-0.8371,-0.8371,-0.842,-0.8469,-0.8491,-0.8491,-0.8496,-0.8523,-0.854,-0.9802,-1.3229,-1.5193,-1.6385,-1.7333,-2.129,-2.391,-2.4153,-2.4202,-2.4251,-2.4251,-2.4251,-2.4186,-2.4056,-2.4056,-2.404,-2.3975,-2.3877,-2.3715,-2.3536,-2.3536,-2.4504,3.6239,4.2336,4.4875,4.0846,3.6607,3.1487,2.3909,1.8918,1.4278,0.9069,0.8045,0.8045,0.8045,0.8045,0.8045,0.8185,0.7328,0.0,0.0,0.0,0.0,0.0,0.0,0.0,0.0,0.0,0.0,0.0,0.0,0.0,0.0,0.0,4.1572,4.3465,4.0571,3.7819,3.6023,3.159,2.8377,2.6627,2.4495,2.3551,2.351,2.2624,0.0,0.0,0.0,0.0,0.0,1.3502,1.1637,0.9156,0.9156,0.9079,0.897,0.897,0.897,0.897,0.897,0.897,0.8685,0.7822,0.6685,0.4996,0.2205,0.2199,0.2473,0.0819,-0.0541,-0.1607,-0.3445,-0.473,-0.5991,-0.7756,-0.8251,-0.8251,-0.8251,-0.8251,-0.8251,-0.8251,-0.83,-0.8344,-0.8344,-0.8393,-0.8431,-0.8431,-0.8431,-0.8442,-0.8453,-0.9243,-1.127,-1.4415,-1.6385,-1.7644,-1.7691,-2.1654,-2.4023,-2.4316,-2.4397,-2.4446,-2.4446,-2.4446,-2.4381,-2.4267,-2.4516,-2.4732,-2.4666,-2.44,-2.3958,-2.3536,-2.3536,-2.4911,0.0,3.2655,3.9196,3.5797,2.8689,2.2476,2.1548,1.5021,0.0,0.7945,0.7746,0.7746,0.7746,0.7746,0.7772,0.7938,0.0,0.0,0.0,0.0,0.0,0.0,0.0,0.0,0.0,0.0,0.0,0.0,0.0,0.0,0.0,0.0,0.0,3.8039,3.5694,3.3002,2.9977,2.8909,2.6596,2.3429,2.3429,2.3361,2.2925,2.0899,0.0,0.0,0.0,0.0,0.0,1.2894,1.1333,0.9156,0.9145,0.9079,0.897,0.897,0.897,0.897,0.8685,0.8685,0.8116,0.5277,0.2205,-0.0547,-0.3262,-0.2169,-0.0,-0.0273,-0.2147,-0.4215,-0.424,-0.628,-0.8251,-0.8251,-0.8251,-0.8251,-0.8251,-0.8251,-0.8251,-0.8251,-0.83,-0.8333,-0.8333,-0.8382,-0.842,-0.8677,-0.8677,-0.8654,-0.8858,-1.0916,-1.2695,-1.2868,-1.708,-2.0349,-2.0752,-2.2771,-2.417,-2.4332,-2.4511,-2.4608,-2.4592,-2.4624,-2.4877,-2.4624,-2.5365,-2.5516,-2.5296,-2.4958,-2.4445,-2.3536,-2.3536,-2.5717,1.229,0.0,1.6895,1.5978,1.4154,1.2586,0.0,1.0665,0.8158,0.5454,0.4951,0.4951,0.4951,0.4951,0.5564,0.0,0.0,0.0,0.0,0.0,0.0,0.0,0.0,0.0,0.0,0.0,0.0,0.0,0.0,0.0,0.0,0.0,0.0,3.0637,2.7651,2.6774,2.8578,2.5973,2.42,2.328,2.328,2.2389,2.0611,2.0035,0.0,0.0,0.0,0.0,1.2894,1.076,0.9802,0.9145,0.9106,0.9036,0.897,0.897,0.897,0.8685,0.6403,0.5558,0.5274,0.2205,-0.0821,-0.3262,-0.4049,-0.3503,-0.3496,-0.5866,-0.6852,-0.7307,-0.7278,-0.7767,-0.8251,-0.8251,-0.8251,-0.8251,-0.8251,-0.8251,-0.8251,-0.8251,-0.8267,-0.8273,-0.8273,-0.8289,-0.9053,-1.1043,-1.1284,-1.2051,-1.4056,-1.4818,-1.6099,-1.8963,-1.9859,-2.1665,-2.5008,-2.4729,-2.4332,-2.4527,-2.5213,-2.5246,-2.4592,-2.5871,-2.6228,-2.5583,-2.6328,-2.6087,-2.5127,-2.5026,-2.4562,-2.3536,-2.3536,-2.6117,0.8457,0.8836,0.9231,0.9119,0.8115,0.7265,0.7333,0.8123,0.8313,0.629,0.0,0.0,0.0,0.0,0.0,0.0,0.0,0.0,0.0,0.0,0.0,0.0,0.0,0.0,0.0,0.0,0.0,0.0,0.0,0.0,0.0,0.0,0.0,0.0,2.5264,2.4115,2.5913,2.4115,2.3225,2.3225,2.1711,2.0514,1.9654,1.7008,0.0,0.0,0.0,0.0,1.1076,0.9877,0.9232,0.9156,0.9117,0.9047,0.897,0.897,0.8111,0.6689,0.5274,0.2754,0.0273,-0.1084,-0.377,-0.6156,-0.6132,-0.6113,-0.6358,-0.792,-0.8371,-0.8305,-0.8327,-0.8294,-0.8256,-0.8289,-0.8273,-0.8251,-0.8251,-0.8251,-0.8256,-0.8289,-0.8294,-0.88,-0.9795,-1.0045,-1.1029,-1.343,-1.3916,-1.4448,-1.6562,-1.7791,-1.9341,-2.1852,-2.2822,-2.4372,-2.6889,-2.604,-2.5753,-2.5854,-2.6211,-2.6228,-2.5871,-2.6826,-2.71,-2.6906,-2.716,-2.6912,-2.6186,-2.6186,-2.5484,-2.4119,-2.5395,-2.7953,0.7859,0.9813,1.1134,0.924,0.7009,0.511,0.4376,0.0,0.0,0.0,0.0,0.0,0.0,0.0,0.0,0.0,0.0,0.0,0.0,0.0,0.0,0.0,0.0,0.0,0.0,0.0,0.0,0.0,0.0,0.0,0.0,0.0,0.0,0.0,2.5205,2.3225,2.3225,2.3225,2.2925,2.2324,1.9882,1.8397,1.8386,1.3727,0.0,0.0,0.0,0.0,0.9237,0.927,0.9237,0.915,0.9134,0.877,0.8116,0.8395,0.6403,0.3875,0.3313,-0.0273,-0.4828,-0.4794,-0.635,-0.8431,-0.842,-0.8382,-0.8349,-0.8393,-0.8327,-0.8273,-0.8376,-0.8327,-0.8267,-0.8327,-0.8294,-0.8251,-0.8267,-0.8256,-0.8267,-0.8322,-0.8841,-0.9853,-1.2099,-1.3107,-1.432,-1.6875,-1.7114,-1.7445,-1.8887,-2.0867,-2.245,-2.3544,-2.56,-2.716,-2.7285,-2.7391,-2.748,-2.7533,-2.748,-2.7444,-2.7444,-2.7444,-2.7611,-2.7922,-2.8213,-2.7758,-2.732,-2.732,-2.6627,-2.505,-2.7109,-2.9855,0.7421,1.5242,2.0446,1.0623,0.7851,0.6327,0.1767,0.1112,0.0,0.0,0.0,0.0,0.0,0.0,0.0,0.0,0.0,0.0,0.0,0.0,0.0,0.0,0.0,0.0,0.0,0.0,0.0,0.0,0.0,0.0,0.0,0.0,0.0,0.0,2.3499,2.3225,2.3225,2.3225,2.1998,1.9287,1.8693,1.6347,1.2865,1.1988,1.0849,0.0,0.0,0.9194,0.9232,0.9139,0.8838,0.8289,0.8759,0.6993,0.4444,0.4996,0.3315,0.0548,-0.1898,-0.5102,-0.773,-0.7671,-0.791,-0.8425,-0.8371,-0.8349,-0.8333,-0.8294,-0.8267,-0.8256,-0.8273,-0.8267,-0.8267,-0.8327,-0.8294,-0.8267,-0.8316,-0.8289,-0.8251,-0.8267,-1.1073,-1.3619,-1.3857,-1.6905,-2.0138,-2.2725,-2.2596,-2.3159,-2.5596,-2.5966,-2.6208,-2.7356,-2.7107,-2.7432,-2.9413,-2.8654,-2.836,-2.9488,-2.8673,-2.8214,-2.8983,-2.847,-2.8378,-2.8683,-2.8851,-2.8392,-2.732,-2.732,-2.6964,-2.5992,-2.6412,-2.9381,0.7232,1.6368,2.5412,2.6298,2.0252,1.3337,1.0211,0.9569,0.0,0.0,0.0,0.0,0.0,0.0,0.0,0.0,0.0,0.0,0.0,0.0,0.0,0.0,0.0,0.0,0.0,0.0,0.0,0.0,0.0,0.0,0.0,0.0,0.0,0.0,2.4331,2.313,2.1248,2.0963,2.0073,1.8583,1.5976,1.363,1.1296,1.0175,0.9334,0.9057,0.0,0.9117,0.9139,0.9117,0.8828,0.8528,0.9041,0.6997,0.3877,0.0825,-0.1091,-0.2437,-0.5343,-0.7412,-0.842,-0.8354,-0.8333,-0.8327,-0.83,-0.8294,-0.8289,-0.8256,-0.8251,-0.8256,-0.8294,-0.8278,-0.8273,-0.8371,-0.8344,-0.8305,-0.8333,-0.8322,-0.8806,-1.0058,-1.2123,-1.4937,-1.8092,-2.0404,-2.2893,-2.5903,-2.6203,-2.6557,-2.7947,-2.7808,-2.8065,-2.8856,-2.8378,-2.8397,-2.9673,-2.917,-2.9114,-2.9692,-2.9264,-2.9114,-2.9238,-2.9001,-2.8889,-2.8936,-2.9049,-2.8627,-2.7965,-2.7965,-2.7624,-2.6927,-2.9724,-3.285,0.5583,1.2625,2.3001,3.8576,3.2975,2.353,2.2724,2.2494,1.9954,0.0,0.0,0.0,0.0,0.0,0.0,0.0,0.0,0.0,0.0,0.0,0.0,0.0,0.0,0.0,0.0,0.0,0.0,0.0,0.0,0.0,0.0,0.0,0.0,0.0,2.3946,2.1843,1.9354,1.7573,1.6396,1.6115,1.2673,1.0662,1.0331,0.839,0.8121,0.897,0.9019,0.9047,0.9063,0.9096,0.8806,0.8492,0.8185,0.5861,0.1923,-0.3258,-0.5115,-0.5343,-0.7651,-0.8382,-0.8333,-0.8273,-0.8251,-0.8251,-0.8251,-0.8251,-0.8251,-0.8251,-0.8251,-0.8267,-0.8305,-0.8289,-0.8278,-0.8382,-0.8365,-0.8327,-0.8344,-0.8835,-0.9827,-1.1819,-1.4159,-1.7205,-2.1858,-2.4227,-2.6286,-2.8808,-2.9263,-2.9171,-2.9559,-2.9308,-2.9246,-2.9837,-2.9352,-2.9238,-2.9427,-2.9314,-2.9295,-2.9427,-2.9427,-2.9314,-2.9125,-2.9144,-2.9068,-2.886,-2.8917,-2.8842,-2.8615,-2.8615,-2.8289,-2.7872,-3.2617,-3.5459,0.0505,0.1227,0.8362,3.5543,3.9801,3.7141,3.7072,3.7102,3.6901,3.6181,0.0,0.0,0.0,0.0,0.0,0.0,0.0,0.0,0.0,0.0,0.0,0.0,0.0,0.0,0.0,0.0,0.0,0.0,0.0,0.0,0.0,0.0,0.0,0.0,0.0,1.8811,1.8506,1.3434,1.0545,0.9714,0.9437,0.8601,0.6946,0.6946,0.7524,0.897,0.8981,0.9014,0.9057,0.9008,0.8175,0.6787,0.5578,0.1371,-0.377,-0.6949,-0.8231,-0.8173,-0.8371,-0.8349,-0.8333,-0.8273,-0.8251,-0.8251,-0.8251,-0.8251,-0.8251,-0.8251,-0.8251,-0.8251,-0.8256,-0.8251,-0.8267,-0.8333,-0.83,-0.8273,-0.8327,-1.0045,-1.1979,-1.1971,-1.7767,-2.3067,-2.4227,-2.8188,-3.1733,-3.2658,-3.2468,-3.2044,-3.2293,-3.1106,-3.0378,-3.0828,-2.957,-2.8974,-2.8993,-2.9144,-2.9163,-2.8993,-2.8993,-2.8898,-2.8671,-2.886,-2.886,-2.8653,-2.8842,-2.8842,-2.8615,-2.8615,-2.8615,-2.8596,-3.1746,-3.4645,-0.0,1.1226,2.186,1.7213,2.8626,3.9453,3.3614,3.6307,4.0151,3.9703,3.5335,0.0,0.0,0.0,0.0,0.0,0.0,0.0,0.0,0.0,0.0,0.0,0.0,0.0,0.0,0.0,0.0,0.0,0.0,0.0,0.0,0.0,0.0,0.0,0.0,1.9191,1.4638,1.2063,0.9577,0.6848,0.7736,0.775,0.662,0.7793,0.839,0.897,0.897,0.8987,0.9008,0.8981,0.7561,0.5021,0.0825,-0.2173,-0.4568,-0.7474,-0.8463,-0.8371,-0.8349,-0.8316,-0.8278,-0.8256,-0.8251,-0.8251,-0.8251,-0.8251,-0.8251,-0.8251,-0.8251,-0.8251,-0.8251,-0.8251,-0.8267,-0.8327,-0.8322,-0.8818,-1.035,-1.1578,-1.3275,-1.6921,-1.995,-2.3332,-2.7038,-2.952,-3.127,-3.3017,-3.3081,-3.2848,-3.2423,-3.1851,-3.1341,-3.0495,-2.9654,-2.8898,-2.8747,-2.8823,-2.8823,-2.8747,-2.886,-2.8842,-2.8615,-2.869,-2.869,-2.8615,-2.869,-2.869,-2.8615,-2.8615,-2.9537,-3.1338,-3.4231,-3.7329,-0.0,1.2395,2.3021,1.3909,2.7221,4.0676,3.4392,3.8172,4.2835,4.1576,4.0664,4.0338,4.17,0.0,0.0,0.0,0.0,0.0,0.0,0.0,0.0,0.0,0.0,0.0,0.0,0.0,0.0,0.0,0.0,0.0,0.0,0.0,0.0,0.0,0.0,0.0,1.1928,1.026,0.8114,0.5439,0.6878,0.7184,0.6891,0.8071,0.868,0.897,0.897,0.8959,0.8943,0.8081,0.5258,0.1371,-0.2717,-0.4843,-0.5607,-0.7711,-0.842,-0.8316,-0.8316,-0.8289,-0.8251,-0.8251,-0.8251,-0.8251,-0.8251,-0.8251,-0.8251,-0.8251,-0.8251,-0.8251,-0.8251,-0.8251,-0.8267,-0.83,-0.8812,-1.0072,-1.1811,-1.3529,-1.5719,-2.0092,-2.2181,-2.4598,-2.9154,-3.0453,-3.1494,-3.3252,-3.3486,-3.3188,-3.3018,-3.2403,-3.1769,-3.0417,-2.9596,-2.9189,-2.8653,-2.8615,-2.8615,-2.8615,-2.8766,-2.8766,-2.8615,-2.8615,-2.8615,-2.8615,-2.8615,-2.8615,-2.8615,-2.9537,-3.1153,-3.315,-3.6877,-3.9668,-0.0,0.0101,0.0,0.0,0.0,0.0,4.3092,4.5246,4.6623,4.4401,4.2361,4.1057,4.1149,0.0,0.0,0.0,0.0,0.0,0.0,0.0,0.0,0.0,0.0,0.0,0.0,0.0,0.0,0.0,0.0,0.0,0.0,0.0,0.0,0.0,0.0,0.0,1.111,0.8037,0.6172,0.5439,0.6297,0.6895,0.7774,0.7774,0.8354,0.897,0.897,0.8938,0.8595,0.5779,0.1088,-0.4302,-0.484,-0.6399,-0.8431,-0.8431,-0.8354,-0.8251,-0.8251,-0.8251,-0.8251,-0.8251,-0.8251,-0.8251,-0.8251,-0.8251,-0.8251,-0.8251,-0.8251,-0.8251,-0.8251,-0.8251,-0.8251,-0.8251,-1.0248,-1.2209,-1.2209,-1.6048,-1.9875,-2.0767,-2.4401,-2.7928,-2.9869,-3.1576,-3.2973,-3.4002,-3.383,-3.3744,-3.4002,-3.3103,-3.1708,-3.024,-3.0124,-2.9831,-2.8653,-2.8615,-2.8615,-2.8615,-2.8615,-2.8615,-2.8615,-2.8615,-2.8615,-2.8615,-2.8615,-2.8615,-2.8615,-3.1584,-3.2928,-3.315,-3.9043,-4.1804,-0.0,0.0,0.0,0.0,0.0,0.0,0.0,4.5743,0.0,0.0,4.471,4.3925,4.2227,0.0,0.0,0.0,0.0,0.0,0.0,0.0,0.0,0.0,0.0,0.0,0.0,0.0,0.0,0.0,0.0,0.0,0.0,0.0,0.0,0.0,0.0,0.0,1.054,0.8711,0.745,0.702,0.6831,0.6895,0.7774,0.837,0.868,0.897,0.897,0.7798,0.5497,0.0541,-0.2417,-0.43,-0.6687,-0.7971,-0.8431,-0.8431,-0.8354,-0.8251,-0.8251,-0.8251,-0.8251,-0.8251,-0.8251,-0.8251,-0.8251,-0.8251,-0.8251,-0.8251,-0.8251,-0.8754,-1.0496,-1.0977,-1.0977,-1.0977,-1.1479,-1.3178,-1.6784,-1.8657,-2.0598,-2.311,-2.4746,-2.677,-2.9579,-3.0672,-3.1759,-3.3701,-3.3981,-3.3959,-3.4024,-3.259,-3.1515,-3.0926,-2.9948,-2.9018,-2.8615,-2.8615,-2.8615,-2.8615,-2.8615,-2.8615,-2.8615,-2.8615,-2.8615,-2.8615,-2.8615,-2.8615,-2.8615,-3.1584,-3.4034,-3.6234,-3.9903,-4.2871,1.1996,0.0,0.0,0.0,0.0,0.0,0.0,0.0,0.0,0.0,0.0,0.0,0.0,0.0,0.0,0.0,0.0,0.0,0.0,0.0,0.0,0.0,0.0,0.0,0.0,0.0,0.0,0.0,0.0,0.0,0.0,0.0,0.0,0.0,0.0,0.0,1.0418,0.8916,0.8236,0.7839,0.7104,0.718,0.8364,0.868,0.897,0.8965,0.7779,0.4935,0.1078,-0.2654,-0.4763,-0.584,-0.7671,-0.8425,-0.8398,-0.8398,-0.8333,-0.8251,-0.8251,-0.8251,-0.8251,-0.8251,-0.8251,-0.8251,-0.8251,-0.8251,-0.8251,-0.8251,-0.8251,-0.9005,-1.1471,-1.2209,-1.2454,-1.343,-1.439,-1.6059,-1.9123,-2.0527,-2.1978,-2.4251,-2.5152,-2.6433,-2.8979,-2.9909,-3.0946,-3.3036,-3.3701,-3.4002,-3.3637,-3.2611,-3.1596,-3.0906,-2.9909,-2.896,-2.8615,-2.8615,-2.8615,-2.8615,-2.8615,-2.8615,-2.8615,-2.8615,-2.8615,-2.8615,-2.8615,-2.8615,-2.8615,-3.2438,-3.5321,-3.7279,-4.1165,-4.4126,3.116,0.0,0.0,0.0,0.0,0.0,0.0,0.0,0.0,0.0,0.0,0.0,0.0,0.0,0.0,0.0,0.0,0.0,0.0,0.0,0.0,0.0,0.0,0.0,0.0,0.0,0.0,0.0,0.0,0.0,0.0,0.0,0.0,0.0,0.0,0.0,1.0643,0.916,0.8491,0.0,0.7359,0.7442,0.8938,0.8965,0.897,0.8948,0.5476,0.134,-0.3684,-0.4177,-0.5987,-0.8344,-0.8344,-0.8344,-0.8344,-0.8344,-0.83,-0.8251,-0.8251,-0.8251,-0.8251,-0.8251,-0.8251,-0.8251,-0.8251,-0.8251,-0.8251,-0.8256,-0.8508,-0.9256,-1.1725,-1.2707,-1.343,-1.6059,-1.8201,-1.9834,-2.0065,-2.1918,-2.3827,-2.4461,-2.5397,-2.6627,-2.8289,-2.9077,-3.0294,-3.2272,-3.3336,-3.3658,-3.2716,-3.2611,-3.1913,-3.0259,-2.9948,-2.9598,-2.8653,-2.8615,-2.8615,-2.8615,-2.8615,-2.8615,-2.8615,-2.8615,-2.8615,-2.8615,-2.8615,-2.8596,-2.8846,-3.3965,-3.6828,-3.7729,-4.2841,-4.5561,0.0,4.023,0.0,0.0,0.0,0.0,0.0,0.0,0.0,0.0,0.0,0.0,0.0,0.0,0.0,0.0,0.0,0.0,0.0,0.0,0.0,0.0,0.0,0.0,0.0,0.0,0.0,0.0,0.0,0.0,0.0,0.0,0.0,0.0,0.0,1.1979,1.1678,1.0482,0.9808,0.0,0.8453,0.8572,0.95,0.916,0.8943,0.8611,0.3536,0.0536,-0.1059,-0.5464,-0.7782,-0.8344,-0.8344,-0.8344,-0.8344,-0.8344,-0.83,-0.8251,-0.8251,-0.8251,-0.8251,-0.8251,-0.8251,-0.8251,-0.8251,-0.8251,-0.8256,-0.8305,-0.9788,-1.1987,-1.4487,-1.6614,-1.8657,-2.1232,-2.0758,-2.0283,-2.2146,-2.3069,-2.3536,-2.3827,-2.4461,-2.566,-2.7302,-2.8121,-2.9576,-3.2044,-3.2826,-3.3015,-3.2925,-3.1442,-3.0612,-3.0182,-2.9384,-2.8941,-2.8615,-2.8615,-2.8615,-2.8615,-2.8615,-2.8615,-2.8615,-2.8615,-2.8615,-2.8615,-2.8615,-2.9537,-3.1296,-3.5321,-3.8151,-4.0055,-4.4126,-4.5818,0.0,0.0,0.0,0.0,0.0,0.0,0.0,0.0,0.0,0.0,0.0,0.0,0.0,0.0,0.0,0.0,0.0,0.0,0.0,0.0,0.0,0.0,0.0,0.0,0.0,0.0,0.0,0.0,0.0,0.0,0.0,0.0,0.0,0.0,1.1717,1.1939,1.2094,1.0694,1.0288,1.088,0.947,0.8252,0.7258,0.8796,0.7726,0.4641,0.1614,-0.1327,-0.3926,-0.6995,-0.8273,-0.83,-0.83,-0.83,-0.83,-0.83,-0.8278,-0.8251,-0.8251,-0.8251,-0.8251,-0.8251,-0.8251,-0.8251,-0.8251,-0.8273,-0.8548,-0.9808,-1.1036,-1.3003,-1.6875,-1.8707,-2.0297,-2.2842,-2.2373,-2.1918,-2.3295,-2.3536,-2.3536,-2.3536,-2.3843,-2.4721,-2.5992,-2.7174,-2.8369,-2.9615,-3.0413,-3.0966,-3.095,-3.0085,-2.9676,-3.0241,-2.9384,-2.8709,-2.9404,-2.8979,-2.8671,-2.8766,-2.8671,-2.8615,-2.8615,-2.8615,-2.8615,-2.8615,-2.8615,-2.9975,-3.2438,-3.5538,-3.8362,-4.1369,-4.4096,-4.5786,0.0,0.0,0.0,0.0,0.0,0.0,0.0,0.0,0.0,0.0,0.0,0.0,0.0,0.0,0.0,0.0,0.0,0.0,0.0,0.0,0.0,0.0,0.0,0.0,0.0,0.0,0.0,0.0,0.0,0.0,0.0,0.0,1.1284,1.1202,1.1179,1.1639,1.2053,1.0933,1.0787,1.1404,1.0278,0.8257,0.5354,0.7869,0.5693,0.0268,0.0267,-0.263,-0.7488,-0.7999,-0.8251,-0.8251,-0.8251,-0.8251,-0.8251,-0.8251,-0.8251,-0.8251,-0.8251,-0.8251,-0.8251,-0.8251,-0.8251,-0.8251,-0.8251,-0.8542,-0.9317,-1.1517,-1.2758,-1.4496,-1.872,-2.0093,-2.0988,-2.3069,-2.3536,-2.3536,-2.3536,-2.3536,-2.3536,-2.3536,-2.3552,-2.3843,-2.4688,-2.6273,-2.7495,-2.7348,-2.8158,-2.9018,-2.95,-2.9113,-2.9384,-3.0516,-2.9695,-2.9365,-3.0476,-2.9676,-2.9037,-2.9189,-2.9037,-2.8653,-2.8615,-2.8615,-2.8615,-2.8615,-2.9077,-3.0659,-3.3593,-3.6185,-3.8964,-4.2238,-4.4323,-4.5561,0.0,0.0,0.0,0.0,0.0,0.0,0.0,0.0,0.0,0.0,0.0,0.0,0.0,0.0,0.0,0.0,0.0,0.0,0.0,0.0,0.0,0.0,0.0,0.0,0.0,0.0,0.0,0.0,0.0,0.0,0.0,1.2051,1.1702,1.1112,1.1537,1.1964,1.1866,1.1651,1.1739,1.1907,1.1449,1.0547,0.8722,0.6383,0.293,-0.0532,-0.0,-0.1581,-0.468,-0.7235,-0.8251,-0.8251,-0.8251,-0.8251,-0.8251,-0.8251,-0.8251,-0.8251,-0.8251,-0.8251,-0.8251,-0.8251,-0.8251,-0.8251,-0.8251,-0.9756,-1.1749,-1.2059,-1.5435,-1.8942,-1.9502,-2.1319,-2.3069,-2.352,-2.3536,-2.3536,-2.3536,-2.3536,-2.3536,-2.3536,-2.4135,-2.4688,-2.4569,-2.6202,-2.7532,-2.8027,-2.8634,-2.9538,-3.097,-3.0555,-3.0516,-3.1287,-3.1086,-3.0946,-3.126,-3.0966,-3.0612,-2.9967,-2.9909,-2.9559,-2.8615,-2.8615,-2.8615,-2.8615,-3.1133,-3.357,-3.5946,-3.946,-4.2209,-4.4717,-4.5366,-4.6012,0.0,0.0,0.0,0.0,0.0,0.0,0.0,0.0,0.0,0.0,0.0,0.0,0.0,0.0,0.0,0.0,0.0,0.0,0.0,0.0,0.0,0.0,0.0,0.0,0.0,0.0,0.0,0.0,0.0,0.0,1.1277,1.1448,1.1356,1.1022,1.1241,0.0,1.1833,1.1874,1.1996,1.2184,1.1609,0.9083,0.4905,0.4944,0.3145,-0.0264,-0.2105,-0.418,-0.6469,-0.7746,-0.8251,-0.8251,-0.8251,-0.8251,-0.8251,-0.8251,-0.7993,-0.7741,-0.8251,-0.7993,-0.7736,-0.8251,-0.8251,-0.8503,-0.9999,-1.1262,-1.2766,-1.5666,-1.8051,-2.0175,-2.1579,-2.2662,-2.3536,-2.3536,-2.3536,-2.3536,-2.3536,-2.3536,-2.3536,-2.3536,-2.3827,-2.4102,-2.4036,-2.4688,-2.5346,-2.5573,-2.5834,-2.6646,-2.8047,-2.8627,-2.9323,-3.0792,-3.1166,-3.1617,-3.2139,-3.1678,-3.0966,-3.0143,-3.0006,-2.9598,-2.8615,-2.8615,-2.8615,-2.8615,-3.1112,-3.3988,-3.6853,-3.9875,-4.2611,-4.5592,-4.5818,-4.6044,0.0,0.0,0.0,0.0,0.0,0.0,0.0,0.0,0.0,0.0,0.0,0.0,0.0,0.0,0.0,0.0,0.0,0.0,0.0,0.0,0.0,0.0,0.0,0.0,0.0,0.0,0.0,0.0,0.0,0.0,1.1187,1.1356,1.1287,1.097,1.097,1.1436,1.1866,1.1972,1.2086,1.22,1.078,0.7429,0.2282,0.2558,0.1289,-0.1041,-0.3636,-0.6207,-0.8229,-0.8245,-0.8251,-0.8251,-0.8251,-0.8251,-0.8251,-0.8251,-0.7993,-0.7483,-0.7993,-0.8004,-0.7503,-0.7999,-0.8256,-0.8777,-1.0496,-1.2011,-1.4009,-1.7754,-1.9669,-2.1146,-2.3101,-2.3536,-2.3536,-2.3536,-2.3536,-2.3536,-2.3536,-2.3536,-2.3536,-2.3536,-2.3536,-2.3536,-2.3536,-2.3536,-2.3552,-2.3827,-2.404,-2.4796,-2.6414,-2.7685,-2.9304,-3.1367,-3.1821,-3.2355,-3.3226,-3.2417,-3.1678,-3.087,-3.0672,-2.9928,-2.896,-2.8653,-2.8846,-2.9537,-3.1991,-3.4668,-3.7304,-4.0494,-4.35,-4.6044,-4.6044,-4.6076,0.0,0.0,0.0,0.0,0.0,0.0,0.0,0.0,0.0,0.0,0.0,0.0,0.0,0.0,0.0,0.0,0.0,0.0,0.0,0.0,0.0,0.0,0.0,0.0,0.0,0.0,0.0,0.0,0.0,0.0,1.1105,1.1522,1.1723,1.097,1.1459,1.1964,1.1947,1.2127,1.2184,1.2111,0.8435,0.6388,0.5544,-0.1269,-0.4065,-0.3793,-0.3844,-0.5649,-0.8175,-0.8229,-0.8251,-0.8251,-0.8251,-0.8251,-0.8251,-0.8251,-0.8251,-0.8251,-0.8251,-0.8284,-0.8327,-0.8273,-0.8294,-0.8327,-0.8525,-1.1963,-1.5831,-1.6081,-1.9602,-2.3295,-2.352,-2.3536,-2.3536,-2.3536,-2.3536,-2.3536,-2.3536,-2.3536,-2.3536,-2.3536,-2.3536,-2.3536,-2.3536,-2.3536,-2.3827,-2.4495,-2.506,-2.6432,-2.9346,-3.0261,-3.1387,-3.3463,-3.3744,-3.4002,-3.4024,-3.4002,-3.3379,-3.2632,-3.1637,-3.0906,-2.9948,-2.8979,-2.9766,-3.1991,-3.4622,-3.6639,-3.7304,-4.2871,-4.5818,-4.6044,-4.6044,-4.6429,0.0,0.0,0.0,0.0,0.0,0.0,0.0,0.0,0.0,0.0,0.0,0.0,0.0,0.0,0.0,0.0,0.0,0.0,0.0,0.0,0.0,0.0,0.0,0.0,0.0,0.0,0.0,0.0,0.0,0.0,1.1763,1.1683,1.1627,1.1389,1.1931,1.1964,1.1964,1.2086,1.2094,1.2013,0.8546,0.5525,0.3248,-0.1496,-0.4733,-0.6467,-0.6537,-0.7097,-0.8175,-0.8737,-0.8766,-0.8251,-0.8251,-0.8251,-0.8251,-0.8251,-0.7993,-0.7741,-0.8251,-0.8004,-0.7767,-0.8256,-0.8267,-0.9035,-1.2225,-1.439,-1.6546,-1.9834,-2.2161,-2.3536,-2.3536,-2.3536,-2.3536,-2.3536,-2.3536,-2.3536,-2.3536,-2.3536,-2.3536,-2.3536,-2.3536,-2.3569,-2.3682,-2.4528,-2.5415,-2.5851,-2.6931,-2.801,-2.9151,-3.0555,-3.1645,-3.25,-3.3421,-3.4024,-3.4024,-3.4024,-3.3658,-3.2653,-3.2313,-3.1596,-2.9948,-3.0964,-3.1732,-3.2194,-3.6803,-3.9407,-3.9641,-4.347,-4.5592,-4.6044,-4.6719,-4.7107,-0.0,0.0,0.0,0.0,0.0,0.0,0.0,0.0,0.0,0.0,0.0,0.0,0.0,0.0,0.0,0.0,0.0,0.0,0.0,0.0,0.0,0.0,0.0,0.0,0.0,0.0,0.0,0.0,0.0,0.0,1.1923,1.1866,1.1841,1.1874,1.1931,1.1972,1.2004,1.207,1.2053,1.1964,0.7692,0.446,0.1981,-0.2461,-0.5654,-0.7897,-0.8205,-0.8295,-0.8142,-0.8708,-0.8748,-0.8251,-0.8251,-0.8251,-0.8251,-0.8251,-0.7993,-0.7741,-0.8251,-0.8004,-0.7767,-0.8025,-0.8278,-0.9035,-1.3475,-1.5143,-1.6784,-2.0988,-2.2842,-2.3536,-2.3536,-2.3536,-2.3536,-2.3536,-2.3536,-2.3536,-2.3536,-2.3536,-2.3536,-2.3536,-2.3876,-2.4478,-2.4595,-2.6063,-2.7018,-2.7126,-2.8188,-2.9208,-2.9773,-3.0851,-3.1902,-3.2479,-3.3421,-3.4024,-3.4024,-3.4024,-3.3701,-3.3294,-3.2931,-3.2251,-3.0946,-3.2525,-3.3416,-3.366,-3.8388,-4.1369,-4.2556,-4.4674,-4.6203,-4.6429,-4.7463,-4.8178,0.0,0.0,0.0,0.0,0.0,0.0,0.0,0.0,0.0,0.0,0.0,0.0,0.0,0.0,0.0,0.0,0.0,0.0,0.0,0.0,0.0,0.0,0.0,0.0,0.0,0.0,0.0,0.0,0.0,1.1923,1.1833,1.1833,1.1866,1.1947,1.1964,1.2004,1.2094,1.2094,1.2045,1.1964,0.5929,0.2707,0.1722,-0.4157,-0.7108,-0.7897,-0.8701,-0.8517,-0.8076,-0.8142,-0.8202,-0.8251,-0.8251,-0.8251,-0.8251,-0.8251,-0.8251,-0.8251,-0.8251,-0.8294,-0.8344,-0.8344,-0.8344,-0.8841,-1.1601,-1.399,-1.6546,-1.9123,-2.169,-2.3536,-2.3536,-2.3536,-2.3536,-2.3536,-2.3536,-2.3536,-2.3536,-2.3536,-2.3552,-2.3552,-2.5067,-2.6291,-2.6291,-2.7605,-2.8884,-2.8884,-2.9056,-2.9773,-3.126,-3.1719,-3.2458,-3.3744,-3.4024,-3.4024,-3.4024,-3.4024,-3.4024,-3.4024,-3.3294,-3.2653,-3.2632,-3.3198,-3.4668,-3.6818,-3.9568,-4.2556,-4.5867,-4.7008,-4.7463,-4.7463,-4.8538,-4.9589,-0.7394,0.0,0.0,0.0,0.0,0.0,0.0,0.0,0.0,0.0,0.0,0.0,0.0,0.0,0.0,0.0,0.0,0.0,0.0,0.0,0.0,0.0,0.0,0.0,0.0,0.0,0.0,0.0,1.2367,1.1833,1.1743,1.1743,1.1784,1.1866,1.1931,1.1972,1.2004,1.2004,1.1947,1.1866,0.788,0.4429,0.1967,-0.2212,-0.5409,-0.7897,-0.8154,-0.8199,-0.8022,-0.8627,-0.8685,-0.8196,-0.824,-0.8251,-0.8251,-0.8251,-0.8251,-0.8251,-0.8251,-0.8267,-0.8278,-0.8278,-0.8278,-0.9029,-1.3466,-1.5384,-1.6784,-2.1232,-2.2842,-2.3536,-2.3536,-2.3536,-2.3536,-2.3536,-2.3536,-2.3536,-2.3536,-2.4218,-2.4662,-2.4662,-2.6168,-2.7235,-2.7379,-2.9384,-3.0632,-3.0791,-3.18,-3.2737,-3.3294,-3.3357,-3.3421,-3.4024,-3.4024,-3.4024,-3.4024,-3.4024,-3.4024,-3.4024,-3.3701,-3.3015,-3.1637,-3.5082,-3.7065,-3.7493,-4.1942,-4.5241,-4.7393,-4.7364,-4.782,-4.8571,-4.9622,-5.045,-0.7597,-0.7787,-0.8099,0.0,0.0,0.0,0.0,0.0,0.0,0.0,0.0,0.0,0.0,0.0,0.0,0.0,0.0,0.0,0.0,0.0,0.0,0.0,0.0,0.0,0.0,0.0,0.0,0.0,1.1833,1.1792,1.1694,1.1694,1.1719,1.1768,1.1825,1.1866,1.1906,1.1906,1.189,1.1833,0.8647,0.5181,0.1967,-0.1482,-0.4694,-0.7897,-0.7897,-0.7918,-0.7957,-0.8551,-0.8627,-0.8175,-0.8229,-0.8251,-0.8251,-0.8251,-0.8251,-0.8251,-0.8251,-0.8251,-0.8256,-0.8278,-0.8273,-0.9256,-1.4448,-1.5863,-1.7021,-2.2161,-2.3536,-2.3536,-2.3536,-2.3536,-2.3552,-2.4344,-2.4361,-2.462,-2.4948,-2.5764,-2.6238,-2.5323,-2.6985,-2.8392,-2.9031,-3.0595,-3.2119,-3.25,-3.3421,-3.4024,-3.4024,-3.4024,-3.4024,-3.4024,-3.4024,-3.4024,-3.4024,-3.4024,-3.4024,-3.4024,-3.4024,-3.3809,-3.3292,-3.7112,-3.9379,-3.9893,-4.4421,-4.7393,-4.8899,-4.8702,-4.9226,-5.0316,-5.0749,-5.1483,-0.7753,-0.8018,-0.8275,-0.875,0.0,0.0,0.4218,0.6996,0.0,0.0,0.0,0.0,0.0,0.0,0.0,0.0,0.0,0.0,0.0,0.0,0.0,0.0,0.0,0.0,0.0,0.0,1.7953,1.2341,1.1817,1.1759,1.1678,1.167,1.1678,1.1686,1.1686,1.1743,1.1833,1.1833,1.1833,1.1833,0.8949,0.5709,0.1967,-0.0993,-0.4224,-0.7897,-0.7897,-0.7897,-0.7902,-0.7957,-0.8055,-0.8158,-0.8218,-0.8245,-0.8251,-0.8251,-0.8251,-0.8251,-0.8251,-0.8251,-0.8256,-0.8316,-0.8548,-0.9506,-1.4496,-1.6146,-1.7246,-2.2161,-2.3536,-2.3536,-2.3536,-2.3536,-2.3811,-2.5468,-2.5764,-2.606,-2.6974,-2.7854,-2.8039,-2.5921,-2.7452,-2.975,-3.028,-3.1645,-3.2945,-3.3722,-3.3765,-3.3765,-3.3765,-3.4024,-3.4024,-3.4024,-3.4024,-3.4024,-3.4024,-3.4002,-3.4002,-3.4067,-3.4261,-3.5026,-3.6343,-3.9486,-4.1747,-4.3101,-4.6587,-4.9195,-5.0681,-5.0681,-5.1081,-5.1851,-5.1919,-5.2556,-0.7214,-0.8642,-0.8845,-0.8492,0.0,0.0,0.0,-0.5079,0.0,0.0,0.0,0.0,0.0,0.0,0.0,0.0,0.0,0.0,0.0,0.0,0.0,0.0,0.0,0.0,0.0,0.0,1.7953,1.2341,1.1694,1.1572,1.149,1.1474,1.1506,1.158,1.1653,1.1743,1.1833,1.1833,1.207,1.257,1.1,0.7486,0.2705,0.1248,-0.2493,-0.7897,-0.7897,-0.7897,-0.7902,-0.7957,-0.8027,-0.8098,-0.8158,-0.8207,-0.8251,-0.8251,-0.8251,-0.8251,-0.8251,-0.8251,-0.8251,-0.8267,-0.9762,-1.1963,-1.4882,-1.7258,-1.9602,-2.26,-2.3536,-2.3536,-2.3536,-2.3536,-2.3811,-2.5468,-2.5625,-2.5501,-2.6747,-2.7697,-2.8047,-2.7289,-2.8898,-3.0319,-3.0495,-3.1367,-3.1943,-3.1923,-3.2624,-3.3247,-3.3247,-3.3786,-3.4024,-3.4024,-3.4024,-3.4024,-3.4024,-3.3336,-3.3637,-3.5086,-3.6025,-3.6941,-3.8044,-4.2022,-4.446,-4.5529,-4.9258,-5.1183,-5.1517,-5.1517,-5.1782,-5.1851,-5.2625,-5.3265,-0.714,-0.8872,-0.9008,-0.8859,0.0,0.0,0.0,0.0,0.0,0.0,0.0,0.0,0.0,0.0,0.0,0.0,0.0,0.0,0.0,0.0,0.0,0.0,0.0,0.0,0.0,0.0,1.7831,1.2196,1.1612,1.1523,1.1425,1.1425,1.1465,1.1563,1.1604,1.1694,1.1833,1.1833,1.2079,1.2324,1.1506,0.7995,0.2459,0.15,-0.2249,-0.7897,-0.7897,-0.7897,-0.7897,-0.7929,-0.7995,-0.8082,-0.8147,-0.8202,-0.8251,-0.8251,-0.8251,-0.8251,-0.8251,-0.8251,-0.8497,-0.9704,-1.0912,-1.2613,-1.6446,-1.9548,-2.1918,-2.3069,-2.4085,-2.4637,-2.4637,-2.519,-2.6025,-2.72,-2.7311,-2.744,-2.8275,-2.8558,-2.8766,-2.8262,-2.886,-2.9538,-3.0359,-3.0693,-3.095,-3.1463,-3.18,-3.218,-3.2283,-3.2562,-3.3162,-3.4175,-3.4218,-3.4521,-3.5413,-3.5064,-3.5086,-3.6115,-3.679,-3.7903,-4.0225,-4.3116,-4.6103,-4.8986,-5.0888,-5.2186,-5.2591,-5.2591,-5.2591,-5.2625,-5.3265,-5.4012,0.0,0.0,0.0,0.0,0.0,-0.7533,0.0,0.0,0.0,0.0,0.0,0.0,0.0,0.0,0.0,0.0,0.0,0.0,0.0,0.0,0.0,0.0,0.0,0.0,0.0,0.0,1.6317,1.2514,1.1099,1.056,1.1392,1.1416,1.1465,1.1563,1.158,1.167,1.1833,1.1833,1.1833,1.2079,1.1264,0.7995,0.2213,0.15,-0.2249,-0.7897,-0.7897,-0.7897,-0.7897,-0.7897,-0.7962,-0.8082,-0.8131,-0.8191,-0.8251,-0.8251,-0.8251,-0.8251,-0.8251,-0.8251,-0.8748,-1.1127,-1.2554,-1.4225,-1.8684,-2.1782,-2.3536,-2.3827,-2.4654,-2.5764,-2.6043,-2.6901,-2.8029,-2.8977,-2.9322,-2.9152,-2.9576,-2.9404,-2.9462,-2.886,-2.8747,-2.8979,-2.9889,-2.9947,-3.0241,-3.1321,-3.1617,-3.1759,-3.2283,-3.2583,-3.3247,-3.4673,-3.4979,-3.5306,-3.6843,-3.6798,-3.6775,-3.7106,-3.7682,-3.9497,-4.2628,-4.4814,-4.7943,-5.222,-5.2186,-5.2625,-5.3673,-5.3673,-5.3673,-5.3673,-5.4012,-5.4833,0.0,0.0,0.0,0.0,-0.9713,0.0,0.0,0.0,0.0,0.0,0.0,0.0,0.0,0.0,0.0,0.0,0.0,0.0,0.0,0.0,0.0,0.0,0.0,0.0,0.0,0.0,0.0,1.4791,0.8989,0.7098,1.102,1.1384,1.1465,1.1563,1.1637,1.1727,1.1833,1.1833,1.207,1.2561,1.1506,0.8244,0.2705,0.1749,-0.2249,-0.7897,-0.7897,-0.7897,-0.7897,-0.7897,-0.7962,-0.8076,-0.8082,-0.8153,-0.8251,-0.8251,-0.8251,-0.8251,-0.8251,-0.8251,-0.8748,-1.1127,-1.4939,-1.9144,-2.1887,-2.315,-2.3552,-2.4445,-2.4738,-2.5294,-2.6692,-2.6992,-2.7557,-2.8977,-2.8942,-2.8846,-2.9596,-2.925,-2.8842,-2.869,-2.8653,-2.869,-2.8936,-2.8974,-2.9615,-3.1503,-3.2262,-3.3591,-3.5066,-3.592,-3.649,-3.6535,-3.6535,-3.6558,-3.6843,-3.6115,-3.6331,-3.7608,-4.0743,-4.3205,-4.4857,-4.892,-5.1624,-5.3265,-5.33,-5.3743,-5.4798,-5.4798,-5.4798,-5.4798,-5.5624,-5.6312,0.0,0.0,0.0,0.0,0.0,0.0,-0.7713,0.0,-0.8411,0.0,0.0,0.0,0.0,0.0,0.0,0.0,0.0,0.0,0.0,0.0,0.0,0.0,0.0,0.0,0.0,0.0,0.0,0.0,0.0,0.651,1.0844,1.1318,1.1465,1.1563,1.1645,1.1743,1.1833,1.1389,1.1412,1.1659,1.078,0.7511,0.1733,0.1247,-0.2238,-0.7897,-0.7897,-0.7897,-0.7897,-0.7897,-0.7946,-0.8027,-0.806,-0.8147,-0.8251,-0.8251,-0.8251,-0.8251,-0.8251,-0.9225,-1.089,-1.4796,-1.849,-2.178,-2.3959,-2.4657,-2.493,-2.5852,-2.6956,-2.8048,-2.8388,-2.8997,-2.9856,-2.9955,-2.9537,-2.9115,-2.9134,-2.8941,-2.8728,-2.8653,-2.9579,-3.0259,-3.0378,-3.0378,-3.0691,-3.1382,-3.2758,-3.4153,-3.5,-3.5284,-3.5942,-3.7026,-3.7072,-3.7382,-3.8316,-3.8105,-3.8679,-4.0741,-4.437,-4.6677,-4.7346,-5.0852,-5.2962,-5.3369,-5.4047,-5.4798,-5.566,-5.566,-5.604,-5.6765,-5.6384,-5.7311,-0.3463,0.0,0.0,0.0,0.0,0.0,0.0,0.0,0.0,0.0,0.0,0.0,0.0,0.0,0.0,0.0,0.0,0.0,0.0,0.0,0.0,0.0,0.0,0.0,0.0,0.0,0.0,0.0,0.0,0.0,1.0724,1.1253,1.1449,1.1563,1.1678,1.1784,1.1619,1.1188,1.0729,1.0751,0.9529,0.6256,0.0996,0.0249,-0.2969,-0.7897,-0.7897,-0.7897,-0.7897,-0.7897,-0.7929,-0.7995,-0.8055,-0.8142,-0.8229,-0.8245,-0.8251,-0.8251,-0.8251,-1.0173,-1.3434,-1.7668,-2.1108,-2.3808,-2.4876,-2.5946,-2.6584,-2.752,-2.8673,-2.9796,-2.9589,-3.0244,-3.0863,-3.0364,-2.9865,-2.9365,-2.8634,-2.896,-2.9288,-2.9288,-3.0865,-3.2148,-3.2148,-3.2189,-3.2251,-3.291,-3.3981,-3.5086,-3.5942,-3.5987,-3.6362,-3.7809,-3.7855,-3.8434,-3.9617,-3.9448,-4.0421,-4.321,-4.6975,-4.9479,-5.0131,-5.2403,-5.4012,-5.4152,-5.4904,-5.5696,-5.6801,-5.6801,-5.7183,-5.795,-5.7183,-5.8114,0.0,0.0,0.0,0.058,0.0,0.0,0.0,0.0,-0.9035,0.0,0.0,0.0,0.0,0.0,0.0,-0.8777,0.0,0.0,0.0,0.0,0.0,0.0,0.0,0.0,0.0,0.0,0.0,0.0,0.0,0.0,1.0449,1.1196,1.1376,1.1555,1.1743,1.1627,1.0955,1.097,1.0516,1.0077,0.7496,0.4484,0.0996,-0.1729,-0.4681,-0.7897,-0.7897,-0.7897,-0.7897,-0.7897,-0.7929,-0.7995,-0.8055,-0.8109,-0.8175,-0.8229,-0.8251,-0.8251,-0.8251,-1.1364,-1.569,-1.8084,-2.188,-2.5149,-2.5386,-2.65,-2.8255,-2.8958,-2.8769,-2.8598,-3.0304,-3.0115,-2.9615,-2.9615,-2.9615,-2.9365,-2.8634,-2.9948,-3.124,-3.124,-3.2721,-3.3636,-3.3636,-3.3852,-3.4672,-3.6444,-3.6798,-3.7508,-3.9375,-3.9423,-3.9689,-3.9738,-3.9738,-3.9641,-3.9375,-3.9351,-4.095,-4.503,-4.8286,-5.0846,-5.317,-5.4188,-5.5282,-5.6348,-5.6384,-5.6801,-5.795,-5.795,-5.795,-5.795,-5.795,-5.8885,0.0,0.0,1.2856,0.2408,0.0,0.0,0.0,0.0,0.0,0.0,0.0,0.0,0.0,0.0,0.0,-0.9133,-1.059,0.0,0.0,0.0,0.0,0.0,0.0,0.0,0.0,0.0,0.0,0.0,0.0,0.0,0.0,1.0684,1.0728,1.0835,1.0813,1.0465,1.0294,0.9846,0.9633,0.9399,0.6333,0.3279,0.0502,-0.2241,-0.5199,-0.7897,-0.7897,-0.7897,-0.7897,-0.7897,-0.7908,-0.7935,-0.8033,-0.8093,-0.812,-0.8218,-0.8251,-0.8737,-1.1827,-1.566,-1.9441,-2.2164,-2.4435,-2.6536,-2.8115,-2.8891,-2.9717,-3.0679,-3.0761,-3.0512,-3.0593,-3.0115,-2.9615,-2.9615,-2.9365,-2.9192,-3.024,-3.0805,-3.1393,-3.2699,-3.4257,-3.5439,-3.5439,-3.6554,-3.7114,-3.6853,-3.7818,-3.8989,-3.9689,-3.9569,-3.9472,-3.9472,-3.9303,-3.9182,-3.9086,-4.2292,-4.4852,-4.6177,-5.0697,-5.3587,-5.4457,-5.5282,-5.604,-5.6384,-5.7147,-5.7566,-5.795,-5.916,-5.9748,-5.9785,-6.0763,-6.1668,1.571,1.9,0.0,0.9481,1.0264,0.0,0.0279,0.0,0.0,0.0,0.0,0.0,0.0,0.0,0.0,-1.0185,-1.15,-1.1686,0.0,0.0,0.0,0.0,0.0,0.0,0.0,0.0,-0.1939,0.5345,0.3707,0.0,0.0,0.0,1.0408,1.0797,1.0337,0.9773,0.962,0.9418,0.8945,0.8708,0.4837,0.1772,-0.0,-0.3742,-0.6192,-0.7897,-0.7897,-0.7897,-0.7897,-0.7897,-0.7897,-0.7908,-0.8027,-0.8076,-0.8093,-0.8207,-0.8525,-0.9788,-1.4503,-1.8139,-2.1146,-2.4777,-2.687,-2.8288,-2.9642,-3.0639,-3.1153,-3.1816,-3.1609,-3.1112,-3.0634,-2.9885,-2.9365,-2.9365,-2.9501,-2.9889,-3.1119,-3.2065,-3.3273,-3.4513,-3.6044,-3.7001,-3.7001,-3.806,-3.8511,-3.7635,-3.8608,-3.9448,-3.9448,-3.9303,-3.9206,-3.9206,-3.9397,-3.9823,-4.1001,-4.4993,-4.7463,-4.8353,-5.2778,-5.5553,-5.5752,-5.6856,-5.7311,-5.7547,-5.8041,-5.8737,-5.936,-6.0061,-6.0763,-6.1392,-6.3246,-6.3918]},{"header":{"parameterUnit":"m.s-1","parameterCategory":1,"la1":30.6,"la2":29.2853,"lo1":-89.7004,"lo2":-87.6739,"dy":0.0162,"dx":0.0183,"nx":112,"ny":82,"refTime":"2026-03-09T12:00:00:Z","depth":0,"parameterNumber":3,"parameterNumberName":"V-component_of_WINDS"},"data":[0.0,0.0,0.0,0.0,0.0,0.0,0.0,0.0,0.0,0.0,0.0,0.0,0.0,0.0,0.0,0.0,0.0,0.0,0.0,0.0,0.0,0.0,0.0,0.0,0.0,0.0,0.0,0.0,0.0,0.0,0.0,0.0,0.0,0.0,0.0,0.0,0.0,0.0,0.0,0.0,0.0,0.0,0.0,0.0,0.0,0.0,0.0,0.0,0.0,0.0,0.0,0.0,0.0,0.0,0.0,0.0,0.0,0.0,0.0,0.0,0.0,0.0,0.0,0.0,0.0,0.0,0.0,0.0,0.0,0.0,0.0,0.0,0.0,0.0,0.0,0.0,0.0,0.0,0.0,0.0,0.0,0.0,0.0,0.0,0.0,0.0,0.0,0.0,0.0,0.0,0.0,-6.1603,-9.6204,-11.8489,-11.8757,-11.8715,-10.0095,-5.6524,0.0,0.0,0.0,0.0,0.0,0.0,0.0,0.0,0.0,0.0,0.0,0.0,0.0,0.0,0.0,0.0,0.0,0.0,0.0,0.0,0.0,0.0,0.0,0.0,0.0,0.0,0.0,0.0,0.0,0.0,0.0,0.0,0.0,0.0,0.0,0.0,0.0,0.0,0.0,0.0,0.0,0.0,0.0,0.0,0.0,0.0,0.0,0.0,0.0,0.0,0.0,0.0,0.0,0.0,0.0,0.0,0.0,0.0,0.0,0.0,0.0,0.0,0.0,0.0,0.0,0.0,0.0,0.0,0.0,0.0,0.0,0.0,0.0,0.0,0.0,0.0,0.0,0.0,0.0,0.0,0.0,0.0,0.0,0.0,0.0,0.0,0.0,0.0,0.0,0.0,0.0,0.0,0.0,0.0,0.0,0.0,0.0,0.0,0.0,0.0,0.0,0.0,0.0,0.0,-6.2836,-10.2594,-11.2928,-11.7256,-11.8558,-11.8689,-9.7704,-4.8465,0.0,0.0,0.0,0.0,0.0,0.0,0.0,0.0,0.0,0.0,0.0,0.0,0.0,0.0,0.0,0.0,0.0,0.0,0.0,0.0,0.0,0.0,0.0,0.0,0.0,0.0,0.0,0.0,0.0,0.0,0.0,0.0,0.0,0.0,0.0,0.0,0.0,0.0,0.0,0.0,0.0,0.0,0.0,0.0,0.0,0.0,0.0,0.0,0.0,0.0,0.0,0.0,0.0,0.0,0.0,0.0,0.0,0.0,0.0,0.0,0.0,0.0,0.0,0.0,0.0,0.0,0.0,0.0,0.0,0.0,0.0,0.0,0.0,0.0,0.0,0.0,0.0,0.0,0.0,0.0,0.0,0.0,0.0,0.0,0.0,0.0,0.0,0.0,0.0,0.0,0.0,0.0,0.0,0.0,0.0,0.0,0.0,0.0,0.0,0.0,0.0,0.0,0.0,-7.1516,-9.1531,-11.4095,-11.6516,-11.7059,-11.863,-9.9366,-8.4939,-7.9238,-5.5613,0.0,0.0,0.0,0.0,0.0,0.0,0.0,0.0,0.0,0.0,0.0,0.0,0.0,0.0,0.0,0.0,0.0,0.0,0.0,0.0,0.0,0.0,0.0,0.0,0.0,0.0,0.0,0.0,0.0,0.0,0.0,0.0,0.0,0.0,0.0,0.0,0.0,0.0,0.0,0.0,0.0,0.0,0.0,0.0,0.0,0.0,0.0,0.0,0.0,0.0,0.0,0.0,0.0,0.0,0.0,0.0,0.0,0.0,0.0,0.0,0.0,0.0,0.0,0.0,0.0,0.0,0.0,0.0,0.0,0.0,0.0,0.0,0.0,0.0,0.0,0.0,0.0,0.0,0.0,0.0,0.0,0.0,0.0,0.0,0.0,0.0,0.0,0.0,0.0,0.0,0.0,0.0,0.0,0.0,0.0,0.0,0.0,0.0,0.0,0.0,0.0,0.0,-8.6928,-11.4224,-11.6392,-11.5946,-11.6101,-11.7836,-8.5943,-7.5241,-9.7362,-6.0974,0.0,0.0,0.0,0.0,0.0,0.0,0.0,0.0,0.0,0.0,0.0,0.0,0.0,0.0,0.0,0.0,0.0,0.0,0.0,0.0,0.0,0.0,0.0,0.0,0.0,0.0,0.0,0.0,0.0,0.0,0.0,0.0,0.0,0.0,0.0,0.0,0.0,0.0,0.0,0.0,0.0,0.0,0.0,0.0,0.0,0.0,0.0,0.0,0.0,0.0,0.0,0.0,0.0,0.0,0.0,0.0,0.0,0.0,0.0,0.0,0.0,0.0,0.0,0.0,0.0,0.0,0.0,0.0,0.0,0.0,0.0,0.0,0.0,0.0,0.0,0.0,0.0,0.0,0.0,0.0,0.0,0.0,0.0,0.0,0.0,0.0,0.0,0.0,0.0,0.0,0.0,0.0,0.0,0.0,0.0,0.0,0.0,0.0,0.0,0.0,0.0,0.0,-8.4818,-11.6874,-11.7059,-11.4318,-11.3268,-11.5408,-9.4138,-7.7421,-6.9885,-5.0055,0.0,0.0,0.0,0.0,0.0,0.0,0.0,0.0,0.0,0.0,0.0,0.0,0.0,0.0,0.0,0.0,0.0,0.0,0.0,0.0,0.0,0.0,0.0,0.0,0.0,0.0,0.0,0.0,0.0,0.0,0.0,0.0,0.0,0.0,0.0,0.0,0.0,0.0,0.0,0.0,0.0,0.0,0.0,0.0,0.0,0.0,0.0,0.0,0.0,0.0,0.0,0.0,0.0,0.0,0.0,0.0,0.0,0.0,0.0,0.0,0.0,0.0,0.0,0.0,0.0,0.0,0.0,0.0,0.0,0.0,0.0,0.0,0.0,0.0,0.0,0.0,0.0,0.0,0.0,0.0,0.0,0.0,0.0,0.0,0.0,0.0,0.0,0.0,0.0,0.0,0.0,0.0,0.0,0.0,0.0,0.0,0.0,0.0,0.0,0.0,0.0,0.0,-10.2309,-11.7192,0.0,-11.5082,-11.4253,-11.5701,-9.3175,-7.5852,-6.8671,0.0,0.0,0.0,0.0,0.0,0.0,0.0,0.0,0.0,0.0,0.0,0.0,0.0,0.0,0.0,0.0,0.0,0.0,0.0,0.0,0.0,0.0,0.0,0.0,0.0,0.0,0.0,0.0,0.0,0.0,0.0,0.0,0.0,0.0,0.0,0.0,0.0,0.0,0.0,0.0,0.0,0.0,0.0,0.0,0.0,0.0,0.0,0.0,0.0,0.0,0.0,0.0,0.0,0.0,0.0,0.0,0.0,0.0,0.0,0.0,0.0,0.0,0.0,0.0,0.0,0.0,0.0,0.0,0.0,0.0,0.0,0.0,0.0,0.0,0.0,0.0,0.0,0.0,0.0,0.0,0.0,0.0,0.0,0.0,0.0,0.0,0.0,0.0,0.0,0.0,0.0,0.0,0.0,0.0,0.0,0.0,0.0,0.0,0.0,0.0,0.0,0.0,-10.4906,-11.3879,-11.6773,0.0,-11.5545,-11.4879,-11.5545,-9.2812,-7.6575,-7.1884,0.0,0.0,0.0,0.0,0.0,0.0,0.0,0.0,0.0,0.0,0.0,0.0,0.0,0.0,0.0,0.0,0.0,0.0,0.0,0.0,0.0,0.0,0.0,0.0,0.0,0.0,0.0,0.0,0.0,0.0,0.0,0.0,0.0,0.0,0.0,0.0,0.0,0.0,0.0,0.0,0.0,0.0,0.0,0.0,0.0,0.0,0.0,0.0,0.0,0.0,0.0,0.0,0.0,0.0,0.0,0.0,0.0,0.0,0.0,0.0,0.0,0.0,0.0,0.0,0.0,0.0,0.0,0.0,0.0,0.0,0.0,0.0,0.0,0.0,0.0,0.0,0.0,0.0,0.0,0.0,0.0,0.0,0.0,0.0,0.0,0.0,0.0,0.0,0.0,0.0,0.0,0.0,0.0,0.0,0.0,0.0,0.0,0.0,0.0,0.0,0.0,0.0,-11.2923,-11.5918,-11.5934,-11.6942,-11.5628,-11.4577,-11.4577,-9.4613,-8.0544,0.0,0.0,0.0,0.0,0.0,0.0,0.0,0.0,0.0,0.0,0.0,0.0,0.0,0.0,0.0,0.0,0.0,0.0,0.0,0.0,0.0,0.0,0.0,0.0,0.0,0.0,0.0,0.0,0.0,0.0,0.0,0.0,0.0,0.0,0.0,0.0,0.0,0.0,0.0,0.0,0.0,0.0,0.0,0.0,0.0,0.0,0.0,0.0,0.0,0.0,0.0,0.0,0.0,0.0,0.0,0.0,0.0,0.0,0.0,0.0,0.0,0.0,0.0,0.0,0.0,0.0,0.0,0.0,0.0,0.0,0.0,0.0,0.0,0.0,0.0,0.0,0.0,0.0,0.0,0.0,0.0,0.0,0.0,0.0,0.0,0.0,0.0,0.0,0.0,0.0,0.0,0.0,0.0,0.0,0.0,0.0,0.0,0.0,0.0,0.0,0.0,0.0,0.0,-11.1524,-11.5295,-11.5934,-11.6942,-11.628,-11.5473,-11.4696,-10.1371,-8.8338,-7.7263,0.0,0.0,0.0,0.0,0.0,0.0,0.0,0.0,0.0,0.0,0.0,0.0,0.0,0.0,0.0,0.0,0.0,0.0,0.0,0.0,0.0,0.0,0.0,0.0,0.0,0.0,0.0,0.0,0.0,0.0,0.0,0.0,0.0,0.0,0.0,0.0,0.0,0.0,0.0,0.0,0.0,0.0,0.0,0.0,0.0,0.0,0.0,0.0,0.0,0.0,0.0,0.0,0.0,0.0,0.0,0.0,0.0,0.0,0.0,0.0,0.0,0.0,0.0,0.0,0.0,0.0,0.0,0.0,0.0,0.0,0.0,0.0,0.0,0.0,0.0,0.0,0.0,0.0,0.0,0.0,0.0,0.0,0.0,0.0,0.0,0.0,0.0,0.0,0.0,0.0,0.0,0.0,0.0,0.0,0.0,0.0,0.0,0.0,0.0,0.0,0.0,0.0,-10.2906,-11.0947,-11.5165,-11.6788,-11.609,-11.563,-11.5695,-10.4919,-9.2288,-7.8514,0.0,0.0,0.0,0.0,0.0,0.0,0.0,0.0,0.0,0.0,0.0,0.0,0.0,0.0,0.0,0.0,0.0,0.0,0.0,0.0,0.0,0.0,0.0,0.0,0.0,0.0,0.0,0.0,0.0,0.0,0.0,0.0,0.0,0.0,0.0,0.0,0.0,0.0,0.0,0.0,0.0,0.0,0.0,0.0,0.0,0.0,0.0,0.0,0.0,0.0,0.0,0.0,0.0,0.0,0.0,0.0,0.0,0.0,0.0,0.0,0.0,0.0,0.0,0.0,0.0,0.0,0.0,0.0,0.0,0.0,0.0,0.0,0.0,0.0,0.0,0.0,0.0,0.0,0.0,0.0,0.0,0.0,0.0,0.0,0.0,0.0,0.0,0.0,0.0,0.0,0.0,0.0,0.0,0.0,0.0,0.0,0.0,0.0,0.0,0.0,0.0,0.0,-9.0121,-10.4583,-11.4509,-11.7056,-11.6055,-11.5892,-11.7467,-10.6927,-9.4558,-8.1482,0.0,0.0,0.0,0.0,0.0,0.0,0.0,0.0,0.0,0.0,0.0,0.0,0.0,0.0,0.0,0.0,0.0,0.0,0.0,0.0,0.0,0.0,0.0,0.0,0.0,0.0,0.0,0.0,0.0,0.0,0.0,0.0,0.0,0.0,0.0,0.0,0.0,0.0,0.0,0.0,0.0,0.0,0.0,0.0,0.0,0.0,0.0,0.0,0.0,0.0,0.0,0.0,0.0,0.0,0.0,0.0,0.0,0.0,0.0,0.0,-7.7198,0.0,0.0,0.0,0.0,0.0,0.0,0.0,0.0,0.0,0.0,0.0,0.0,0.0,0.0,0.0,0.0,0.0,0.0,0.0,0.0,0.0,0.0,0.0,0.0,0.0,0.0,0.0,0.0,0.0,0.0,0.0,0.0,0.0,0.0,0.0,0.0,0.0,0.0,0.0,0.0,0.0,-8.4161,-10.2995,-11.6975,-12.13,-12.0801,-12.011,-12.0034,-11.4309,-10.5125,-9.1681,-8.406,0.0,0.0,0.0,0.0,0.0,0.0,0.0,0.0,0.0,0.0,0.0,0.0,0.0,0.0,0.0,0.0,0.0,0.0,0.0,0.0,0.0,0.0,0.0,0.0,0.0,0.0,0.0,0.0,0.0,0.0,0.0,0.0,0.0,0.0,0.0,0.0,0.0,0.0,0.0,0.0,0.0,0.0,0.0,0.0,0.0,0.0,0.0,0.0,0.0,0.0,0.0,0.0,0.0,0.0,0.0,0.0,0.0,0.0,0.0,0.0,-9.024,0.0,0.0,0.0,0.0,0.0,0.0,0.0,0.0,0.0,0.0,0.0,0.0,0.0,0.0,0.0,0.0,0.0,0.0,0.0,0.0,0.0,0.0,0.0,0.0,0.0,0.0,0.0,0.0,0.0,0.0,0.0,0.0,0.0,0.0,0.0,0.0,0.0,0.0,0.0,0.0,-8.2346,-10.2281,-11.7329,-12.1537,-12.0884,-12.0529,-12.1089,-11.7424,-10.9808,-9.7277,-8.974,0.0,0.0,0.0,0.0,0.0,0.0,0.0,0.0,0.0,0.0,0.0,0.0,0.0,0.0,0.0,0.0,0.0,0.0,0.0,0.0,0.0,0.0,0.0,0.0,0.0,0.0,0.0,0.0,0.0,0.0,0.0,0.0,0.0,0.0,0.0,0.0,0.0,0.0,0.0,0.0,0.0,0.0,0.0,0.0,0.0,0.0,0.0,0.0,0.0,0.0,0.0,0.0,0.0,0.0,-10.7412,-10.7422,-10.7422,-10.7398,-10.7268,-10.521,-10.5483,-10.502,0.0,0.0,0.0,0.0,0.0,0.0,0.0,0.0,0.0,0.0,0.0,0.0,0.0,0.0,0.0,0.0,0.0,0.0,0.0,0.0,0.0,0.0,0.0,0.0,0.0,-9.3707,-8.8611,0.0,0.0,0.0,0.0,0.0,0.0,0.0,0.0,0.0,0.0,0.0,0.0,-8.3104,-10.2785,-11.7407,-12.1231,-12.029,-12.0112,-12.1806,-11.8616,-11.2293,-10.2413,-9.5543,-8.5389,0.0,0.0,0.0,0.0,0.0,0.0,0.0,0.0,0.0,0.0,0.0,0.0,0.0,0.0,0.0,0.0,0.0,0.0,0.0,0.0,0.0,0.0,0.0,0.0,0.0,0.0,0.0,0.0,0.0,0.0,0.0,0.0,-6.9412,-7.5405,0.0,0.0,0.0,0.0,0.0,0.0,0.0,0.0,0.0,0.0,0.0,0.0,0.0,0.0,-9.6821,-10.0361,-10.5041,-11.0868,-11.5243,-11.7289,-11.7247,-11.7306,-11.7281,-11.7465,-11.9799,0.0,-11.6532,-10.6221,0.0,0.0,0.0,0.0,0.0,0.0,0.0,0.0,0.0,0.0,0.0,0.0,0.0,0.0,0.0,0.0,0.0,0.0,0.0,0.0,0.0,0.0,-9.6127,-9.9172,-10.0898,-10.0312,0.0,-8.7176,-7.8036,-6.7268,0.0,0.0,0.0,0.0,0.0,0.0,0.0,0.0,-8.5987,-10.5075,-11.9797,-12.4477,-12.3403,-12.2606,-12.3248,-11.9801,-11.5872,-11.2183,-10.6286,-9.7753,-8.5981,-7.7931,0.0,0.0,0.0,0.0,0.0,0.0,0.0,0.0,0.0,0.0,0.0,0.0,0.0,0.0,0.0,0.0,0.0,0.0,0.0,0.0,0.0,0.0,0.0,0.0,0.0,0.0,0.0,0.0,0.0,-6.8924,-7.905,-8.3223,-7.5078,-6.2997,0.0,0.0,0.0,0.0,0.0,0.0,0.0,0.0,0.0,-7.8659,-9.7492,-10.9075,-11.2069,-11.2146,-11.337,-11.5804,-11.9862,-12.187,-12.1858,-12.1972,-12.1939,-12.2117,-12.6077,-12.6683,-12.4594,-11.8141,-10.182,-7.9044,0.0,0.0,0.0,0.0,0.0,-8.3434,-9.2343,0.0,0.0,0.0,0.0,0.0,0.0,0.0,0.0,0.0,0.0,0.0,0.0,0.0,0.0,-11.1286,-11.3672,-11.4037,-11.2273,-10.7482,-9.7987,0.0,-7.0434,-6.3561,-5.6085,0.0,0.0,0.0,0.0,0.0,-9.2973,-10.929,-12.1069,-12.3976,-12.3303,-12.2626,-12.2558,-12.0096,-11.7192,-11.4294,-10.9809,-10.3999,-9.6716,-8.6756,-7.6609,0.0,0.0,0.0,0.0,0.0,0.0,0.0,0.0,0.0,0.0,0.0,0.0,0.0,0.0,0.0,0.0,0.0,0.0,0.0,0.0,0.0,0.0,0.0,0.0,0.0,0.0,0.0,0.0,-7.033,-7.8374,-8.7929,-8.2163,-6.9079,0.0,0.0,0.0,0.0,0.0,0.0,-6.4839,-8.9471,-10.4835,-10.7946,-11.3075,-11.6947,-11.9148,-11.9314,-11.9646,-12.0476,-12.2916,-12.4363,-12.517,-12.5462,-12.5498,-12.5344,-12.8629,-12.999,-12.9261,-12.3493,-11.5741,-10.4745,-7.9471,-6.8781,-6.8014,-7.0564,-8.8575,-11.3272,-12.4736,-12.4764,-11.9119,-11.3462,0.0,-8.9645,-8.7245,0.0,0.0,0.0,0.0,-8.8801,-10.1461,0.0,-11.1307,-12.0468,-12.3262,-12.3491,-12.181,-11.9691,-11.2308,0.0,-8.2527,-7.5043,-6.7969,0.0,0.0,0.0,0.0,-8.9591,-9.9239,-11.2483,-12.1423,-12.2392,-12.1959,-12.1587,-12.1228,-11.9676,-11.7629,-11.5004,-11.159,-10.8074,-10.4761,-9.4578,-8.6311,-8.0487,0.0,0.0,0.0,0.0,0.0,0.0,0.0,0.0,0.0,0.0,0.0,0.0,0.0,0.0,0.0,0.0,0.0,0.0,0.0,0.0,0.0,0.0,0.0,0.0,0.0,0.0,0.0,0.0,0.0,-9.4374,-6.7028,0.0,0.0,0.0,0.0,-8.1279,-8.5536,-9.2011,-10.3471,-10.9731,-11.4255,-11.7301,-12.0489,-12.2214,-12.239,-12.2368,-12.2803,-12.3803,-12.3897,-12.5607,-12.8621,-12.9677,-12.9604,-12.8582,-12.8764,-12.9164,-12.9488,-12.5949,-12.0495,-11.3779,-10.9032,-10.7009,-10.8065,-11.7678,-12.5096,-13.031,-12.9806,-12.7702,-12.4969,-12.3117,-11.2214,-9.9502,-9.6852,-8.9601,0.0,0.0,-9.804,-10.304,-11.4399,-11.919,-12.1713,-12.3873,-12.5019,-12.5172,-12.3491,-12.1933,-11.8721,0.0,-10.7485,-10.1887,-9.1881,0.0,-8.6648,-8.1498,-9.0184,-9.8777,-10.2514,-11.2996,-12.028,-12.0768,-12.0313,-11.9809,-11.9375,-11.8431,-11.7528,-11.653,-11.3333,-11.0878,-10.9979,-10.3959,-9.5901,-8.5737,-7.8396,0.0,0.0,0.0,0.0,0.0,0.0,0.0,0.0,0.0,0.0,0.0,0.0,0.0,0.0,0.0,0.0,0.0,0.0,0.0,0.0,0.0,0.0,0.0,0.0,0.0,0.0,0.0,0.0,-9.4864,-7.951,0.0,0.0,-7.5602,-8.2476,-9.3822,-9.8803,-10.5141,-11.3726,-11.753,-11.9967,-12.0924,-12.1964,-12.2516,-12.2549,-12.3217,-12.5113,-12.8171,-12.7455,-12.7714,-12.8732,-12.9204,-12.9148,-12.8803,-12.9348,-12.9599,-12.9706,-12.8512,-12.5288,-12.1291,-12.2268,-12.3163,-12.4101,-12.6001,-12.8591,-13.0854,-12.9688,-12.8309,-12.615,-12.14,-11.5112,-10.9303,-10.8719,-10.6208,-10.458,-10.9787,-11.2386,-11.4887,-12.0402,-12.2774,-12.4229,-12.519,-12.5782,-12.5706,-12.4389,-12.3357,-12.1619,-11.8294,-11.0192,-10.2193,-9.6898,-9.1705,-8.7,-8.3259,-8.8361,-9.5222,-10.2301,-10.8398,-11.4302,-12.0147,-12.0236,-11.9731,-11.922,-11.8398,-11.6826,-11.4374,-11.3116,-11.1311,-10.8885,-10.5699,-10.1165,-9.5221,-8.7156,-7.4383,0.0,0.0,0.0,0.0,0.0,0.0,0.0,0.0,0.0,0.0,0.0,0.0,0.0,0.0,0.0,0.0,0.0,0.0,0.0,0.0,0.0,0.0,0.0,0.0,0.0,0.0,-7.5104,-10.0204,-9.5533,-9.1234,-9.3706,-9.675,-10.058,-10.5654,-10.9542,-11.3951,-11.931,-12.1543,-12.2586,-12.2653,-12.2587,-12.2579,-12.2601,-12.5048,-12.7673,-13.0457,-12.9274,-12.8806,-12.8839,-12.875,-12.8876,-12.9155,-12.9571,-12.9781,-12.9794,-12.9861,-12.8482,-12.6737,-12.8915,-13.0256,-13.0844,-12.8602,-12.9092,-13.0605,-12.928,-12.858,-12.7159,-12.1612,-11.8634,-11.7231,-11.7318,-11.7322,-11.7849,-11.9879,-12.1237,-12.2188,-12.37,-12.4667,-12.5531,-12.6185,-12.6165,-12.5859,-12.5077,-12.4083,-12.2992,-12.1504,-11.3967,-10.6292,-10.0899,-9.5814,-9.0868,-8.6047,-8.7819,-9.1965,-9.8425,-10.3496,-10.8725,-11.4677,-11.7598,-11.8798,-11.8363,-11.5014,-11.1721,-10.8885,-10.5,-10.1827,-9.9319,-9.7032,-9.462,-9.2034,-8.1706,-6.9976,-5.7156,0.0,0.0,0.0,0.0,0.0,0.0,0.0,0.0,0.0,0.0,0.0,0.0,0.0,0.0,0.0,0.0,0.0,0.0,0.0,0.0,0.0,0.0,0.0,-5.3622,-7.3596,-9.6259,-11.0744,-11.2474,-11.1411,-10.8633,-10.5961,-10.8248,-11.7464,-11.8235,-11.9491,-12.2354,-12.2636,-12.2651,-12.2642,-12.2722,-12.2741,-12.2792,-12.7889,-13.0541,-13.0445,-12.9351,-12.8878,-12.8738,-12.884,-12.9188,-12.9845,-12.977,-12.9794,-12.9777,-12.9777,-12.9777,-12.9777,-12.9917,-12.9841,-12.9689,-12.8271,-12.9067,-13.0565,-12.9104,-12.8788,-12.8339,-12.4635,-12.3292,-12.3098,-12.1961,-12.1992,-12.2351,-12.2886,-12.3927,-12.4787,-12.4787,-12.5287,-12.6013,-12.6853,-12.6395,-12.5783,-12.5783,-12.4484,-12.3109,-12.2192,-12.0663,-11.6187,-10.5599,-10.3812,-10.0557,-9.1342,-9.0256,0.0,-9.1631,-9.9024,-10.4406,-10.479,-11.2305,-11.7038,-11.6281,-10.8178,-10.2491,-10.078,-9.0078,-8.3498,-8.2767,-7.9604,-7.7528,-7.6651,-6.3052,-5.3743,-4.9023,0.0,0.0,0.0,0.0,0.0,0.0,0.0,0.0,0.0,0.0,0.0,0.0,0.0,0.0,0.0,0.0,0.0,0.0,0.0,0.0,0.0,0.0,-9.3748,-8.4031,-9.2778,-10.3303,-11.1337,-11.426,-11.426,-11.1565,-11.3155,-11.6149,-12.091,-12.1455,-12.1673,-12.2642,-12.2642,-12.2584,-12.2649,-12.4731,-12.6753,-12.8295,-12.9803,-13.0053,-12.9351,-12.895,-12.8878,-12.884,-12.9344,-12.9631,-12.977,-12.9796,-12.9789,-12.9777,-12.9777,-12.9777,-12.9853,-13.0958,-13.1616,-13.1682,-13.0798,-12.9986,-12.9739,-13.0783,-12.9615,-12.7418,-12.6781,-12.5667,-12.4735,-12.5247,-12.4981,-12.4584,-12.5206,-12.5646,-12.5794,-12.5794,-12.5969,-12.6068,-12.6262,-12.6221,-12.5914,-12.5,-12.4542,-12.391,-12.2268,-12.158,-11.9955,-11.5778,-11.4602,-11.0944,-10.1322,-9.9928,0.0,-10.0707,-10.2581,-10.4098,-10.4812,-11.213,-11.3784,-10.639,-10.7762,-10.7918,-10.5,-10.0668,-9.7589,-9.6109,-9.462,-9.3458,-9.2797,-7.9995,-7.2168,0.0,0.0,0.0,0.0,0.0,0.0,0.0,0.0,0.0,0.0,0.0,0.0,0.0,0.0,0.0,0.0,0.0,0.0,0.0,0.0,0.0,0.0,-8.6978,-10.1521,-10.1021,-10.3649,-10.8128,-11.4645,-11.604,-11.5916,-11.4298,-11.7627,-12.0617,-12.2416,-12.2647,-12.2651,-12.2578,-12.2642,-12.3209,-12.4511,-12.7146,-12.8944,-12.9821,-12.9792,-12.9443,-12.8766,-12.8839,-12.8839,-12.8779,-12.9525,-12.9773,0.0,-12.9789,-12.9777,-12.9777,-12.9322,-12.9999,0.0,0.0,0.0,0.0,0.0,-13.093,-13.0403,-13.0786,-12.9801,-12.826,-12.8028,-12.7224,-12.6413,-12.6681,-12.6393,-12.5951,-12.6235,-12.6231,-12.6231,-12.6231,-12.6177,-12.6199,-12.6471,-12.6242,-12.6012,-12.5689,-12.5077,-12.4293,-12.2803,0.0,0.0,-12.0044,-11.6147,-11.0028,-10.027,-9.8681,-9.8578,0.0,-10.1533,-10.372,-10.4489,-11.15,-11.3828,-10.787,-10.6402,0.0,0.0,0.0,-9.1567,-8.9166,-8.843,0.0,0.0,0.0,0.0,0.0,0.0,0.0,0.0,-5.5777,-5.6151,0.0,0.0,0.0,0.0,0.0,0.0,0.0,0.0,0.0,0.0,0.0,0.0,0.0,0.0,0.0,0.0,-10.1257,-10.5716,-10.8327,-10.9266,-11.2077,-11.8267,-11.764,-11.6651,-11.7051,-12.056,-12.2651,-12.2651,-12.2509,-12.2573,-12.2567,0.0,0.0,0.0,0.0,-12.9912,-12.8838,-12.8832,-12.8766,-12.8766,-12.876,-12.8833,-12.8821,-12.9507,-12.9581,-12.9322,-12.9625,-12.9701,-12.9468,-12.8488,-13.0214,-13.368,-13.4897,-13.3611,-13.1178,-13.1505,-13.1709,0.0,0.0,0.0,0.0,-12.8646,-12.8073,-12.7876,-12.7294,-12.7153,-12.686,-12.649,-12.6407,-12.6407,-12.6407,-12.6297,-12.6318,-12.716,-12.6511,-12.6013,-12.6777,-12.5707,-12.4408,-12.3528,-12.2371,-12.1331,-12.0313,-11.3339,-10.487,-9.6085,-9.4442,0.0,-9.409,-10.0234,-10.4363,-10.4062,0.0,0.0,-11.3662,-10.4597,-9.802,-9.5596,-8.5332,-7.8168,-7.543,-7.4737,-7.4199,-7.3507,-7.3535,-7.3663,-7.3603,-7.4206,-7.7767,-8.3541,-6.971,-6.5506,0.0,0.0,0.0,0.0,0.0,0.0,0.0,0.0,0.0,0.0,0.0,0.0,0.0,0.0,0.0,-9.7212,-10.7052,-11.1079,-11.1404,-11.6296,-11.9089,-11.7252,-11.6726,-11.7865,-12.1032,-12.2055,-12.2558,-12.2647,-12.2573,-12.2567,-12.2567,-12.4992,0.0,-12.7224,-12.9327,-12.9984,-12.8799,-12.876,-12.8832,-12.8832,0.0,0.0,-12.8821,-12.9507,-12.8299,-12.5924,-12.864,-12.9316,-12.8412,-12.773,-13.0122,-13.424,-13.5166,-13.3423,-13.0702,-13.3119,-13.2093,-12.9651,-13.0242,-12.9884,-12.918,-12.952,-12.9315,-12.9016,-12.9309,-12.8739,0.0,-12.7945,-12.7906,-12.7906,-12.7906,-12.737,-12.6912,-12.7141,-12.6529,-12.5783,-12.6013,-12.5783,-12.519,-12.4008,-12.362,-12.2713,-12.0358,-11.831,-11.5895,-11.2884,-11.2425,-11.219,-11.1864,-11.3177,-11.131,-10.3975,-11.0515,-11.1926,-10.3115,-10.4467,-10.512,-10.3307,-9.841,-9.5642,-9.5589,-9.455,-9.394,-9.4177,-9.3129,-9.2431,-9.2161,-9.2278,-9.3388,-9.5118,-8.405,-8.2277,0.0,0.0,0.0,0.0,0.0,0.0,0.0,0.0,0.0,0.0,0.0,-6.9127,-7.0523,0.0,-8.4982,-10.3053,-10.8437,-11.0814,-11.228,-11.8225,-12.1811,-11.9769,-11.9554,-12.0317,-12.2344,-12.2626,-12.2604,-12.2642,-12.2567,-12.3256,-12.4785,-12.6403,-12.7176,-12.714,-12.8786,-12.942,-12.8766,-12.876,-12.8791,-12.8791,-12.8791,-12.8979,-12.9266,-12.9655,-12.8907,-12.7433,-12.9095,-12.917,-12.8261,-13.0578,-13.1606,-13.1888,-13.5259,-13.5352,-13.3536,-13.3383,-13.2071,-13.0204,-12.989,-12.9442,-12.8963,-12.9857,-13.0108,-12.9912,-12.9998,-12.9627,-12.9055,-12.8634,-12.8423,-12.8423,-12.8423,-12.8117,-12.7811,-12.7926,-12.7199,-12.6434,-12.6154,-12.5824,-12.5083,-12.3837,-12.3395,-12.2733,-12.0917,-11.9886,-11.8981,-11.7886,-11.7675,-11.7641,-11.7429,-11.6969,-11.4979,-11.0384,-11.2806,-11.2577,-10.7208,-10.7807,-10.7582,-10.5402,-10.357,-10.2078,-10.1017,-10.0468,-9.996,-9.9514,-9.9097,-9.896,-9.9228,-9.9607,-9.9986,-10.0289,-9.5122,-9.4424,0.0,0.0,0.0,0.0,0.0,0.0,0.0,0.0,-6.6746,-8.8433,-9.3935,-9.5885,-9.8637,-10.0488,-10.3007,-10.7434,-10.8665,-11.0009,-11.3089,-11.8772,-12.2597,-12.2556,-12.2633,-12.268,-12.268,-12.2682,-12.2849,-12.3331,-12.3538,-12.4571,-12.7148,-12.7248,-12.737,-12.7437,-12.8306,-12.8773,-12.8839,-12.876,-12.8502,-12.7922,-12.8502,-12.8906,-12.921,-12.9581,-12.9356,-12.8943,-12.9619,-12.9461,-12.8854,-13.3195,-13.3008,-13.035,-13.5046,-13.6657,-13.6251,-13.3782,-13.2296,-13.137,-12.9985,-12.9364,-12.9409,-13.0219,-13.0605,-13.0586,-13.0328,-13.0163,-13.001,-12.9227,-12.8864,-12.8864,-12.8864,-12.8787,-12.8691,-12.8608,-12.7808,-12.6812,-12.6321,-12.5597,-12.4685,-12.3511,-12.3047,-12.2528,-12.1599,-12.0522,-11.9474,-11.8383,-11.8071,-11.7933,-11.781,-11.7208,-11.6734,-11.6288,-11.4999,-11.4107,-11.3801,-11.132,-10.8666,-10.6363,-10.5802,-10.4481,-10.241,-10.2002,-10.1475,-10.0795,-10.0936,-10.1371,-10.228,-10.2942,-10.3321,-10.3321,-10.3321,-10.2563,-7.7305,-7.801,-7.3011,-8.1446,-8.0981,-7.8374,0.0,0.0,-8.9194,-9.6021,-9.8373,-10.0054,-10.2852,-10.5584,-10.7456,-10.8013,-11.0355,-11.3259,-11.6871,-12.0311,-12.2651,-12.263,-12.2636,-12.2567,-12.2567,-12.2573,-12.3686,-12.6468,-12.667,-12.6733,-12.7217,-12.7247,-12.752,-12.8642,-12.8663,-12.8773,-12.876,-12.876,-12.7415,-12.4547,-12.7375,-12.8248,-12.7187,-12.8838,-12.8,-12.5539,-12.8906,-13.0322,-13.0246,-13.1529,-13.246,-13.3249,-13.3608,-13.4736,-13.5853,-13.5128,-13.3707,-13.2141,-13.1705,-13.1087,-13.0591,-13.0605,-13.0744,-13.1026,-13.1046,-13.0988,-13.0912,-13.0581,-13.0445,-13.0445,-13.0445,-12.9986,-12.917,-12.8053,-12.7079,-12.6226,-12.5017,-12.4634,-12.444,-12.3808,-12.3742,-12.3309,-12.1987,-12.1715,-12.111,-11.9396,-11.8538,-11.7732,-11.7009,-11.6872,-11.6222,-11.4674,-11.4435,-11.3717,-11.2179,-11.1668,-11.1006,-10.9873,-10.8121,-10.7425,-10.8237,-10.5524,-10.4759,-10.6549,-10.5595,-10.5588,-10.6345,-10.6598,-10.6732,-10.6732,-10.6732,-10.514,-7.0244,-6.2892,-6.0577,0.0,-8.5915,-9.0812,-9.055,-9.3621,-9.7449,-10.0797,-10.1896,-10.3003,-10.5943,-10.7439,-10.8146,0.0,-11.0521,-11.3633,-11.7587,-12.0762,-12.2651,-12.2656,-12.2586,-12.2584,-12.2578,-12.2642,-12.3193,-12.4371,-12.6195,-12.7247,-12.7174,-12.7153,-12.7764,-12.877,-12.7051,-12.6846,-12.8832,-12.7922,-12.7158,-12.6796,-12.7447,-12.8029,-12.8227,-12.8301,-12.8084,-12.7736,-13.0113,-13.1225,-13.1453,-13.2981,-13.3897,-13.459,-13.5107,-13.5767,-13.628,-13.5306,-13.4091,-13.2993,-13.2071,-13.164,-13.1376,-13.0923,-13.0909,-13.118,-13.1065,-13.1141,-13.1141,-13.1006,-13.0887,-13.0751,-13.0871,-13.0581,-13.0011,-12.892,-12.7891,-12.6753,-12.5275,-12.4521,-12.3963,-12.3488,-12.3458,-12.3269,-12.2728,-12.2201,-12.1536,-12.0225,-11.8912,-11.7911,-11.7497,-11.6162,-11.483,-11.3563,-11.3496,-11.3272,-11.2604,-11.2514,-11.1822,-11.0187,-10.9283,-10.8482,-10.7875,-10.6611,-10.6247,-10.736,-10.6884,-10.6918,-10.7221,-10.728,-10.7339,-10.7339,-10.7339,-10.6505,-5.7227,0.0,0.0,-7.536,-8.9912,-9.9411,-9.8202,-10.0256,-10.287,-10.4665,-10.4563,-10.4997,-10.7783,-10.821,-10.8187,-10.8269,-11.0592,-11.3625,-11.7617,-11.9987,-12.1063,-12.0164,-12.0095,-12.0441,-12.1267,-12.216,-12.298,-12.3737,-12.5923,-12.7318,-12.7598,-12.7693,-12.755,-12.7479,-12.6082,-12.596,-12.756,-12.6289,-12.6289,-12.7487,-12.7343,-12.7663,-12.8392,-12.787,-12.8653,-13.0296,-13.1692,-13.265,-13.3313,-13.4799,-13.5587,-13.6047,-13.6503,-13.6843,-13.695,-13.5663,-13.4676,-13.3804,-13.2704,-13.2098,-13.1713,-13.1103,-13.1006,-13.1046,-13.1006,-13.1006,-13.1006,-13.1006,-13.0887,-13.0751,-13.0947,-13.0835,-13.0295,-12.9003,-12.798,-12.6953,-12.507,-12.4061,-12.3488,-12.3273,-12.3214,-12.3214,-12.3214,-12.2471,-12.1693,-12.1078,-11.9334,-11.7872,-11.7716,-11.5763,-11.4165,-11.3396,-11.3489,-11.3581,-11.3425,-11.2992,-11.2112,-11.0271,-10.9315,-10.8251,-10.7104,-10.672,-10.6782,-10.7204,-10.7321,-10.7624,-10.7886,-10.7794,-10.7852,-10.8021,-10.8021,-10.8021,0.0,0.0,-7.7053,-8.9513,-9.8276,-10.3799,-10.3802,-10.5947,-10.8038,-10.8062,-10.5948,-10.4858,-10.7617,-10.8187,-10.8231,-10.8281,-11.0584,-11.3755,-11.7562,-11.8147,-11.7268,-11.4111,-11.3906,-11.5001,0.0,-12.0924,-12.3829,-12.6809,-12.704,-12.7664,-12.8646,-12.8802,-12.7313,-12.4256,-12.7075,-12.7131,-12.4263,-12.408,-12.4118,-12.4228,-12.655,-12.7066,-12.5955,-12.7381,-12.931,-13.1616,-13.3453,-13.5001,-13.5964,-13.6219,-13.7197,-13.8501,-13.685,-13.6814,-13.7732,-13.681,-13.5745,-13.4371,-13.4128,-13.2922,-13.1513,-13.118,-13.1024,-13.0751,-13.0827,-13.0827,-13.0827,-13.0827,-13.0827,-13.0827,-13.0827,-13.047,-12.9739,-12.7567,-12.6748,-12.5897,-12.3701,-12.3214,-12.3214,-12.3214,-12.3214,-12.3214,-12.3214,-12.2488,-12.1869,-12.1869,-11.9687,-11.7679,-11.689,-11.5999,-11.5127,-11.4317,-11.4863,-11.5097,-11.4161,-11.3068,-11.1982,-11.1132,-10.8054,-10.6518,-10.7027,-10.5991,-10.5909,-10.7025,-10.7492,-10.8328,-10.9446,-10.899,-10.9048,-10.9689,-10.9689,-10.9689,-4.7328,0.0,-8.5117,-9.7376,-10.2237,-10.3995,-10.4058,-10.4689,-10.5425,-10.5425,-10.6182,-10.7145,-10.7979,-10.8167,-10.8178,-10.8231,-11.2637,-11.6539,-11.786,-11.8152,-11.6992,-11.4037,-11.1787,0.0,0.0,0.0,0.0,-12.4032,-12.5982,-12.7047,-12.6765,-12.803,-12.7322,-12.4178,-12.6434,-12.6836,-12.5131,-12.5348,-12.5677,-12.5604,-12.7197,-12.7465,-12.6564,-12.8438,-12.9619,-13.0517,-13.2702,-13.3869,-13.4389,-13.6008,-13.7194,-13.806,-13.7041,-13.7118,-13.7579,-13.6196,-13.5021,-13.4022,-13.3859,-13.3091,-13.2016,-13.1276,-13.1083,-13.1006,-13.1006,-13.0887,-13.0658,-13.0449,-13.0586,-13.0605,-12.9479,-12.9325,-12.8833,-12.636,-12.6121,-12.577,-12.3721,-12.3604,-12.3994,-12.3994,-12.3604,-12.3173,-12.3204,-12.2473,-12.1521,-12.0311,-11.8872,-11.7487,-11.6063,-11.5689,-11.5421,-11.5127,-11.4119,-11.3281,-11.297,-11.1417,-10.9926,-10.8818,-10.7104,-10.6084,-10.604,-10.5613,-10.5787,-10.6733,-10.73,-10.7963,-10.8328,-10.8212,-10.8384,-10.9048,-10.8556,-10.8878,-6.5617,-8.0035,-9.5758,-10.3554,-10.5487,-10.5551,-10.5531,-10.5531,-10.5573,-10.5528,-10.605,-10.3528,-9.317,-9.118,-9.459,-10.495,-11.3144,-11.8079,-11.8142,-11.8093,-11.7814,-11.6841,-11.2259,-10.9471,0.0,0.0,0.0,-12.0856,-12.3795,-12.5863,-12.6845,-12.7406,-12.7125,-12.586,-12.5966,-12.6,-12.5894,-12.5677,-12.6077,-12.706,-12.7944,-12.8392,-12.8704,-12.949,-13.0312,-13.1102,-13.255,-13.393,-13.5105,-13.6942,-13.815,-13.8598,-13.7864,-13.7941,-13.8003,-13.6294,-13.503,-13.4149,-13.3536,-13.2712,-13.1812,-13.1159,-13.1006,-13.1006,-13.1141,-13.0893,-13.047,-13.0052,-12.9924,-12.9616,-12.8304,-12.8036,-12.7495,-12.5732,-12.572,-12.5667,-12.3955,-12.3994,-12.4383,-12.4383,-12.3502,-12.2722,-12.2718,-12.1768,-12.0468,-11.9116,-11.8391,-11.7495,-11.614,-11.62,-11.6278,-11.5967,-11.5035,-11.3995,-11.2993,-11.1177,-10.9437,-10.7567,-10.6322,-10.5403,-10.5128,-10.5357,-10.5918,-10.6625,-10.7188,-10.7721,-10.817,-10.7615,-10.7713,-10.8384,-10.7887,-10.8212,-9.7321,-10.4242,-10.8112,-10.821,-10.8097,-10.8188,-10.8188,-10.8165,-10.8281,-10.8038,-10.5674,-9.4862,0.0,0.0,-6.9511,-9.7029,-11.0707,-11.7911,-11.8018,-11.8156,-11.9049,0.0,0.0,0.0,0.0,0.0,0.0,-11.7648,0.0,-12.4498,-12.863,-12.6918,-12.6723,-12.8727,-12.5821,-12.4952,-12.6222,-12.4845,-12.5606,-12.8426,-12.8729,-12.9786,-13.1837,-13.0602,-13.1149,-13.3196,-13.3272,-13.5029,-13.7809,-13.8819,-13.9555,-13.9958,-13.9289,-13.8848,-13.8578,-13.6814,-13.5471,-13.4433,-13.2825,-13.1559,-13.0903,-13.0827,-13.0751,-13.0811,-13.0988,-13.0712,-13.0102,-12.9296,-12.8718,-12.8076,-12.7187,-12.6704,-12.615,-12.517,-12.5302,-12.5397,-12.4461,-12.4383,-12.4383,-12.4402,-12.297,-12.1809,-12.1809,-12.0389,-11.9027,-11.8089,-11.7993,-11.7681,-11.698,-11.7525,-11.7681,-11.6806,-11.7429,-11.6572,-11.367,-11.2375,-11.0491,-10.76,-10.5587,-10.4386,-10.4386,-10.5448,-10.604,-10.663,-10.6881,-10.7596,-10.8779,-10.7416,-10.7035,-10.7637,-10.7561,-10.7561,-10.4193,-10.7072,-10.8254,-10.8192,-10.8255,-10.8269,-10.825,-10.8252,-10.7587,-10.5497,-10.2229,-9.0844,0.0,0.0,0.0,-6.5105,-9.3453,0.0,-11.775,-11.8094,0.0,-11.6096,0.0,-11.3621,-11.6703,-11.7014,0.0,0.0,-12.0452,-12.5211,-12.8665,-12.8316,-12.7929,-12.7678,-12.7604,-12.6585,-12.459,-12.5244,-12.7093,-12.9954,-12.9911,-13.0714,-13.2062,-13.144,-13.1527,-13.2041,-13.2905,-13.4526,-13.6602,-13.7173,-13.8095,-13.8961,-13.7788,-13.7194,-13.6814,-13.5127,-13.3785,-13.2825,-13.1635,-13.1422,-13.1668,-13.1176,-13.1006,-13.0988,-13.0718,-13.0537,-13.019,-12.9197,-12.912,-12.8773,-12.6575,-12.6186,-12.5897,-12.4103,-12.4189,-12.4461,-12.3682,-12.4461,-12.5044,-12.3722,-12.2164,-12.0776,-12.0073,-11.9136,-11.8278,-11.7993,-11.7993,-11.7915,-11.7681,-11.7915,-11.7313,-11.5606,-11.5583,-11.4239,-11.0378,-10.9765,-10.8601,-10.6307,-10.5706,-10.5074,-10.4386,-10.5352,-10.5456,-10.5025,-10.5686,-10.622,-10.6503,-10.6045,-10.6299,-10.6883,-10.6376,-10.6706,-10.884,-11.0904,-11.1639,-11.0382,-11.0053,-10.9715,-10.8517,-10.7126,-10.5133,-10.1194,-8.8029,0.0,0.0,0.0,0.0,0.0,0.0,0.0,-11.768,-11.9266,-11.899,0.0,-11.5619,0.0,-11.7924,-11.8357,-11.8223,0.0,-12.1895,-12.592,-12.8659,-12.7493,-12.6405,-12.5788,-12.6405,-12.586,-12.4011,-12.615,-12.8573,-13.1387,-13.123,-13.1628,-13.2729,-13.1984,-13.1899,-13.2334,0.0,-13.451,-13.6545,-13.7073,-13.7765,-13.8424,-13.7227,-13.6503,-13.6124,-13.4379,-13.3344,-13.263,-13.1728,-13.1618,-13.1696,-13.0986,-13.0734,-13.0612,-13.0283,-13.0005,-12.9586,-12.8683,-12.8511,-12.8102,-12.6214,-12.5882,-12.5738,-12.4072,-12.4402,-12.4773,-12.4383,-12.5007,-12.5078,-12.2972,-12.1562,-12.042,-11.9595,-11.8573,-11.8166,-11.846,-11.8227,-11.7993,-11.7993,-11.7993,-11.7566,-11.643,-11.5403,-11.3611,-11.0418,-10.9339,-10.7851,-10.5811,-10.5686,-10.5533,-10.4998,-10.6068,-10.6373,-10.5533,-10.6373,-10.6603,-10.622,-10.5915,-10.5865,-10.635,-10.5865,-10.6121,-11.2228,-11.4712,-11.5861,-11.3557,-11.2909,-11.2094,-10.8887,-10.2458,-9.5507,-9.0712,0.0,-4.9081,-4.6118,-4.5612,-5.7479,-9.4044,0.0,-11.4736,-11.7672,-12.0784,-12.1616,-11.9059,-11.8301,-11.8364,-11.8695,-11.8992,-11.9715,-12.1403,-12.4155,-12.6478,-12.8321,-12.5533,-12.412,-12.441,-12.4373,-12.459,-12.4881,-12.7385,-13.0175,-13.3222,-13.2551,-13.2682,-13.3488,-13.2661,-13.2706,-13.3487,0.0,0.0,-13.7026,-13.7719,-13.8104,-13.7973,-13.6865,-13.6161,-13.5817,-13.411,-13.3165,-13.289,-13.2094,-13.1599,-13.1205,-13.0359,-13.0229,-13.0113,-12.978,-12.9254,-12.8773,-12.8079,-12.7574,-12.7089,-12.617,-12.5936,-12.5624,-12.4689,-12.4888,-12.5319,-12.52,-12.5,-12.4231,-12.2099,-12.1005,-12.0239,-11.9495,-11.8762,-11.8512,-11.9414,-11.8772,-11.8305,-11.8305,-11.8071,-11.7897,-11.7566,-11.6073,-11.4105,-11.1714,-10.988,-10.8004,-10.5811,-10.5686,-10.5686,-10.5686,-10.7214,-10.7672,-10.6908,-10.7825,-10.7825,-10.7061,-10.6297,-10.5915,-10.5915,-10.5686,-10.5686,-11.5746,-11.6075,-11.6393,-11.5903,-11.5847,-11.4522,-10.9365,-8.3182,0.0,0.0,-5.2131,-4.6305,-4.5725,-4.5585,-5.7518,-9.397,0.0,0.0,0.0,0.0,-12.2449,0.0,0.0,0.0,0.0,0.0,0.0,0.0,0.0,0.0,-12.6201,-12.4768,-12.4844,-12.6732,-12.6732,-12.7603,-12.9451,-12.9922,-13.2199,-13.6154,-13.4331,-13.3916,-13.4752,-13.46,-13.4622,-13.4686,0.0,0.0,-13.7634,-13.7788,-13.7941,-13.7711,-13.6119,-13.501,-13.413,-13.2884,-13.1941,-13.1193,-13.0712,-13.0539,-13.0359,-13.0205,-13.0129,-12.9819,-12.9209,-12.9132,-12.9039,-12.8431,-12.8182,-12.791,-12.7089,-12.6291,-12.5493,-12.4689,-12.4108,-12.3407,-12.2683,-12.1461,-12.0624,-12.0933,-11.9631,-11.8678,-11.9289,-11.923,-11.9414,-12.0175,-12.0175,-12.0097,-12.0097,-11.8928,-11.7313,-11.5583,-11.5691,-11.4112,-10.9726,-10.9483,-10.853,-10.5838,-10.5686,-10.5686,-10.5686,-10.6603,-10.7061,-10.6908,-10.7825,-10.8131,-10.7978,-10.7061,-10.6679,-10.6679,-10.5991,-10.5686,-11.6417,-11.648,-11.6417,-11.6486,-11.655,-11.4336,-10.5823,0.0,0.0,0.0,-4.672,-4.5618,-4.5571,0.0,0.0,0.0,0.0,0.0,0.0,0.0,0.0,0.0,0.0,0.0,0.0,0.0,0.0,0.0,0.0,0.0,-12.4812,-12.4365,-12.4626,-12.6441,-12.6441,-12.7565,-12.9556,-12.9702,-13.1436,-13.5195,-13.4209,-13.4178,-13.4953,-13.4953,-13.4985,-13.4973,-13.5376,0.0,-13.7809,-13.7403,-13.748,-13.7579,-13.5449,-13.4045,-13.3282,-13.1764,-13.0794,-13.0075,-13.0006,-12.9688,-12.9508,-12.9508,-12.9352,-12.9242,-12.8728,-12.8673,-12.872,-12.8416,-12.8299,-12.8162,-12.734,-12.6777,-12.6057,-12.4767,-12.3785,-12.2996,-12.2074,-12.1327,-12.0668,-12.068,-11.9673,-11.8871,-11.9339,-11.9386,-11.9587,-12.0487,-12.0565,-12.0565,-12.0565,-11.9863,-11.8969,-11.803,-11.639,-11.4406,-11.1923,-11.0608,-10.9112,-10.711,-10.6985,-10.6985,-10.6985,-10.7825,-10.7978,-10.7596,-10.8437,-10.8589,-10.8207,-10.7825,-10.7596,-10.7596,-10.7214,-10.6985,-11.648,-11.6928,-11.724,-11.6616,-11.6537,-11.3436,-10.1716,-7.34,0.0,0.0,-4.5589,-4.5589,-4.5624,0.0,0.0,0.0,0.0,0.0,0.0,0.0,0.0,0.0,0.0,0.0,0.0,0.0,0.0,0.0,0.0,0.0,-12.4197,-12.4292,-12.4734,-12.5606,-12.5751,-12.7127,-12.9587,-12.9587,-13.123,-13.4328,-13.41,-13.446,-13.5394,-13.5394,-13.5394,-13.5394,-13.5491,0.0,0.0,-13.695,-13.6973,-13.6964,-13.4483,-13.3154,-13.2704,-13.0837,-12.9865,-12.9586,-12.9509,-12.9186,-12.8899,-12.8801,-12.8829,-12.8728,-12.8375,-12.828,-12.828,-12.828,-12.8299,-12.818,-12.734,-12.7011,-12.6326,-12.4409,-12.3108,-12.2169,-12.1484,-12.1377,-12.1088,-12.0326,-11.9705,-11.9464,-11.962,-11.9698,-11.9977,-12.0954,-12.1188,-12.1188,-12.1188,-12.1032,-12.0876,-12.0876,-11.7372,-11.4823,-11.4414,-11.1614,-10.9405,-10.8334,-10.8207,-10.8207,-10.8207,-10.8972,-10.9124,-10.8513,-10.9277,-10.943,-10.8666,-10.8513,-10.8513,-10.8513,-10.8284,-10.8207,-11.6435,-11.8371,-11.9689,-11.7044,-11.6433,-11.2975,-9.9165,0.0,0.0,-4.5682,-4.5607,-4.5624,-4.5589,0.0,0.0,0.0,0.0,-6.8592,0.0,0.0,0.0,0.0,0.0,0.0,0.0,0.0,0.0,0.0,0.0,0.0,0.0,-12.5059,-12.5533,-12.5606,-12.6549,-12.8646,-13.172,-13.1794,-13.341,-13.66,-13.554,-13.5726,-13.6589,-13.6589,-13.6589,-13.6666,0.0,0.0,0.0,-13.6974,-13.6411,-13.5305,-13.3164,-13.216,-13.1732,-13.0152,-12.9582,-12.9548,-12.9132,-12.8947,-12.8773,-12.8486,-12.8396,-12.8338,-12.828,-12.828,-12.828,-12.828,-12.828,-12.8066,-12.7323,-12.6525,-12.5217,-12.2695,-12.0936,-11.9561,-11.9631,-11.9562,-11.9402,-11.8481,-11.8934,-11.9698,-12.04,-12.0522,-12.111,-12.2669,-12.2981,-12.2981,-12.2981,-12.2279,-12.1812,-12.1812,-11.7938,-11.5118,-11.4457,-11.123,-10.8997,-10.8207,-10.8207,-10.8207,-10.8207,-10.8972,-10.943,-10.9277,-11.0118,-11.05,-11.05,-10.9736,-10.9277,-10.9277,-10.8513,-10.8207,-11.6423,-11.724,-11.7919,-11.6742,-11.5327,-11.1324,-10.062,0.0,-4.5604,-4.5609,-4.5624,-4.5624,-4.5607,-4.5607,0.0,0.0,0.0,0.0,0.0,0.0,0.0,0.0,0.0,0.0,0.0,0.0,0.0,0.0,0.0,0.0,0.0,-12.5059,-12.5423,-12.6549,-12.7127,-12.919,-13.3158,-13.2372,-13.3672,-13.6902,-13.5756,-13.5807,-13.6796,-13.6796,-13.6488,-13.6103,0.0,0.0,0.0,-13.627,-13.5822,-13.4896,-13.303,-13.1713,-13.0779,-12.9574,-12.8963,-12.8752,-12.8571,-12.8517,-12.8463,-12.8396,-12.828,-12.828,-12.828,-12.828,-12.828,-12.828,-12.828,-12.8124,-12.7286,-12.5563,-12.3487,-12.1014,-11.982,-11.9215,-11.8587,-11.8528,-11.8495,-11.8106,-11.8729,-11.9431,-11.9821,-12.0739,-12.1578,-12.2279,-12.2903,-12.3214,-12.3214,-12.2903,-12.2241,-12.0866,-11.8305,-11.6282,-11.5343,-11.2723,-11.1028,-11.05,-11.05,-11.05,-11.05,-11.0806,-11.0729,-11.0194,-11.05,-11.0729,-11.0729,-11.0423,-11.0194,-11.0194,-10.9889,-10.9659,-11.6266,-11.6571,-11.6563,-11.6541,-11.523,-11.1584,0.0,-7.175,-4.5648,-4.5632,-4.5624,-4.5624,-4.5624,-4.5624,-4.5607,0.0,0.0,-5.2385,0.0,0.0,0.0,0.0,0.0,0.0,0.0,0.0,0.0,0.0,0.0,0.0,0.0,-12.5417,-12.549,-12.633,-12.7273,-12.9398,-13.2816,-13.2963,-13.4201,-13.6511,-13.5709,-13.5581,-13.6103,-13.6103,-13.5719,-13.518,0.0,0.0,0.0,-13.557,-13.512,-13.4,-13.2478,-13.1091,-12.989,-12.9012,-12.8517,-12.828,-12.828,-12.828,-12.828,-12.828,-12.828,-12.828,-12.828,-12.828,-12.828,-12.828,-12.7694,-12.7028,-12.6404,-12.4123,-12.1636,-11.9724,-11.9127,-11.8691,-11.8106,-11.8227,-11.8305,-11.8071,-11.8928,-11.9707,-11.9707,-12.0876,-12.1968,-12.2201,-12.2825,-12.3137,-12.2825,-12.2981,-12.2376,-12.0352,-11.8488,-11.6701,-11.5319,-11.3416,-11.2273,-11.1952,-11.2181,-11.241,-11.241,-11.241,-11.2105,-11.1493,-11.1417,-11.1264,-11.1111,-11.1111,-11.0958,-11.0729,-11.0729,-11.0296,-11.5754,-11.6458,-11.6476,-11.6528,-11.7267,-11.4907,-10.2657,-7.1745,-4.5615,-4.5621,-4.5624,-4.5624,-4.5624,-4.5624,-4.5624,-4.5589,0.0,0.0,0.0,0.0,0.0,0.0,0.0,0.0,0.0,0.0,0.0,0.0,0.0,0.0,0.0,-12.6553,-12.5981,-12.4083,-12.72,-12.9439,-13.0473,-13.3733,-13.5376,-13.5578,-13.5578,-13.5105,-13.4334,-13.4334,-13.4334,0.0,0.0,0.0,0.0,-13.5007,-13.3998,-13.2178,-13.1295,-13.0074,-12.8928,-12.8509,-12.828,-12.828,-12.828,-12.828,-12.828,-12.828,-12.828,-12.828,-12.828,-12.828,-12.828,-12.828,-12.6374,-12.4367,-12.4367,-12.1874,-11.9311,-11.9311,-11.8587,-11.7993,-11.7993,-11.8694,-11.9006,-11.8227,-11.9396,-12.0565,-12.0565,-12.1266,-12.2201,-12.3137,-12.3214,-12.2903,-12.1968,-12.2669,-12.2513,-12.0798,-11.8432,-11.6092,-11.4032,-11.2685,-11.2028,-11.2028,-11.2716,-11.3174,-11.3174,-11.3174,-11.3174,-11.3174,-11.3174,-11.2792,-11.2028,-11.2028,-11.1493,-11.0729,-11.0729,-10.9475,-10.9517,-11.8506,-12.0688,-12.075,-11.9335,-11.0221,-8.0071,-5.8818,-4.5619,-4.5642,-4.5624,-4.5624,-4.5624,-4.5624,-4.5624,-4.5589,-4.6511,0.0,0.0,0.0,0.0,0.0,0.0,0.0,0.0,0.0,0.0,0.0,0.0,0.0,0.0,0.0,-12.6788,-12.6786,-12.8484,-13.0176,-13.2089,-13.3043,-13.3915,-13.4661,-13.4686,-13.4637,-13.4334,-13.4334,0.0,0.0,0.0,0.0,0.0,-13.4398,-13.3339,-13.127,-13.1023,-12.9876,-12.8486,-12.8338,-12.828,-12.828,-12.828,-12.828,-12.828,-12.828,-12.828,-12.8222,-12.7559,-12.7431,-12.7222,-12.5965,-12.4976,-12.3977,-12.2263,-12.0987,-11.9917,-11.8729,-11.8184,-11.7993,-11.7993,-11.8227,-11.8305,-11.8071,-11.8928,-11.9707,-11.9707,-12.0409,-12.111,-12.1422,-12.1422,-12.15,-12.189,-12.2123,-12.1166,-11.8404,-11.738,-11.6588,-11.5977,-11.3489,-11.2487,-11.3633,-11.3862,-11.4091,-11.4091,-11.4091,-11.3786,-11.3174,-11.3174,-11.3098,-11.2792,-11.2334,-11.157,-11.0729,-11.0729,-10.9398,-9.0262,-9.7366,-9.7341,-9.7407,-9.5991,-8.8304,-6.4375,-5.1977,-4.5631,-4.5591,-4.5624,-4.5624,-4.5624,-4.5624,-4.5624,-4.5837,-4.6931,0.0,0.0,0.0,0.0,0.0,0.0,0.0,0.0,0.0,0.0,0.0,0.0,0.0,0.0,0.0,-12.7947,-12.8966,-12.966,-13.0814,-13.213,-13.2858,-13.3502,-13.3862,-13.3791,-13.3564,-13.3333,-13.3407,0.0,0.0,0.0,0.0,0.0,-13.4087,-13.3007,-13.093,-13.093,-12.9839,-12.828,-12.828,-12.828,-12.828,-12.828,-12.828,-12.8222,-12.7886,-12.7559,-12.7167,-12.6309,-12.5996,-12.5913,-12.5075,-12.3983,-12.2724,-12.1435,-12.0376,-11.9302,-11.834,-11.7993,-11.7993,-11.7993,-11.7993,-11.7993,-11.7993,-11.8694,-11.9318,-11.9318,-12.0019,-12.0565,-12.0565,-12.0565,-12.0721,-12.0876,-12.0819,-11.9783,-11.7399,-11.6588,-11.6325,-11.6634,-11.4056,-11.3022,-11.4397,-11.4779,-11.5008,-11.5008,-11.5008,-11.4703,-11.4168,-11.4115,-11.3908,-11.3603,-11.2381,-11.1518,-11.0729,-11.0729,-10.8986,0.0,-6.0144,-5.5719,-5.5653,-5.5702,-5.5631,-5.5411,-5.0305,0.0,-4.5642,-4.5676,-4.5676,-4.5676,-4.5676,-4.583,-4.6198,0.0,0.0,0.0,0.0,0.0,0.0,0.0,0.0,0.0,0.0,0.0,0.0,0.0,0.0,0.0,0.0,0.0,-13.0506,-13.0924,-13.1145,-13.1149,-13.3147,-13.3708,-13.2872,-13.2872,-13.2487,-13.1691,-13.1949,0.0,0.0,0.0,0.0,0.0,-13.3912,-13.2877,-13.093,-13.0774,-12.9839,-12.828,-12.828,-12.828,-12.828,-12.8222,-12.8222,-12.8102,-12.7234,-12.6309,-12.5389,-12.4566,-12.4278,-12.4531,-12.5078,-12.3028,-12.0707,-12.141,-11.9835,-11.7993,-11.7993,-11.7993,-11.7993,-11.7993,-11.7993,-11.7993,-11.7993,-11.8694,-11.9162,-11.9162,-11.9863,-12.0409,-12.0312,-12.0312,-12.0001,-11.9202,-11.8796,-11.8305,-11.75,-11.6015,-11.5407,-11.6208,-11.4476,-11.3709,-11.4474,-11.5314,-11.5773,-11.5696,-11.5849,-11.5795,-11.5849,-11.5609,-11.5096,-11.4104,-11.2579,-11.1412,-11.0729,-11.0729,-10.8156,-4.9754,0.0,-5.5697,-5.5723,-5.5731,-5.5064,0.0,-4.8609,-4.5683,-4.6084,-4.6141,-4.6141,-4.6141,-4.6141,-4.615,0.0,0.0,0.0,0.0,0.0,0.0,0.0,0.0,0.0,0.0,0.0,0.0,0.0,0.0,0.0,0.0,0.0,0.0,-13.1397,-13.1499,-13.1601,-13.1621,-13.208,-13.2178,-13.2025,-13.2025,-13.2021,-13.1994,-13.2083,0.0,0.0,0.0,0.0,-13.3912,-13.3003,-13.1902,-13.0774,-13.0229,-12.9215,-12.828,-12.828,-12.828,-12.8222,-12.7495,-12.73,-12.7156,-12.6309,-12.5388,-12.4566,-12.3683,-12.3466,-12.3231,-12.2125,-12.0665,-11.9464,-11.8996,-11.8495,-11.7993,-11.7993,-11.7993,-11.7993,-11.7993,-11.7993,-11.7993,-11.7993,-11.8227,-11.8305,-11.8305,-11.8538,-11.8326,-11.7372,-11.7192,-11.7116,-11.6577,-11.6483,-11.6392,-11.6434,-11.5572,-11.5485,-11.6406,-11.5108,-11.4474,-11.5391,-11.6122,-11.6275,-11.5696,-11.6698,-11.7098,-11.6601,-11.6355,-11.5288,-11.3342,-11.2884,-11.1946,-11.0729,-11.0729,-10.8784,-4.5629,-4.826,-5.1047,-5.1067,-5.1236,-5.089,-4.9064,-4.7276,-4.5973,-4.6215,0.0,0.0,0.0,0.0,0.0,0.0,0.0,0.0,0.0,0.0,0.0,0.0,0.0,0.0,0.0,0.0,0.0,0.0,0.0,0.0,0.0,0.0,0.0,0.0,-13.1501,-13.1717,-13.1773,-13.1717,-13.1718,-13.1718,-13.1501,-13.1376,-13.1508,-13.1404,0.0,0.0,0.0,0.0,-13.329,-13.2914,-13.2021,-13.093,-13.0384,-12.9371,-12.828,-12.828,-12.8024,-12.7637,-12.7156,-12.622,-12.5078,-12.4214,-12.338,-12.258,-12.2111,-12.1721,-12.1318,-12.0834,-11.9707,-11.8772,-11.9084,-11.8616,-11.8071,-11.8538,-11.8305,-11.7993,-11.7993,-11.7993,-11.8071,-11.8538,-11.8616,-11.8423,-11.7875,-11.7775,-11.7216,-11.5629,-11.5414,-11.5585,-11.6011,-11.5592,-11.558,-11.6483,-11.6058,-11.5903,-11.6467,-11.626,-11.6164,-11.6621,-11.7022,-11.7098,-11.6698,-11.7364,-11.7381,-11.6544,-11.6485,-11.5419,-11.3423,-11.3423,-11.2621,-11.1083,-10.9997,-10.8084,-4.5736,-4.5676,-4.5935,-4.6991,-4.7612,-4.7617,-4.6513,0.0,0.0,0.0,0.0,0.0,0.0,0.0,0.0,0.0,0.0,0.0,0.0,0.0,0.0,0.0,0.0,0.0,0.0,0.0,0.0,0.0,0.0,0.0,0.0,0.0,0.0,0.0,-13.1194,-13.1718,-13.1718,-13.1718,-13.1691,-13.1636,-13.1078,-13.0901,-13.0823,-13.0608,0.0,0.0,0.0,0.0,-13.2099,-13.2567,-13.2099,-13.0852,-13.0618,-12.9469,-12.8102,-12.8084,-12.7495,-12.6816,-12.6519,-12.4921,-12.2874,-12.2015,-12.1162,-12.0565,-12.0409,-11.9863,-11.9396,-12.0019,-11.9084,-11.8305,-11.9785,-11.9084,-11.8227,-11.9084,-11.8616,-11.7993,-11.8227,-11.8071,-11.8227,-11.9006,-11.8969,-11.8575,-11.7582,-11.7317,-11.6624,-11.4624,-11.4509,-11.5012,-11.5972,-11.5394,-11.5494,-11.703,-11.6677,-11.6485,-11.7017,-11.7474,-11.7854,-11.8082,-11.7854,-11.7702,-11.7702,-11.7702,-11.7262,-11.6304,-11.6395,-11.5621,-11.3797,-11.3797,-11.3079,-11.1838,-10.9748,-10.7655,-4.6205,-4.6224,-4.759,-5.3407,-5.4989,-5.3455,-4.7623,-4.6315,0.0,0.0,0.0,0.0,0.0,0.0,0.0,0.0,0.0,0.0,0.0,0.0,0.0,0.0,0.0,0.0,0.0,0.0,0.0,0.0,0.0,0.0,0.0,0.0,0.0,0.0,-13.159,-13.1718,-13.1718,-13.1718,-13.1453,-13.1009,-13.0938,-13.0779,-13.0618,-13.0466,-13.0565,0.0,0.0,-13.1476,-13.2021,-13.0696,-13.0482,-13.0831,-12.9313,-12.809,-12.7266,-12.7167,-12.6597,-12.5702,-12.4282,-12.3019,-12.2021,-12.1085,-12.0678,-12.0487,-11.9707,-11.9396,-11.9162,-11.8616,-11.8227,-11.8071,-11.8305,-11.8227,-11.8227,-11.9084,-11.8616,-11.8227,-11.8928,-11.8538,-11.7993,-11.8227,-11.7683,-11.7258,-11.7073,-11.6593,-11.5682,-11.4246,-11.4908,-11.5115,-11.4278,-11.4755,-11.5822,-11.7321,-11.6256,-11.6501,-11.9077,-11.8217,-11.8127,-11.938,-11.8293,-11.752,-11.7333,-11.7458,-11.7078,-11.6119,-11.6802,-11.603,-11.3797,-11.3797,-11.3401,-11.2585,-11.2166,-11.0617,-4.6314,-5.0376,-5.9147,-7.8031,-6.6761,-5.0212,-4.7029,-6.0419,0.0,0.0,0.0,0.0,0.0,0.0,0.0,0.0,0.0,0.0,0.0,0.0,0.0,0.0,0.0,0.0,0.0,0.0,0.0,0.0,0.0,0.0,0.0,0.0,0.0,0.0,-13.128,-13.1179,-13.0468,-13.0514,-13.0417,-13.0164,-13.0116,-12.9676,-12.9116,-12.9287,-12.9429,-12.9527,0.0,-13.0384,-13.0696,-13.0384,-13.0326,-13.0111,-12.9293,-12.8168,-12.6894,-12.6013,-12.5073,-12.4116,-12.2383,-12.118,-12.0409,-11.9474,-11.9162,-11.9084,-11.8694,-11.8616,-11.8538,-11.8071,-11.7993,-11.8071,-11.8616,-11.8383,-11.8305,-11.9707,-11.9318,-11.8772,-11.9162,-11.9006,-11.8501,-11.7931,-11.7815,-11.7413,-11.5861,-11.5715,-11.5089,-11.3327,-11.3499,-11.3898,-11.4208,-11.4725,-11.5788,-11.7927,-11.7078,-11.7154,-11.9013,-11.8091,-11.7863,-11.9088,-11.847,-11.7863,-11.7269,-11.7408,-11.6953,-11.6056,-11.6511,-11.5892,-11.4284,-11.4284,-11.3965,-11.3249,-11.093,-10.9148,-4.6305,-5.2085,-6.3626,-8.6644,-7.4941,-5.8239,-5.998,-8.0429,-9.2881,0.0,0.0,0.0,0.0,0.0,0.0,0.0,0.0,0.0,0.0,0.0,0.0,0.0,0.0,0.0,0.0,0.0,0.0,0.0,0.0,0.0,0.0,0.0,0.0,0.0,-13.0794,-13.0528,-12.9499,-12.9122,-12.8883,-12.8918,-12.8674,-12.8308,-12.7708,-12.8006,-12.818,-12.828,-12.8982,-12.9371,-12.9605,-13.0073,-13.0014,-12.9565,-12.9194,-12.7834,-12.5923,-12.441,-12.3331,-12.2383,-12.0773,-11.9863,-11.9162,-11.8305,-11.7993,-11.7993,-11.7993,-11.7993,-11.7993,-11.7993,-11.7993,-11.8227,-11.8772,-11.8538,-11.8383,-11.9863,-11.9629,-11.9084,-11.9318,-11.8891,-11.8264,-11.7375,-11.7431,-11.6865,-11.5131,-11.5214,-11.5003,-11.343,-11.3152,-11.3821,-11.5335,-11.5399,-11.622,-11.8569,-11.7724,-11.7269,-11.8027,-11.7572,-11.7496,-11.8027,-11.8027,-11.7572,-11.6814,-11.689,-11.6587,-11.5753,-11.598,-11.5677,-11.4768,-11.4768,-11.4526,-11.3905,-11.0114,-10.8328,-4.6325,-4.6859,-4.8662,-5.3954,-7.3688,-9.3688,-10.0489,-10.4051,-10.4206,-9.8736,0.0,0.0,0.0,0.0,0.0,0.0,0.0,0.0,0.0,0.0,0.0,0.0,0.0,0.0,0.0,0.0,0.0,0.0,0.0,0.0,0.0,0.0,0.0,0.0,0.0,-12.9737,-12.9623,-12.7811,-12.6906,-12.6972,-12.6993,-12.6974,-12.7232,-12.7232,-12.7591,-12.828,-12.8436,-12.8904,-12.9527,-12.8826,-12.9038,-12.9509,-12.7769,-12.5695,-12.338,-12.2381,-12.1518,-12.0661,-11.9707,-11.9396,-11.9162,-11.8305,-11.7993,-11.7993,-11.7993,-11.7993,-11.7993,-11.7993,-11.7993,-11.7993,-11.8071,-11.7993,-11.8227,-11.9162,-11.8694,-11.8305,-11.9084,-11.7775,-11.6416,-11.6339,-11.5437,-11.4656,-11.5214,-11.5195,-11.5404,-11.5795,-11.6092,-11.6534,-11.7438,-11.7111,-11.7463,-11.9203,-11.7508,-11.6208,-11.6284,-11.689,-11.6966,-11.6284,-11.6284,-11.5905,-11.4995,-11.5753,-11.5753,-11.4919,-11.5677,-11.5677,-11.4768,-11.4768,-11.4768,-11.4692,-11.2562,-11.0722,-4.6875,-4.6315,-4.6613,-4.7941,-6.1388,-8.0891,-10.5804,-11.0105,-10.6678,-9.889,-9.3883,0.0,0.0,0.0,0.0,0.0,0.0,0.0,0.0,0.0,0.0,0.0,0.0,0.0,0.0,0.0,0.0,0.0,0.0,0.0,0.0,0.0,0.0,0.0,0.0,-12.6521,-12.6027,-12.528,-12.5181,-12.5438,-12.6482,-12.6716,-12.6311,-12.7418,-12.8006,-12.828,-12.828,-12.8514,-12.8826,-12.8436,-12.8214,-12.7792,-12.6091,-12.4512,-12.3118,-12.2193,-12.1032,-11.9707,-11.9396,-11.8928,-11.8383,-11.8071,-11.7993,-11.7993,-11.7993,-11.7993,-11.7993,-11.7993,-11.7993,-11.7993,-11.7993,-11.7993,-11.8227,-11.9084,-11.9006,-11.8657,-11.8298,-11.7556,-11.6512,-11.4933,-11.4604,-11.4682,-11.4828,-11.5183,-11.5692,-11.6099,-11.6325,-11.6472,-11.6915,-11.6829,-11.6967,-11.7917,-11.6762,-11.5905,-11.5298,-11.5601,-11.5601,-11.5298,-11.5753,-11.5677,-11.4768,-11.5071,-11.5071,-11.4768,-11.5071,-11.5071,-11.4768,-11.4768,-11.4211,-11.3,-11.1096,-10.9185,-4.7422,-4.6259,-4.9089,-6.0852,-6.955,-8.2031,-10.7442,-10.9308,-10.4702,-10.0996,-9.7568,-9.3889,-8.9427,0.0,0.0,0.0,0.0,0.0,0.0,0.0,0.0,0.0,0.0,0.0,0.0,0.0,0.0,0.0,0.0,0.0,0.0,0.0,0.0,0.0,0.0,0.0,-12.388,-12.348,-12.3797,-12.4569,-12.5984,-12.6515,-12.6218,-12.7401,-12.8144,-12.828,-12.828,-12.8124,-12.7891,-12.7556,-12.6766,-12.5695,-12.4501,-12.3264,-12.2293,-12.1709,-12.0409,-11.8928,-11.8928,-11.8538,-11.7993,-11.7993,-11.7993,-11.7993,-11.7993,-11.7993,-11.7993,-11.7993,-11.7993,-11.7993,-11.7993,-11.7993,-11.8227,-11.8694,-11.8579,-11.8087,-11.7297,-11.6482,-11.5498,-11.3945,-11.4114,-11.4497,-11.4793,-11.5667,-11.6522,-11.6926,-11.6778,-11.67,-11.7073,-11.684,-11.6528,-11.6565,-11.6535,-11.5993,-11.4919,-11.4768,-11.4768,-11.4768,-11.5374,-11.5374,-11.4768,-11.4768,-11.4768,-11.4768,-11.4768,-11.4768,-11.4768,-11.4211,-11.3295,-11.1912,-10.9421,-10.7525,-4.7891,-4.6406,0.0,0.0,0.0,0.0,-10.9397,-10.2829,-9.8854,-10.9209,-10.3545,-9.6725,-9.694,0.0,0.0,0.0,0.0,0.0,0.0,0.0,0.0,0.0,0.0,0.0,0.0,0.0,0.0,0.0,0.0,0.0,0.0,0.0,0.0,0.0,0.0,0.0,-12.3877,-12.2627,-12.2892,-12.4569,-12.5389,-12.6296,-12.7106,-12.7106,-12.7461,-12.828,-12.828,-12.7813,-12.6896,-12.6039,-12.4682,-12.3206,-12.3186,-12.2098,-12.0565,-12.0565,-11.9474,-11.7993,-11.7993,-11.7993,-11.7993,-11.7993,-11.7993,-11.7993,-11.7993,-11.7993,-11.7993,-11.7993,-11.7993,-11.7993,-11.7993,-11.7993,-11.7993,-11.7993,-11.713,-11.6157,-11.6157,-11.419,-11.2714,-11.3427,-11.358,-11.4132,-11.5497,-11.6823,-11.7898,-11.858,-11.798,-11.7679,-11.858,-11.7374,-11.6302,-11.5885,-11.648,-11.6394,-11.4919,-11.4768,-11.4768,-11.4768,-11.4768,-11.4768,-11.4768,-11.4768,-11.4768,-11.4768,-11.4768,-11.4768,-11.4768,-11.2932,-11.2059,-11.1912,-10.8003,-10.6126,-5.0547,0.0,0.0,0.0,0.0,0.0,0.0,-11.0432,0.0,0.0,-11.136,-10.6703,-10.1318,0.0,0.0,0.0,0.0,0.0,0.0,0.0,0.0,0.0,0.0,0.0,0.0,0.0,0.0,0.0,0.0,0.0,0.0,0.0,0.0,0.0,0.0,0.0,-12.0477,-12.078,-12.1803,-12.3629,-12.5126,-12.6296,-12.7106,-12.7694,-12.8144,-12.828,-12.828,-12.7496,-12.5895,-12.3905,-12.3101,-12.3128,-12.2474,-12.1614,-12.0565,-12.0565,-11.9474,-11.7993,-11.7993,-11.7993,-11.7993,-11.7993,-11.7993,-11.7993,-11.7993,-11.7993,-11.7993,-11.7993,-11.7993,-11.78,-11.703,-11.6672,-11.6672,-11.6672,-11.6545,-11.5658,-11.4005,-11.3001,-11.2505,-11.2335,-11.2786,-11.3687,-11.541,-11.6499,-11.7502,-11.8504,-11.8505,-11.843,-11.8655,-11.7517,-11.6597,-11.6431,-11.5799,-11.5311,-11.4768,-11.4768,-11.4768,-11.4768,-11.4768,-11.4768,-11.4768,-11.4768,-11.4768,-11.4768,-11.4768,-11.4768,-11.4768,-11.2932,-11.132,-10.9883,-10.7438,-10.5446,-5.5835,0.0,0.0,0.0,0.0,0.0,0.0,0.0,0.0,0.0,0.0,0.0,0.0,0.0,0.0,0.0,0.0,0.0,0.0,0.0,0.0,0.0,0.0,0.0,0.0,0.0,0.0,0.0,0.0,0.0,0.0,0.0,0.0,0.0,0.0,0.0,-11.9076,-11.9981,-12.1596,-12.3736,-12.5111,-12.6437,-12.7617,-12.8144,-12.828,-12.8202,-12.7184,-12.5606,-12.3511,-12.1611,-12.1234,-12.1578,-12.1085,-12.0487,-12.0097,-12.0097,-11.9162,-11.7993,-11.7993,-11.7993,-11.7993,-11.7993,-11.7993,-11.7993,-11.7993,-11.7993,-11.7993,-11.7993,-11.7993,-11.7703,-11.6467,-11.6157,-11.6052,-11.5629,-11.5119,-11.4267,-11.2765,-11.212,-11.1766,-11.1694,-11.2295,-11.3365,-11.5159,-11.5648,-11.6507,-11.8123,-11.8504,-11.858,-11.8279,-11.7593,-11.6899,-11.6356,-11.5648,-11.5084,-11.4768,-11.4768,-11.4768,-11.4768,-11.4768,-11.4768,-11.4768,-11.4768,-11.4768,-11.4768,-11.4768,-11.4768,-11.4768,-11.2202,-11.0344,-10.9038,-10.6543,-10.4588,-6.2158,0.0,0.0,0.0,0.0,0.0,0.0,0.0,0.0,0.0,0.0,0.0,0.0,0.0,0.0,0.0,0.0,0.0,0.0,0.0,0.0,0.0,0.0,0.0,0.0,0.0,0.0,0.0,0.0,0.0,0.0,0.0,0.0,0.0,0.0,0.0,-11.8664,-11.9728,-12.1422,0.0,-12.4783,-12.6187,-12.7813,-12.8202,-12.828,-12.7968,-12.5427,-12.2883,-12.0568,-11.9614,-11.9224,-11.9318,-11.9318,-11.9318,-11.9318,-11.9318,-11.8694,-11.7993,-11.7993,-11.7993,-11.7993,-11.7993,-11.7993,-11.7993,-11.7993,-11.7993,-11.7993,-11.8071,-11.7975,-11.7605,-11.6442,-11.6025,-11.5629,-11.4267,-11.3313,-11.2483,-11.2363,-11.1459,-11.0907,-11.1488,-11.224,-11.3079,-11.4526,-11.449,-11.5063,-11.7362,-11.8201,-11.8354,-11.7969,-11.7593,-11.7056,-11.596,-11.5799,-11.5486,-11.4919,-11.4768,-11.4768,-11.4768,-11.4768,-11.4768,-11.4768,-11.4768,-11.4768,-11.4768,-11.4768,-11.4692,-11.4629,-11.1095,-10.9273,-10.88,-10.5374,-10.3544,0.0,-7.2205,0.0,0.0,0.0,0.0,0.0,0.0,0.0,0.0,0.0,0.0,0.0,0.0,0.0,0.0,0.0,0.0,0.0,0.0,0.0,0.0,0.0,0.0,0.0,0.0,0.0,0.0,0.0,0.0,0.0,0.0,0.0,0.0,0.0,-11.6416,-11.5976,-11.6874,-11.803,0.0,-12.0876,-12.2591,-12.4168,-12.7014,-12.7891,-12.713,-12.4637,-12.2811,-12.1401,-11.9171,-11.8729,-11.9318,-11.9318,-11.9318,-11.9318,-11.9318,-11.8694,-11.7993,-11.7993,-11.7993,-11.7993,-11.7993,-11.7993,-11.7993,-11.7993,-11.7993,-11.8071,-11.8772,-11.7797,-11.6494,-11.5895,-11.4583,-11.3001,-11.183,-11.1999,-11.2165,-11.1334,-11.0907,-11.0729,-11.0907,-11.1488,-11.2261,-11.3721,-11.3844,-11.4362,-11.6534,-11.7371,-11.8048,-11.8722,-11.7345,-11.6272,-11.6707,-11.5702,-11.5008,-11.4768,-11.4768,-11.4768,-11.4768,-11.4768,-11.4768,-11.4768,-11.4768,-11.4768,-11.4768,-11.4768,-11.4211,-11.285,-11.0344,-10.8487,-10.7132,-10.4588,-10.3516,0.0,0.0,0.0,0.0,0.0,0.0,0.0,0.0,0.0,0.0,0.0,0.0,0.0,0.0,0.0,0.0,0.0,0.0,0.0,0.0,0.0,0.0,0.0,0.0,0.0,0.0,0.0,0.0,0.0,0.0,0.0,0.0,0.0,0.0,-11.6364,-11.6028,-11.5069,-11.6384,-11.7597,-11.8407,-12.0331,-12.183,-12.3067,-12.5786,-12.6326,-12.507,-12.327,-12.1633,-11.9935,-11.8622,-11.8305,-11.8694,-11.8694,-11.8694,-11.8694,-11.8694,-11.8383,-11.7993,-11.7993,-11.7993,-11.7993,-11.7993,-11.7993,-11.7993,-11.7993,-11.8305,-11.852,-11.803,-11.7294,-11.6385,-11.4624,-11.331,-11.2242,-11.1034,-11.1209,-11.1459,-11.078,-11.0729,-11.0729,-11.0729,-11.0983,-11.1511,-11.2585,-11.319,-11.3782,-11.4513,-11.5516,-11.6582,-11.7556,-11.6329,-11.5789,-11.6934,-11.5702,-11.5147,-11.5777,-11.5159,-11.4995,-11.5374,-11.4995,-11.4768,-11.4768,-11.4768,-11.4768,-11.4768,-11.4768,-11.3854,-11.2202,-11.0192,-10.833,-10.638,-10.4516,-10.3445,0.0,0.0,0.0,0.0,0.0,0.0,0.0,0.0,0.0,0.0,0.0,0.0,0.0,0.0,0.0,0.0,0.0,0.0,0.0,0.0,0.0,0.0,0.0,0.0,0.0,0.0,0.0,0.0,0.0,0.0,0.0,0.0,-11.7192,-11.6337,-11.6103,-11.5587,-11.4681,-11.6205,-11.7396,-11.8436,-12.05,-12.1908,-12.2617,-12.4204,-12.4166,-12.289,-12.2187,-12.0518,-11.82,-11.8089,-11.7993,-11.7993,-11.7993,-11.7993,-11.7993,-11.7993,-11.7993,-11.7993,-11.7993,-11.7993,-11.7993,-11.7993,-11.7993,-11.7993,-11.7993,-11.8442,-11.8384,-11.6934,-11.6491,-11.5972,-11.3387,-11.2517,-11.1876,-11.0907,-11.0729,-11.0729,-11.0729,-11.0729,-11.0729,-11.0729,-11.0806,-11.0983,-11.1359,-11.268,-11.3434,-11.2826,-11.3995,-11.5311,-11.6156,-11.569,-11.5702,-11.6943,-11.5864,-11.5626,-11.6792,-11.5789,-11.5387,-11.5993,-11.5387,-11.4919,-11.4768,-11.4768,-11.4768,-11.4768,-11.449,-11.3429,-11.1617,-10.9735,-10.7783,-10.587,-10.442,-10.3544,0.0,0.0,0.0,0.0,0.0,0.0,0.0,0.0,0.0,0.0,0.0,0.0,0.0,0.0,0.0,0.0,0.0,0.0,0.0,0.0,0.0,0.0,0.0,0.0,0.0,0.0,0.0,0.0,0.0,0.0,0.0,-11.7116,-11.6209,-11.5403,-11.4577,-11.3826,-11.2894,-11.323,-11.4085,-11.5717,-11.8903,-12.0555,-12.0936,-12.1786,-12.2074,-12.203,-12.1875,-12.0771,-11.9127,-11.8294,-11.7993,-11.7993,-11.7993,-11.7993,-11.7993,-11.7993,-11.7993,-11.7993,-11.7993,-11.7993,-11.7993,-11.7993,-11.7993,-11.7993,-11.7993,-11.7408,-11.6675,-11.7193,-11.5299,-11.3191,-11.3493,-11.2291,-11.0907,-11.0653,-11.0729,-11.0729,-11.0729,-11.0729,-11.0729,-11.0729,-11.116,-11.1359,-11.0825,-11.2376,-11.3586,-11.3464,-11.4843,-11.6307,-11.7632,-11.7094,-11.6943,-11.779,-11.7035,-11.6507,-11.6665,-11.6582,-11.6272,-11.5875,-11.5648,-11.5335,-11.4768,-11.4768,-11.4768,-11.4768,-11.3219,-11.1542,-10.9813,-10.7685,-10.5797,-10.4082,-10.3715,-10.3345,0.0,0.0,0.0,0.0,0.0,0.0,0.0,0.0,0.0,0.0,0.0,0.0,0.0,0.0,0.0,0.0,0.0,0.0,0.0,0.0,0.0,0.0,0.0,0.0,0.0,0.0,0.0,0.0,0.0,0.0,-11.7114,-11.6234,-11.5301,-11.447,-11.4135,0.0,-11.2583,-11.2971,-11.4137,-11.5924,-11.7867,-11.8715,-11.8257,-11.9194,-12.0115,-12.1093,-12.0606,-11.9692,-11.8495,-11.8184,-11.7993,-11.7993,-11.7993,-11.7993,-11.7993,-11.7993,-11.8011,-11.8106,-11.7993,-11.8011,-11.8028,-11.7993,-11.7993,-11.7897,-11.723,-11.6959,-11.6568,-11.511,-11.397,-11.2978,-11.2321,-11.139,-11.0729,-11.0729,-11.0729,-11.0729,-11.0729,-11.0729,-11.0729,-11.0729,-11.0907,-11.1007,-11.0702,-11.1359,-11.2012,-11.188,-11.3022,-11.4278,-11.5712,-11.5892,-11.6523,-11.8001,-11.7337,-11.6974,-11.7885,-11.72,-11.6582,-11.6556,-11.6026,-11.5486,-11.4768,-11.4768,-11.4768,-11.4768,-11.3144,-11.117,-10.9347,-10.7365,-10.5467,-10.3616,-10.3516,-10.3416,0.0,0.0,0.0,0.0,0.0,0.0,0.0,0.0,0.0,0.0,0.0,0.0,0.0,0.0,0.0,0.0,0.0,0.0,0.0,0.0,0.0,0.0,0.0,0.0,0.0,0.0,0.0,0.0,0.0,0.0,-11.6181,-11.5301,-11.4601,-11.3926,-11.3926,-11.3566,-11.2894,-11.3904,-11.4991,-11.6079,-11.7318,-11.7265,-11.6227,-11.7237,-11.8196,-11.9292,-11.9007,-11.8431,-11.7681,-11.7915,-11.7993,-11.7993,-11.7993,-11.7993,-11.7993,-11.7993,-11.8011,-11.8122,-11.8011,-11.8166,-11.8434,-11.8089,-11.8071,-11.8112,-11.703,-11.6727,-11.6189,-11.37,-11.2988,-11.2721,-11.106,-11.0729,-11.0729,-11.0729,-11.0729,-11.0729,-11.0729,-11.0729,-11.0729,-11.0729,-11.0729,-11.0729,-11.0729,-11.0729,-11.0806,-11.0907,-11.19,-11.3015,-11.4412,-11.5317,-11.6447,-11.8092,-11.7728,-11.7664,-11.88,-11.789,-11.72,-11.7254,-11.6499,-11.5724,-11.5084,-11.4919,-11.4629,-11.4211,-11.2492,-11.0796,-10.9112,-10.6883,-10.5019,-10.3416,-10.3416,-10.3487,0.0,0.0,0.0,0.0,0.0,0.0,0.0,0.0,0.0,0.0,0.0,0.0,0.0,0.0,0.0,0.0,0.0,0.0,0.0,0.0,0.0,0.0,0.0,0.0,0.0,0.0,0.0,0.0,0.0,0.0,-11.5326,-11.4421,-11.3929,-11.3926,-11.3799,-11.3826,-11.367,-11.538,-11.5924,-11.5224,-11.6962,-11.7013,-11.5414,-11.6321,-11.6413,-11.5875,-11.7437,-11.7599,-11.6902,-11.7681,-11.7993,-11.7993,-11.7993,-11.7993,-11.7993,-11.7993,-11.7993,-11.7993,-11.7993,-11.846,-11.9084,-11.8305,-11.8616,-11.9084,-11.8208,-11.6261,-11.4457,-11.4422,-11.2603,-11.078,-11.0653,-11.0729,-11.0729,-11.0729,-11.0729,-11.0729,-11.0729,-11.0729,-11.0729,-11.0729,-11.0729,-11.0729,-11.0729,-11.0729,-11.0907,-11.1641,-11.3037,-11.4488,-11.555,-11.7009,-11.8168,-11.8652,-11.8654,-11.858,-11.8655,-11.858,-11.8352,-11.7668,-11.7049,-11.6356,-11.5799,-11.5159,-11.4071,-11.2492,-11.0647,-10.9501,-10.9112,-10.5446,-10.3516,-10.3416,-10.3416,-10.3672,0.0,0.0,0.0,0.0,0.0,0.0,0.0,0.0,0.0,0.0,0.0,0.0,0.0,0.0,0.0,0.0,0.0,0.0,0.0,0.0,0.0,0.0,0.0,0.0,0.0,0.0,0.0,0.0,0.0,0.0,-11.4318,-11.3541,-11.2997,-11.31,-11.3515,-11.3826,-11.3826,-11.4991,-11.5069,-11.4292,-11.4995,-11.5023,-11.4485,-11.4287,-11.412,-11.3879,-11.5127,-11.6033,-11.6902,-11.7566,-11.7956,-11.7993,-11.7993,-11.7993,-11.7993,-11.7993,-11.8011,-11.8106,-11.7993,-11.8166,-11.8495,-11.8071,-11.8227,-11.8092,-11.6312,-11.5119,-11.4119,-11.2483,-11.1411,-11.0729,-11.0729,-11.0729,-11.0729,-11.0729,-11.0729,-11.0729,-11.0729,-11.0729,-11.0729,-11.0729,-11.0729,-11.0882,-11.1417,-11.1794,-11.2317,-11.3099,-11.4372,-11.556,-11.5841,-11.7094,-11.8099,-11.8191,-11.8502,-11.8655,-11.8655,-11.8655,-11.8354,-11.7743,-11.7513,-11.6899,-11.5799,-11.4561,-11.3458,-11.2272,-10.9199,-10.7538,-10.7452,-10.4947,-10.3616,-10.3416,-10.3713,-10.3966,-5.125,0.0,0.0,0.0,0.0,0.0,0.0,0.0,0.0,0.0,0.0,0.0,0.0,0.0,0.0,0.0,0.0,0.0,0.0,0.0,0.0,0.0,0.0,0.0,0.0,0.0,0.0,0.0,0.0,0.0,-11.3437,-11.2894,-11.266,-11.2971,-11.3515,-11.3904,-11.4214,-11.4836,-11.4681,-11.3826,-11.3568,-11.3506,-11.3498,-11.2785,-11.2592,-11.2927,-11.3767,-11.5014,-11.6434,-11.7177,-11.7722,-11.7993,-11.7993,-11.7993,-11.7993,-11.7993,-11.8011,-11.8106,-11.7993,-11.8166,-11.8495,-11.8478,-11.8383,-11.8092,-11.6017,-11.5023,-11.4005,-11.1876,-11.1034,-11.0729,-11.0729,-11.0729,-11.0729,-11.0729,-11.0729,-11.0729,-11.0729,-11.0729,-11.0729,-11.0729,-11.1136,-11.1565,-11.2099,-11.289,-11.3629,-11.4085,-11.5195,-11.6069,-11.6167,-11.7178,-11.803,-11.8116,-11.8502,-11.8655,-11.8655,-11.8655,-11.8504,-11.8051,-11.7747,-11.7287,-11.6507,-11.4371,-11.2811,-11.1841,-10.8404,-10.638,-10.5995,-10.461,-10.3773,-10.3672,-10.4148,-10.4507,0.0,0.0,0.0,0.0,0.0,0.0,0.0,0.0,0.0,0.0,0.0,0.0,0.0,0.0,0.0,0.0,0.0,0.0,0.0,0.0,0.0,0.0,0.0,0.0,0.0,0.0,0.0,0.0,0.0,-11.3437,-11.2583,-11.2583,-11.2894,-11.367,-11.3826,-11.4214,-11.5069,-11.5069,-11.4603,-11.3826,-11.3126,-11.278,-11.2721,-11.2032,-11.2197,-11.2927,-11.373,-11.4606,-11.5499,-11.6434,-11.7291,-11.7993,-11.7993,-11.7993,-11.7993,-11.7993,-11.7993,-11.7993,-11.7993,-11.8616,-11.9318,-11.9318,-11.9318,-11.8969,-11.7789,-11.6034,-11.4119,-11.2765,-11.1583,-11.0729,-11.0729,-11.0729,-11.0729,-11.0729,-11.0729,-11.0729,-11.0729,-11.0729,-11.0806,-11.0806,-11.1914,-11.2756,-11.2756,-11.3889,-11.4781,-11.4781,-11.5462,-11.6167,-11.6665,-11.7351,-11.804,-11.8654,-11.8655,-11.8655,-11.8655,-11.8655,-11.8655,-11.8655,-11.8051,-11.7743,-11.7668,-11.4828,-11.2514,-11.0842,-10.7978,-10.5995,-10.486,-10.4354,-10.4148,-10.4148,-10.4685,-10.5143,-4.1931,0.0,0.0,0.0,0.0,0.0,0.0,0.0,0.0,0.0,0.0,0.0,0.0,0.0,0.0,0.0,0.0,0.0,0.0,0.0,0.0,0.0,0.0,0.0,0.0,0.0,0.0,0.0,-11.2918,-11.2583,-11.1728,-11.1728,-11.2117,-11.2894,-11.3515,-11.3904,-11.4214,-11.4214,-11.367,-11.2894,-11.2693,-11.2725,-11.2717,-11.2634,-11.2604,-11.2927,-11.3065,-11.3689,-11.472,-11.6086,-11.6865,-11.7214,-11.7837,-11.7993,-11.7993,-11.7993,-11.7993,-11.7993,-11.7993,-11.8227,-11.8383,-11.8383,-11.8383,-11.8014,-11.5939,-11.4912,-11.4005,-11.183,-11.1034,-11.0729,-11.0729,-11.0729,-11.0729,-11.0729,-11.0729,-11.0729,-11.0729,-11.1542,-11.2404,-11.2404,-11.3346,-11.4541,-11.5149,-11.5702,-11.6347,-11.6952,-11.7653,-11.8044,-11.8051,-11.8276,-11.8502,-11.8655,-11.8655,-11.8655,-11.8655,-11.8655,-11.8655,-11.8655,-11.8504,-11.8048,-11.7049,-11.3858,-11.1583,-11.045,-10.7162,-10.5302,-10.5209,-10.4536,-10.4328,-10.4756,-10.5213,-10.5771,-4.3085,-4.4162,-4.5932,0.0,0.0,0.0,0.0,0.0,0.0,0.0,0.0,0.0,0.0,0.0,0.0,0.0,0.0,0.0,0.0,0.0,0.0,0.0,0.0,0.0,0.0,0.0,0.0,0.0,-11.2583,-11.2194,-11.1262,-11.1262,-11.1495,-11.1961,-11.2505,-11.2894,-11.3282,-11.3282,-11.3127,-11.2583,-11.3029,-11.3006,-11.2717,-11.3193,-11.3184,-11.2927,-11.2927,-11.3239,-11.3784,-11.5073,-11.6086,-11.6902,-11.7681,-11.7993,-11.7993,-11.7993,-11.7993,-11.7993,-11.7993,-11.7993,-11.8071,-11.8383,-11.8305,-11.7605,-11.5585,-11.4689,-11.3891,-11.1411,-11.0729,-11.0729,-11.0729,-11.0729,-11.0806,-11.0954,-11.1031,-11.1053,-11.1381,-11.2718,-11.3651,-11.3058,-11.46,-11.603,-11.6435,-11.7246,-11.7809,-11.8191,-11.8502,-11.8655,-11.8655,-11.8655,-11.8655,-11.8655,-11.8655,-11.8655,-11.8655,-11.8655,-11.8655,-11.8655,-11.8655,-11.7904,-11.6102,-11.3377,-11.1202,-10.9606,-10.6582,-10.5209,-10.5465,-10.504,-10.4968,-10.5489,-10.5802,-10.6142,-4.512,-4.547,-4.6932,-4.9625,0.0,0.0,-7.1516,-7.4359,0.0,0.0,0.0,0.0,0.0,0.0,0.0,0.0,0.0,0.0,0.0,0.0,0.0,0.0,0.0,0.0,0.0,0.0,-11.3352,-11.2685,-11.2427,-11.1883,-11.1106,-11.1029,-11.1106,-11.1184,-11.1184,-11.1728,-11.2583,-11.2583,-11.2583,-11.2583,-11.3711,-11.3685,-11.2717,-11.3824,-11.3828,-11.2927,-11.2927,-11.2927,-11.3005,-11.3784,-11.5187,-11.6668,-11.7525,-11.7915,-11.7993,-11.7993,-11.7993,-11.7993,-11.7993,-11.7993,-11.8071,-11.8928,-11.852,-11.7506,-11.5972,-11.4886,-11.3699,-11.1411,-11.0729,-11.0729,-11.0729,-11.0729,-11.083,-11.1423,-11.1596,-11.1767,-11.2354,-11.3829,-11.4588,-11.3403,-11.5453,-11.714,-11.7085,-11.8099,-11.8797,-11.8579,-11.8729,-11.8729,-11.8729,-11.8655,-11.8655,-11.8655,-11.8655,-11.8655,-11.8655,-11.858,-11.858,-11.8806,-11.8506,-11.7304,-11.5265,-11.3069,-11.0919,-10.8721,-10.6507,-10.55,-10.5661,-10.5661,-10.5902,-10.631,-10.6451,-10.6573,-4.9003,-4.9009,-5.0164,-4.8163,0.0,0.0,0.0,-5.398,0.0,0.0,0.0,0.0,0.0,0.0,0.0,0.0,0.0,0.0,0.0,0.0,0.0,0.0,0.0,0.0,0.0,0.0,-11.3352,-11.2685,-11.1262,-11.0096,-10.9319,-10.9164,-10.9475,-11.0174,-11.0873,-11.1728,-11.2583,-11.2583,-11.2479,-11.2503,-11.4237,-11.4208,-11.2702,-11.4368,-11.4269,-11.2927,-11.2927,-11.2927,-11.3005,-11.3784,-11.4798,-11.5811,-11.6668,-11.7369,-11.7993,-11.7993,-11.7993,-11.7993,-11.7993,-11.7993,-11.7993,-11.8227,-11.7485,-11.6261,-11.4978,-11.3776,-11.2603,-11.1083,-11.0729,-11.0729,-11.0729,-11.0729,-11.083,-11.1423,-11.2108,-11.2697,-11.2489,-11.4269,-11.5712,-11.4769,-11.5905,-11.7236,-11.7917,-11.8092,-11.8181,-11.8105,-11.8643,-11.8876,-11.8876,-11.8805,-11.8655,-11.8655,-11.8655,-11.8655,-11.8655,-11.8201,-11.8279,-11.9405,-11.6919,-11.5403,-11.5373,-11.165,-10.9354,-10.8575,-10.6848,-10.6113,-10.6212,-10.6212,-10.617,-10.631,-10.6714,-10.6833,-5.1618,-5.0317,-5.1087,-5.024,0.0,0.0,0.0,0.0,0.0,0.0,0.0,0.0,0.0,0.0,0.0,0.0,0.0,0.0,0.0,0.0,0.0,0.0,0.0,0.0,0.0,0.0,-11.2581,-11.1365,-11.0485,-10.963,-10.8698,-10.8698,-10.9086,-11.0019,-11.0407,-11.1262,-11.2583,-11.2583,-11.2557,-11.253,-11.4266,-11.433,-11.2707,-11.4599,-11.4509,-11.2927,-11.2927,-11.2927,-11.2927,-11.3395,-11.433,-11.5577,-11.6512,-11.7291,-11.7993,-11.7993,-11.7993,-11.7993,-11.7993,-11.7993,-11.7819,-11.6785,-11.5972,-11.517,-11.3423,-11.2295,-11.1459,-11.0907,-11.0931,-11.113,-11.113,-11.1326,-11.1615,-11.2219,-11.2675,-11.3206,-11.3403,-11.454,-11.5374,-11.5498,-11.5753,-11.6307,-11.7388,-11.7623,-11.7556,-11.742,-11.7653,-11.8035,-11.8412,-11.8417,-11.8575,-11.9181,-11.9331,-11.9407,-11.9553,-11.933,-11.9405,-11.9995,-11.8482,-11.6653,-11.4383,-11.2321,-10.9943,-10.7489,-10.6688,-10.6407,-10.6644,-10.6644,-10.6644,-10.6714,-10.6833,-10.7157,0.0,0.0,0.0,0.0,0.0,-5.1167,0.0,0.0,0.0,0.0,0.0,0.0,0.0,0.0,0.0,0.0,0.0,0.0,0.0,0.0,0.0,0.0,0.0,0.0,0.0,0.0,-10.9178,-10.9836,-10.7868,-10.7215,-10.8387,-10.862,-10.9086,-11.0019,-11.0174,-11.1029,-11.2583,-11.2583,-11.2583,-11.2557,-11.4368,-11.433,-11.2712,-11.4599,-11.4509,-11.2927,-11.2927,-11.2927,-11.2927,-11.2927,-11.3862,-11.5577,-11.6278,-11.7136,-11.7993,-11.7993,-11.7993,-11.7993,-11.7993,-11.7993,-11.7722,-11.5559,-11.4627,-11.3802,-11.165,-11.0769,-11.0729,-11.0907,-11.1206,-11.1596,-11.1691,-11.205,-11.2418,-11.3064,-11.3379,-11.3745,-11.4362,-11.4729,-11.4956,-11.5753,-11.5298,-11.5159,-11.6621,-11.6848,-11.6934,-11.6892,-11.6974,-11.7502,-11.8412,-11.8492,-11.8876,-11.9932,-12.0006,-12.0154,-12.0509,-12.036,-12.0285,-12.0428,-11.9512,-11.7195,-11.3259,-11.2328,-11.0262,-10.6477,-10.6407,-10.6714,-10.7065,-10.7065,-10.7065,-10.7065,-10.7157,-10.7617,0.0,0.0,0.0,0.0,-5.5088,0.0,0.0,0.0,0.0,0.0,0.0,0.0,0.0,0.0,0.0,0.0,0.0,0.0,0.0,0.0,0.0,0.0,0.0,0.0,0.0,0.0,0.0,-10.8685,-10.0222,-9.8416,-10.7091,-10.8309,-10.9086,-11.0019,-11.0718,-11.1573,-11.2583,-11.2583,-11.2479,-11.2425,-11.4266,-11.4312,-11.2702,-11.4518,-11.4509,-11.2927,-11.2927,-11.2927,-11.2927,-11.2927,-11.3862,-11.5499,-11.5577,-11.659,-11.7993,-11.7993,-11.7993,-11.7993,-11.7993,-11.7993,-11.7722,-11.5559,-11.3474,-11.1414,-11.0032,-11.0092,-11.0806,-11.1412,-11.1587,-11.1783,-11.2261,-11.243,-11.2615,-11.3064,-11.396,-11.4629,-11.4438,-11.5172,-11.5677,-11.5071,-11.4919,-11.5071,-11.6056,-11.6208,-11.661,-11.7571,-11.8337,-11.9104,-12.0306,-12.0298,-12.029,-12.044,-12.044,-12.0514,-12.0509,-11.9995,-11.9767,-12.0191,-11.5857,-11.3291,-11.3151,-10.9233,-10.7028,-10.6833,-10.6902,-10.7205,-10.7547,-10.7547,-10.7547,-10.7547,-10.8001,-10.8173,0.0,0.0,0.0,0.0,0.0,0.0,-5.0113,0.0,-4.7702,0.0,0.0,0.0,0.0,0.0,0.0,0.0,0.0,0.0,0.0,0.0,0.0,0.0,0.0,0.0,0.0,0.0,0.0,0.0,0.0,-9.6108,-10.5381,-10.7688,-10.9086,-11.0019,-11.0796,-11.1728,-11.2583,-11.31,-11.3333,-11.3308,-11.4572,-11.4598,-11.3502,-11.429,-11.3962,-11.2927,-11.2927,-11.2927,-11.2927,-11.2927,-11.3629,-11.4798,-11.5265,-11.6512,-11.7993,-11.7993,-11.7993,-11.7993,-11.7993,-11.7215,-11.5739,-11.2389,-11.0495,-10.9495,-10.9199,-11.0085,-11.1304,-11.1976,-11.2278,-11.2493,-11.2811,-11.314,-11.3401,-11.3779,-11.4211,-11.4642,-11.4717,-11.5008,-11.5222,-11.4919,-11.541,-11.596,-11.6414,-11.6414,-11.6574,-11.7118,-11.812,-11.9106,-12.0081,-12.0079,-12.0373,-12.1107,-12.1256,-12.1324,-12.1524,-12.0854,-11.9932,-11.9165,-11.4098,-11.1312,-11.1539,-10.8434,-10.6809,-10.7042,-10.7227,-10.7547,-10.8071,-10.8071,-10.8227,-10.8466,-10.8312,-10.8355,-6.6081,0.0,0.0,0.0,0.0,0.0,0.0,0.0,0.0,0.0,0.0,0.0,0.0,0.0,0.0,0.0,0.0,0.0,0.0,0.0,0.0,0.0,0.0,0.0,0.0,0.0,0.0,0.0,0.0,0.0,-10.4215,-10.7066,-10.8931,-11.0019,-11.1106,-11.2117,-11.2919,-11.3591,-11.4027,-11.4261,-11.4683,-11.4595,-11.4136,-11.3906,-11.3398,-11.2927,-11.2927,-11.2927,-11.2927,-11.2927,-11.3395,-11.433,-11.5187,-11.6434,-11.7681,-11.7915,-11.7993,-11.7993,-11.7993,-11.6274,-11.3504,-10.9996,-10.8592,-10.8512,-10.8834,-11.0189,-11.1805,-11.2463,-11.29,-11.3174,-11.339,-11.3864,-11.4184,-11.4317,-11.4449,-11.4578,-11.4843,-11.5084,-11.5323,-11.5323,-11.6205,-11.691,-11.691,-11.7061,-11.7287,-11.7672,-11.8505,-11.9405,-12.0373,-12.0523,-12.0818,-12.1765,-12.1914,-12.1897,-12.1928,-12.1408,-11.9934,-11.7127,-11.2712,-10.9839,-10.937,-10.804,-10.7157,-10.7436,-10.7756,-10.814,-10.8535,-10.8535,-10.8687,-10.8989,-10.8687,-10.8724,0.0,0.0,0.0,-6.6482,0.0,0.0,0.0,0.0,-5.1241,0.0,0.0,0.0,0.0,0.0,0.0,-4.9779,0.0,0.0,0.0,0.0,0.0,0.0,0.0,0.0,0.0,0.0,0.0,0.0,0.0,0.0,-10.3772,-10.6522,-10.8232,-10.9941,-11.1728,-11.2997,-11.377,-11.3926,-11.444,-11.5185,-11.4364,-11.413,-11.4136,-11.319,-11.2871,-11.2927,-11.2927,-11.2927,-11.2927,-11.2927,-11.3395,-11.433,-11.5187,-11.5967,-11.6902,-11.7681,-11.7993,-11.7993,-11.7993,-11.5379,-11.1637,-10.9533,-10.8758,-10.8931,-10.8876,-11.0379,-11.228,-11.2989,-11.3279,-11.3644,-11.4091,-11.4383,-11.4513,-11.4513,-11.4513,-11.4578,-11.4843,-11.5799,-11.659,-11.659,-11.6995,-11.7304,-11.7304,-11.8055,-11.8956,-12.0141,-12.036,-12.0795,-12.2089,-12.2237,-12.2151,-12.23,-12.23,-12.2002,-12.1185,-12.1111,-11.8928,-11.3587,-11.105,-10.904,-10.7228,-10.7506,-10.7914,-10.8243,-10.8312,-10.8535,-10.8989,-10.8989,-10.8989,-10.8989,-10.8989,-10.9019,0.0,0.0,-9.2943,-7.3554,0.0,0.0,0.0,0.0,0.0,0.0,0.0,0.0,0.0,0.0,0.0,-5.0509,-4.9824,0.0,0.0,0.0,0.0,0.0,0.0,0.0,0.0,0.0,0.0,0.0,0.0,0.0,0.0,-10.6104,-10.8926,-11.0014,-11.2293,-11.3895,-11.4773,-11.544,-11.5928,-11.6183,-11.5999,-11.5578,-11.4999,-11.4118,-11.3396,-11.2927,-11.2927,-11.2927,-11.2927,-11.2927,-11.3083,-11.3473,-11.4875,-11.5733,-11.6122,-11.7525,-11.7993,-11.7566,-11.494,-11.3219,-11.168,-10.894,-10.9094,-11.0531,-11.0704,-11.1715,-11.2872,-11.3505,-11.3806,-11.3873,-11.4175,-11.4383,-11.4513,-11.4513,-11.4578,-11.4944,-11.5885,-11.5978,-11.6144,-11.6919,-11.7531,-11.7751,-11.7751,-11.8637,-11.9526,-11.9607,-12.0862,-12.1802,-12.2151,-12.178,-12.1482,-12.1482,-12.0962,-12.0591,-12.0294,-11.7794,-11.5336,-11.2872,-10.997,-10.8068,-10.7457,-10.7914,-10.8227,-10.8312,-10.8618,-10.8839,-10.8989,-10.8959,-10.8906,-10.8974,-10.9058,-10.8998,-9.6463,-10.128,0.0,-8.4862,-8.3591,0.0,-6.3984,0.0,0.0,0.0,0.0,0.0,0.0,0.0,0.0,-5.3015,-5.0824,-4.8213,0.0,0.0,0.0,0.0,0.0,0.0,0.0,0.0,-6.8332,-8.1544,-8.0852,0.0,0.0,0.0,-10.8094,-10.9626,-11.2495,-11.4584,-11.5773,-11.6416,-11.6924,-11.7177,-11.6618,-11.6002,-11.5468,-11.4313,-11.3425,-11.2927,-11.2927,-11.2927,-11.2927,-11.2927,-11.2927,-11.3083,-11.4798,-11.5499,-11.5733,-11.7369,-11.8208,-11.7797,-11.4003,-11.2927,-11.2721,-10.9497,-10.9807,-11.1386,-11.1599,-11.2382,-11.3295,-11.3759,-11.3979,-11.4116,-11.4326,-11.4524,-11.4578,-11.4578,-11.5108,-11.5572,-11.6137,-11.6609,-11.7001,-11.7456,-11.7894,-11.8252,-11.8252,-11.89,-11.9412,-11.9363,-12.0612,-12.1408,-12.1408,-12.0962,-12.0665,-12.0665,-12.0356,-11.9887,-11.9076,-11.57,-11.3185,-11.1872,-10.9421,-10.7863,-10.7672,-10.8065,-10.8355,-10.823,-10.8586,-10.8744,-10.8761,-10.8912,-10.9058,-10.9064,-10.8995,-10.9055]}]]